[[{"header":{"parameterUnit":"m.s-1","parameterCategory":1,"la1":31.0,"la2":29.5877,"lo1":-88.7671,"lo2":-86.6584,"dy":0.0162,"dx":0.0185,"nx":115,"ny":88,"refTime":"2025-01-22T06:00:00:Z","depth":0,"parameterNumber":2,"parameterNumberName":"U-component_of_WINDS"},"data":[0.0,0.0,0.0,0.0,0.0,0.0,0.0,0.0,0.0,0.0,0.0,0.0,0.0,0.0,0.0,0.0,0.0,0.0,0.0,0.0,0.0,0.0,0.0,0.0,0.0,0.0,0.0,0.0,0.0,0.0,0.0,0.0,0.0,0.0,0.0,0.0,0.0,0.0,0.0,0.0,0.0,0.0,0.0,0.0,0.0,0.0,0.0,0.0,0.0,0.0,0.0,0.0,0.0,0.0,0.0,0.0,0.0,0.0,0.0,0.0,0.0,0.0,0.0,0.0,0.0,0.0,0.0,0.0,0.0,0.0,0.0,0.0,0.0,0.0,0.0,0.0,0.0,0.0,0.0,0.0,0.0,0.0,0.0,0.0,0.0,0.0,0.0,0.0,0.0,0.0,0.0,0.0,0.0,0.0,0.0,0.0,0.0,0.0,0.0,0.0,0.0,0.0,0.0,0.0,0.0,0.0,0.0,0.0,0.0,0.0,0.0,0.0,0.0,0.0,0.0,0.0,0.0,0.0,0.0,0.0,0.0,0.0,0.0,0.0,0.0,0.0,0.0,0.0,0.0,0.0,0.0,0.0,0.0,0.0,0.0,0.0,0.0,0.0,0.0,0.0,0.0,0.0,0.0,0.0,0.0,0.0,0.0,0.0,0.0,0.0,0.0,0.0,0.0,0.0,0.0,0.0,0.0,0.0,0.0,0.0,0.0,0.0,0.0,0.0,0.0,0.0,0.0,0.0,0.0,0.0,0.0,0.0,0.0,0.0,0.0,0.0,0.0,0.0,0.0,0.0,0.0,0.0,0.0,0.0,0.0,0.0,0.0,0.0,0.0,0.0,0.0,0.0,0.0,0.0,0.0,0.0,0.0,0.0,0.0,0.0,0.0,0.0,0.0,0.0,0.0,0.0,0.0,0.0,0.0,0.0,0.0,0.0,0.0,0.0,0.0,0.0,0.0,0.0,0.0,0.0,0.0,0.0,0.0,0.0,0.0,0.0,0.0,0.0,0.0,0.0,0.0,0.0,0.0,0.0,0.0,0.0,0.0,0.0,0.0,0.0,0.0,0.0,0.0,0.0,0.0,0.0,0.0,0.0,0.0,0.0,0.0,0.0,0.0,0.0,0.0,0.0,0.0,0.0,0.0,0.0,0.0,0.0,0.0,0.0,0.0,0.0,0.0,0.0,0.0,0.0,0.0,0.0,0.0,0.0,0.0,0.0,0.0,0.0,0.0,0.0,0.0,0.0,0.0,0.0,0.0,0.0,0.0,0.0,0.0,0.0,0.0,0.0,0.0,0.0,0.0,0.0,0.0,0.0,0.0,0.0,0.0,0.0,0.0,0.0,0.0,0.0,0.0,0.0,0.0,0.0,0.0,0.0,0.0,0.0,0.0,0.0,0.0,0.0,0.0,0.0,0.0,0.0,0.0,0.0,0.0,0.0,0.0,0.0,0.0,0.0,0.0,0.0,0.0,0.0,0.0,0.0,0.0,0.0,0.0,0.0,0.0,0.0,0.0,0.0,0.0,0.0,0.0,0.0,0.0,0.0,0.0,0.0,0.0,0.0,0.0,0.0,0.0,0.0,0.0,0.0,0.0,0.0,0.0,0.0,0.0,0.0,0.0,0.0,0.0,0.0,0.0,0.0,0.0,0.0,0.0,0.0,0.0,0.0,0.0,0.0,0.0,0.0,0.0,0.0,0.0,0.0,0.0,0.0,0.0,0.0,0.0,0.0,0.0,0.0,0.0,0.0,0.0,0.0,0.0,0.0,0.0,0.0,0.0,0.0,0.0,0.0,0.0,0.0,0.0,0.0,0.0,0.0,0.0,0.0,0.0,0.0,0.0,0.0,0.0,0.0,0.0,0.0,0.0,0.0,0.0,0.0,0.0,0.0,0.0,0.0,0.0,0.0,0.0,0.0,0.0,0.0,0.0,0.0,0.0,0.0,0.0,0.0,0.0,0.0,0.0,0.0,0.0,0.0,0.0,0.0,0.0,0.0,0.0,0.0,0.0,0.0,0.0,0.0,0.0,0.0,0.0,0.0,0.0,0.0,0.0,0.0,0.0,0.0,0.0,0.0,0.0,0.0,0.0,0.0,0.0,0.0,0.0,0.0,0.0,0.0,0.0,0.0,0.0,0.0,0.0,0.0,0.0,0.0,0.0,0.0,0.0,0.0,0.0,0.0,0.0,0.0,0.0,0.0,0.0,0.0,0.0,0.0,0.0,0.0,0.0,0.0,0.0,0.0,0.0,0.0,0.0,0.0,0.0,0.0,0.0,0.0,0.0,0.0,0.0,0.0,0.0,0.0,0.0,0.0,0.0,0.0,0.0,0.0,0.0,0.0,0.0,0.0,0.0,0.0,0.0,0.0,0.0,0.0,0.0,0.0,0.0,0.0,0.0,0.0,0.0,0.0,0.0,0.0,0.0,0.0,0.0,0.0,0.0,0.0,0.0,0.0,0.0,0.0,0.0,0.0,0.0,0.0,0.0,0.0,0.0,0.0,0.0,0.0,0.0,0.0,0.0,0.0,0.0,0.0,0.0,0.0,0.0,0.0,0.0,0.0,0.0,0.0,0.0,0.0,0.0,0.0,0.0,0.0,0.0,0.0,0.0,0.0,0.0,0.0,0.0,0.0,0.0,0.0,0.0,0.0,0.0,0.0,0.0,0.0,0.0,0.0,0.0,0.0,0.0,0.0,0.0,0.0,0.0,0.0,0.0,0.0,0.0,0.0,0.0,0.0,0.0,0.0,0.0,0.0,0.0,0.0,0.0,0.0,0.0,0.0,0.0,0.0,0.0,0.0,0.0,0.0,0.0,0.0,0.0,0.0,0.0,0.0,0.0,0.0,0.0,0.0,0.0,0.0,0.0,0.0,0.0,0.0,0.0,0.0,0.0,0.0,0.0,0.0,0.0,0.0,0.0,0.0,0.0,0.0,0.0,0.0,0.0,0.0,0.0,0.0,0.0,0.0,0.0,0.0,0.0,0.0,0.0,0.0,0.0,0.0,0.0,0.0,0.0,0.0,0.0,0.0,0.0,0.0,0.0,0.0,0.0,0.0,0.0,0.0,0.0,0.0,0.0,0.0,0.0,0.0,0.0,0.0,0.0,0.0,0.0,0.0,0.0,0.0,0.0,0.0,0.0,0.0,0.0,0.0,0.0,0.0,0.0,0.0,0.0,0.0,0.0,0.0,0.0,0.0,0.0,0.0,0.0,0.0,0.0,0.0,0.0,0.0,0.0,0.0,0.0,0.0,0.0,0.0,0.0,0.0,0.0,0.0,0.0,0.0,0.0,0.0,0.0,0.0,0.0,0.0,0.0,0.0,0.0,0.0,0.0,0.0,0.0,0.0,0.0,0.0,0.0,0.0,0.0,0.0,0.0,0.0,0.0,0.0,0.0,0.0,0.0,0.0,0.0,0.0,0.0,0.0,0.0,0.0,0.0,0.0,0.0,0.0,0.0,0.0,0.0,0.0,0.0,0.0,0.0,0.0,0.0,0.0,0.0,0.0,0.0,0.0,0.0,0.0,0.0,0.0,0.0,0.0,0.0,0.0,0.0,0.0,0.0,0.0,0.0,0.0,0.0,0.0,0.0,0.0,0.0,0.0,0.0,0.0,0.0,0.0,0.0,0.0,0.0,0.0,0.0,0.0,0.0,0.0,0.0,0.0,0.0,0.0,0.0,0.0,0.0,0.0,0.0,0.0,0.0,0.0,0.0,0.0,0.0,0.0,0.0,0.0,0.0,0.0,0.0,0.0,0.0,0.0,0.0,0.0,0.0,0.0,0.0,0.0,0.0,0.0,0.0,0.0,0.0,0.0,0.0,0.0,0.0,0.0,0.0,0.0,0.0,0.0,0.0,0.0,0.0,0.0,0.0,0.0,0.0,0.0,0.0,0.0,0.0,0.0,0.0,0.0,0.0,0.0,0.0,0.0,0.0,0.0,0.0,0.0,0.0,0.0,0.0,0.0,0.0,0.0,0.0,0.0,0.0,0.0,0.0,0.0,0.0,0.0,0.0,0.0,0.0,0.0,0.0,0.0,0.0,0.0,0.0,0.0,0.0,0.0,0.0,0.0,0.0,0.0,0.0,0.0,0.0,0.0,0.0,0.0,0.0,0.0,0.0,0.0,0.0,0.0,0.0,0.0,0.0,0.0,0.0,0.0,0.0,0.0,0.0,0.0,0.0,0.0,0.0,0.0,0.0,0.0,0.0,0.0,0.0,0.0,0.0,0.0,0.0,0.0,0.0,0.0,0.0,0.0,0.0,0.0,1.2439,0.0,0.0,0.0,0.0,0.0,0.0,0.0,0.0,0.0,0.0,0.0,0.0,0.0,0.0,0.0,0.0,0.0,0.0,0.0,0.0,0.0,0.0,0.0,0.0,0.0,0.0,0.0,0.0,0.0,0.0,0.0,0.0,0.0,0.0,0.0,0.0,0.0,0.0,0.0,0.0,0.0,0.0,0.0,0.0,0.0,0.0,0.0,0.0,0.0,0.0,0.0,0.0,0.0,0.0,0.0,0.0,0.0,0.0,0.0,0.0,0.0,0.0,0.0,0.0,0.0,0.0,0.0,0.0,0.0,0.0,0.0,0.0,0.0,0.0,0.0,0.0,0.0,0.0,0.0,0.0,0.0,0.0,0.0,0.0,0.0,0.0,0.0,0.0,0.0,0.0,0.0,0.0,0.0,0.0,0.0,0.0,0.0,0.0,0.0,0.0,0.0,0.0,0.0,0.0,0.0,0.0,0.0,0.0,0.0,0.0,1.356,1.356,1.3576,1.3407,1.3087,0.0,0.0,0.0,0.0,0.0,0.0,0.0,0.0,0.0,0.0,0.0,0.0,0.0,0.0,0.0,0.0,0.0,0.0,0.0,0.0,0.0,0.0,0.0,0.0,0.0,0.0,0.0,0.0,0.0,0.0,0.0,0.0,0.0,0.0,0.0,0.0,0.0,0.0,0.0,0.0,0.0,0.0,0.0,0.0,0.0,0.0,0.0,0.0,0.0,0.0,0.0,0.0,0.0,0.0,0.0,0.0,0.0,0.0,0.0,0.0,0.0,0.0,0.0,0.0,0.0,0.0,0.0,0.0,0.0,0.0,0.0,0.0,0.0,0.0,0.0,0.0,0.0,0.0,0.0,0.0,0.0,0.0,0.0,0.0,0.0,0.0,0.0,0.0,0.0,0.0,0.0,0.0,0.0,0.0,0.0,0.0,0.0,0.0,0.0,0.0,0.0,0.0,0.0,0.0,0.0,0.0,0.0,0.0,0.0,0.0,0.0,0.0,1.3948,1.3875,1.386,0.0,0.0,0.0,0.0,0.0,0.0,0.0,0.0,0.0,0.0,0.0,0.0,0.0,0.0,0.0,0.0,0.0,0.0,0.0,0.0,0.0,0.0,0.0,0.0,0.0,0.0,0.0,0.0,0.0,0.0,0.0,0.0,0.0,0.0,0.0,0.0,0.0,0.0,0.0,0.0,0.0,0.0,0.0,0.0,0.0,0.0,0.0,0.0,0.0,0.0,0.0,0.0,0.0,0.0,0.0,0.0,0.0,0.0,0.0,0.0,0.0,0.0,0.0,0.0,0.0,0.0,0.0,0.0,0.0,0.0,0.0,0.0,0.0,0.0,0.0,0.0,0.0,0.0,0.0,0.0,0.0,0.0,0.0,0.0,0.0,0.0,0.0,0.0,0.0,0.0,0.0,0.0,0.0,0.0,0.0,0.0,0.0,0.0,0.0,0.0,0.0,0.0,0.0,0.0,0.0,0.0,0.0,0.0,0.0,0.0,1.4279,1.564,1.5018,0.0,1.4695,0.0,0.0,0.0,0.0,0.0,0.0,0.0,0.0,0.0,0.0,0.0,0.0,0.0,0.0,0.0,0.0,0.0,0.0,0.0,0.0,0.0,0.0,0.0,0.0,0.0,0.0,0.0,0.0,0.0,0.0,0.0,0.0,0.0,0.0,0.0,0.0,0.0,0.0,0.0,0.0,0.0,0.0,0.0,0.0,0.0,0.0,0.0,0.0,0.0,0.0,0.0,0.0,0.0,0.0,0.0,0.0,0.0,0.0,0.0,0.0,0.0,0.0,0.0,0.0,0.0,0.0,0.0,0.0,0.0,0.0,0.0,0.0,0.0,0.0,0.0,0.0,0.0,0.0,0.0,0.0,0.0,0.0,0.0,0.0,0.0,0.0,0.0,0.0,0.0,0.0,0.0,0.0,0.0,0.0,0.0,0.0,0.0,0.0,0.0,0.0,0.0,0.0,0.0,0.0,0.0,0.0,0.0,0.0,0.0,0.0,1.5038,1.5262,1.5038,1.488,0.0,0.0,0.0,0.0,0.0,0.0,0.0,0.0,0.0,0.0,0.0,0.0,0.0,0.0,0.0,0.0,0.0,0.0,0.0,0.0,0.0,0.0,0.0,0.0,0.0,0.0,0.0,0.0,0.0,0.0,0.0,0.0,0.0,0.0,0.0,0.0,0.0,0.0,0.0,0.0,0.0,0.0,0.0,0.0,0.0,0.0,0.0,0.0,0.0,0.0,0.0,0.0,0.0,0.0,0.0,0.0,0.0,0.0,0.0,0.0,0.0,0.0,0.0,0.0,0.0,0.0,0.0,0.0,0.0,0.0,0.0,0.0,0.0,0.0,0.0,0.0,0.0,0.0,0.0,0.0,0.0,0.0,0.0,0.0,0.0,0.0,0.0,0.0,0.0,0.0,0.0,0.0,0.0,0.0,0.0,0.0,0.0,0.0,0.0,0.0,0.0,0.0,0.0,0.0,0.0,0.0,0.0,0.0,0.0,0.0,1.5643,0.0,1.561,1.5469,1.5187,1.4682,0.0,0.0,0.0,0.0,0.0,0.0,0.0,0.0,0.0,0.0,0.0,0.0,0.0,0.0,0.0,0.0,0.0,0.0,0.0,0.0,0.0,0.0,0.0,0.0,0.0,0.0,0.0,0.0,0.0,0.0,0.0,0.0,0.0,0.0,0.0,0.0,0.0,0.0,0.0,0.0,0.0,0.0,0.0,0.0,0.0,0.0,0.0,0.0,0.0,0.0,0.0,0.0,0.0,0.0,0.0,0.0,0.0,0.0,0.0,0.0,0.0,0.0,0.0,0.0,0.0,0.0,0.0,0.0,0.0,0.0,0.0,0.0,0.0,0.0,0.0,0.0,0.0,0.0,0.0,0.0,0.0,0.0,0.0,0.0,0.0,0.0,0.0,0.0,0.0,0.0,0.0,0.0,0.0,0.0,0.0,0.0,0.0,0.0,0.0,0.0,0.0,0.0,0.0,0.0,0.0,0.0,0.0,0.0,0.0,1.6851,1.6694,1.7505,1.6835,1.5742,0.0,0.0,0.0,0.0,0.0,0.0,0.0,0.0,0.0,0.0,0.0,0.0,0.0,0.0,0.0,0.0,0.0,0.0,0.0,0.0,0.0,0.0,0.0,0.0,0.0,0.0,0.0,0.0,0.0,0.0,0.0,0.0,0.0,0.0,0.0,0.0,0.0,0.0,0.0,0.0,0.0,0.0,0.0,0.0,0.0,0.0,0.0,0.0,0.0,0.0,0.0,0.0,0.0,0.0,0.0,0.0,0.0,0.0,0.0,0.0,0.0,0.0,0.0,0.0,0.0,0.0,0.0,0.0,0.0,0.0,0.0,0.0,0.0,0.0,0.0,0.0,0.0,0.0,0.0,0.0,0.0,0.0,0.0,0.0,0.0,0.0,0.0,0.0,0.0,0.0,0.0,0.0,0.0,0.0,0.0,0.0,0.0,0.0,0.0,0.0,0.0,0.0,0.0,0.0,0.0,0.0,0.0,0.0,0.0,1.5211,1.5382,1.6393,1.8235,1.6761,1.5544,0.0,0.0,0.0,0.0,0.0,0.0,0.0,0.0,0.0,0.0,0.0,0.0,0.0,0.0,0.0,0.0,0.0,0.0,0.0,0.0,0.0,0.0,0.0,0.0,0.0,0.0,0.0,0.0,0.0,0.0,0.0,0.0,0.0,0.0,0.0,0.0,0.0,0.0,0.0,0.0,0.0,0.0,0.0,0.0,0.0,0.0,0.0,0.0,0.0,0.0,0.0,0.0,0.0,0.0,0.0,0.0,0.0,0.0,0.0,0.0,0.0,0.0,0.0,0.0,0.0,0.0,0.0,0.0,0.0,0.0,0.0,0.0,0.0,0.0,0.0,0.0,0.0,0.0,0.0,0.0,0.0,0.0,0.0,0.0,0.0,0.0,0.0,0.0,0.0,0.0,0.0,0.0,0.0,0.0,0.0,0.0,0.0,0.0,0.0,0.0,0.0,0.0,0.0,0.0,0.0,0.0,0.0,0.0,0.0,1.5321,0.0,1.7713,0.0,1.7338,1.5757,0.0,0.0,0.0,0.0,0.0,0.0,0.0,0.0,0.0,0.0,0.0,0.0,0.0,0.0,0.0,0.0,0.0,0.0,0.0,0.0,0.0,0.0,0.0,0.0,0.0,0.0,0.0,0.0,0.0,0.0,0.0,0.0,0.0,0.0,0.0,0.0,0.0,0.0,0.0,0.0,0.0,0.0,0.0,0.0,0.0,0.0,0.0,0.0,0.0,0.0,0.0,0.0,0.0,0.0,0.0,0.0,0.0,0.0,0.0,0.0,0.0,0.0,0.0,0.0,0.0,0.0,0.0,0.0,0.0,0.0,0.0,0.0,0.0,0.0,0.0,0.0,0.0,0.0,0.0,0.0,0.0,0.0,0.0,0.0,0.0,0.0,0.0,0.0,0.0,0.0,0.0,0.0,0.0,0.0,0.0,0.0,0.0,0.0,0.0,0.0,0.0,0.0,0.0,0.0,0.0,0.0,0.0,0.0,1.5427,1.8819,2.0462,2.0563,1.9559,1.8606,1.6361,0.0,0.0,0.0,0.0,0.0,0.0,0.0,0.0,0.0,0.0,0.0,0.0,0.0,0.0,0.0,0.0,0.0,0.0,0.0,0.0,0.0,0.0,0.0,0.0,0.0,0.0,0.0,0.0,0.0,0.0,0.0,0.0,0.0,0.0,0.0,0.0,0.0,0.0,0.0,0.0,0.0,0.0,0.0,0.0,0.0,0.0,0.0,0.0,0.0,0.0,0.0,0.0,0.0,0.0,0.0,0.0,0.0,0.0,0.0,0.0,0.0,0.0,0.0,0.0,0.0,0.0,0.0,0.0,0.0,0.0,0.0,0.0,0.0,0.0,0.0,0.0,0.0,0.0,0.0,0.0,0.0,0.0,0.0,0.0,0.0,0.0,0.0,0.0,0.0,0.0,0.0,0.0,0.0,0.0,0.0,0.0,0.0,0.0,0.0,0.0,0.0,0.0,0.0,0.0,0.0,0.0,0.0,0.0,0.0,1.8374,1.887,1.9481,2.0136,1.7903,1.63,0.0,0.0,0.0,0.0,0.0,0.0,0.0,0.0,0.0,0.0,0.0,0.0,0.0,0.0,0.0,0.0,0.0,0.0,0.0,0.0,0.0,0.0,0.0,0.0,0.0,0.0,0.0,0.0,0.0,0.0,0.0,0.0,0.0,0.0,0.0,0.0,0.0,0.0,0.0,0.0,0.0,0.0,0.0,0.0,0.0,0.0,0.0,0.0,0.0,0.0,0.0,0.0,0.0,0.0,0.0,0.0,0.0,0.0,0.0,0.0,0.0,0.0,0.0,0.0,0.0,0.0,0.0,0.0,0.0,0.0,0.0,0.0,0.0,0.0,0.0,0.0,0.0,0.0,0.0,0.0,0.0,0.0,0.0,0.0,0.0,0.0,0.0,0.0,0.0,0.0,0.0,0.0,0.0,0.0,0.0,0.0,0.0,0.0,0.0,0.0,0.0,0.0,0.0,0.0,0.0,0.0,0.0,0.0,0.0,2.042,2.0404,2.0751,2.157,1.9052,1.737,1.6633,0.0,0.0,0.0,0.0,0.0,0.0,0.0,0.0,0.0,0.0,0.0,0.0,0.0,0.0,0.0,0.0,0.0,0.0,0.0,0.0,0.0,0.0,0.0,0.0,0.0,0.0,0.0,0.0,0.0,0.0,0.0,0.0,0.0,0.0,0.0,0.0,0.0,0.0,0.0,0.0,0.0,0.0,0.0,0.0,0.0,0.0,0.0,0.0,0.0,0.0,0.0,0.0,0.0,0.0,0.0,0.0,0.0,0.0,0.0,0.0,0.0,0.0,0.0,0.0,0.0,0.0,0.0,0.0,0.0,0.0,0.0,0.0,0.0,0.0,0.0,0.0,0.0,0.0,0.0,0.0,0.0,0.0,0.0,0.0,0.0,0.0,0.0,0.0,0.0,0.0,0.0,0.0,0.0,0.0,0.0,0.0,0.0,0.0,0.0,0.0,0.0,0.0,0.0,0.0,0.0,0.0,0.0,0.0,2.4395,2.4542,2.419,2.3355,2.1637,1.936,0.0,0.0,0.0,0.0,0.0,0.0,0.0,0.0,0.0,0.0,0.0,0.0,0.0,0.0,0.0,0.0,0.0,0.0,0.0,0.0,0.0,0.0,0.0,0.0,0.0,0.0,0.0,0.0,0.0,0.0,0.0,0.0,0.0,0.0,0.0,0.0,0.0,0.0,0.0,0.0,0.0,0.0,0.0,0.0,0.0,0.0,0.0,0.0,0.0,0.0,0.0,0.0,0.0,0.0,0.0,0.0,0.0,0.0,0.0,0.0,0.0,0.0,0.0,0.0,0.0,0.0,0.0,0.0,0.0,0.0,0.0,0.0,0.0,0.0,0.0,0.0,0.0,0.0,0.0,0.0,0.0,0.0,0.0,0.0,0.0,0.0,0.0,0.0,0.0,0.0,0.0,0.0,0.0,0.0,0.0,0.0,0.0,0.0,0.0,0.0,0.0,0.0,0.0,0.0,0.0,0.0,0.0,0.0,0.0,2.6153,2.682,2.6449,2.4968,2.2255,2.0431,0.0,0.0,0.0,0.0,0.0,0.0,0.0,0.0,0.0,0.0,0.0,0.0,0.0,0.0,0.0,0.0,0.0,0.0,0.0,0.0,0.0,0.0,0.0,0.0,0.0,0.0,0.0,0.0,0.0,0.0,0.0,0.0,0.0,0.0,0.0,0.0,0.0,0.0,0.0,0.0,0.0,0.0,0.0,0.0,0.0,0.0,0.0,0.0,0.0,0.0,0.0,0.0,0.0,0.0,0.0,0.0,0.0,0.0,0.0,0.0,0.0,0.0,0.0,0.0,0.0,0.0,0.0,0.0,0.0,0.0,0.0,0.0,0.0,0.0,0.0,0.0,0.0,0.0,0.0,0.0,0.0,0.0,0.0,0.0,0.0,0.0,0.0,0.0,0.0,0.0,0.0,0.0,0.0,0.0,0.0,0.0,0.0,0.0,0.0,0.0,0.0,0.0,0.0,0.0,0.0,0.0,0.0,0.0,2.6176,2.7917,2.9047,2.8862,2.723,2.4373,2.237,0.0,0.0,0.0,0.0,0.0,0.0,0.0,0.0,0.0,0.0,0.0,0.0,0.0,0.0,0.0,0.0,0.0,0.0,0.0,0.0,0.0,0.0,0.0,0.0,0.0,0.0,0.0,0.0,0.0,0.0,0.0,0.0,0.0,0.0,0.0,0.0,0.0,0.0,0.0,0.0,0.0,0.0,0.0,0.0,0.0,0.0,0.0,0.0,0.0,0.0,0.0,0.0,0.0,0.0,0.0,0.0,0.0,0.0,0.0,0.0,0.0,0.0,0.0,0.0,0.0,0.0,0.0,0.0,0.0,0.0,0.0,0.0,0.0,0.0,0.0,0.0,0.0,0.0,0.0,0.0,0.0,0.0,0.0,0.0,0.0,0.0,0.0,0.0,0.0,0.0,0.0,0.0,0.0,0.0,0.0,0.0,0.0,0.0,0.0,0.0,0.0,0.0,0.0,0.0,0.0,0.0,0.0,0.0,2.7885,2.9609,3.1132,3.1154,2.9556,2.7103,2.4683,0.0,0.0,0.0,0.0,0.0,0.0,0.0,0.0,0.0,0.0,0.0,0.0,0.0,0.0,0.0,0.0,0.0,0.0,0.0,0.0,0.0,0.0,0.0,0.0,0.0,0.0,0.0,0.0,0.0,0.0,0.0,0.0,0.0,0.0,0.0,0.0,0.0,0.0,0.0,0.0,0.0,0.0,0.0,0.0,0.0,0.0,0.0,0.0,0.0,0.0,0.0,0.0,0.0,0.0,0.0,0.0,0.0,0.0,0.0,0.0,0.0,0.0,0.0,0.0,0.0,0.0,0.0,0.0,0.0,0.0,0.0,0.0,0.0,0.0,0.0,0.0,0.0,0.0,0.0,0.0,0.0,0.0,0.0,0.0,0.0,0.0,0.0,0.0,0.0,0.0,0.0,0.0,0.0,0.0,0.0,0.0,0.0,0.0,0.0,0.0,0.0,0.0,0.0,0.0,0.0,0.0,0.0,0.0,2.957,3.1244,3.2247,3.1949,3.0373,2.7968,2.5483,0.0,0.0,0.0,0.0,0.0,0.0,0.0,0.0,0.0,0.0,0.0,0.0,0.0,0.0,0.0,0.0,0.0,0.0,0.0,0.0,0.0,0.0,0.0,0.0,0.0,0.0,0.0,0.0,0.0,0.0,0.0,0.0,0.0,0.0,0.0,0.0,0.0,0.0,0.0,0.0,0.0,0.0,0.0,0.0,0.0,0.0,0.0,0.0,1.5376,0.0,0.0,0.0,0.0,0.0,0.0,0.0,0.0,0.0,0.0,0.0,0.0,0.0,0.0,0.0,0.0,0.0,0.0,0.0,0.0,0.0,0.0,0.0,0.0,0.0,0.0,0.0,0.0,0.0,0.0,0.0,0.0,0.0,0.0,0.0,0.0,0.0,0.0,0.0,0.0,0.0,0.0,0.0,0.0,0.0,0.0,0.0,0.0,0.0,0.0,0.0,0.0,0.0,0.0,0.0,0.0,0.0,0.0,0.0,3.0669,3.2321,3.3138,3.2804,3.1206,2.953,2.6925,0.0,0.0,0.0,0.0,0.0,0.0,0.0,0.0,0.0,0.0,0.0,0.0,0.0,0.0,0.0,0.0,0.0,0.0,0.0,0.0,0.0,0.0,0.0,0.0,0.0,0.0,0.0,0.0,0.0,0.0,0.0,0.0,0.0,0.0,0.0,0.0,0.0,0.0,0.0,0.0,0.0,0.0,0.0,0.0,0.0,0.0,0.0,0.0,0.0,0.0,0.0,0.0,0.0,0.0,0.0,0.0,0.0,0.0,0.0,0.0,0.0,0.0,0.0,0.0,0.0,0.0,0.0,0.0,0.0,0.0,0.0,0.0,0.0,0.0,0.0,0.0,0.0,0.0,0.0,0.0,0.0,0.0,0.0,0.0,0.0,0.0,0.0,0.0,0.0,0.0,0.0,0.0,0.0,0.0,0.0,0.0,0.0,0.0,0.0,0.0,0.0,0.0,0.0,0.0,0.0,0.0,0.0,2.9075,3.1384,3.3138,3.3844,3.3436,3.1861,3.1123,2.8474,2.3601,0.0,0.0,0.0,0.0,0.0,0.0,0.0,0.0,0.0,0.0,0.0,0.0,0.0,0.0,0.0,0.0,0.0,0.0,0.0,0.0,0.0,0.0,0.0,0.0,0.0,0.0,0.0,0.0,0.0,0.0,0.0,0.0,0.0,0.0,0.0,0.0,0.0,0.0,1.2087,1.6291,0.0,0.0,0.0,0.0,0.0,0.0,0.0,0.0,1.8021,0.0,0.0,0.0,0.0,0.0,0.0,0.0,0.0,0.0,0.0,0.0,0.0,0.0,0.0,0.0,0.0,0.0,0.0,0.0,0.0,0.0,0.0,0.0,0.0,0.0,0.0,0.0,0.0,0.0,0.0,0.0,0.0,0.0,0.0,0.0,0.0,0.0,0.0,0.0,0.0,0.0,0.0,0.0,0.0,0.0,0.0,0.0,0.0,0.0,0.0,0.0,0.0,0.0,0.0,0.0,0.0,2.8713,2.9976,3.1715,3.3956,3.4104,3.3436,3.1898,3.1675,2.9286,2.456,0.0,0.0,0.0,0.0,0.0,0.0,0.0,0.0,0.0,0.0,0.0,0.0,0.0,0.0,0.0,0.0,0.0,0.0,0.0,0.0,0.0,0.0,0.0,0.0,0.0,0.0,0.0,0.0,0.0,0.0,0.0,0.0,0.0,0.0,0.0,0.0,0.0,0.0,0.0,2.0929,2.2829,0.0,0.0,0.0,0.0,0.0,0.0,0.0,0.0,1.7478,0.0,0.0,0.0,0.0,0.0,0.0,0.0,0.0,0.0,0.0,0.0,0.0,0.0,0.0,0.0,0.0,0.0,0.0,0.0,0.0,0.0,0.0,0.0,0.0,0.0,0.0,0.0,0.0,0.0,0.0,0.0,0.0,0.0,0.0,0.0,0.0,0.0,0.0,0.0,0.0,0.0,0.0,0.0,0.0,0.0,0.0,0.0,0.0,0.0,0.0,0.0,0.0,0.0,0.0,0.0,2.8572,3.0365,3.2207,3.4141,3.4216,3.3621,3.2432,3.1196,2.8867,0.0,0.0,0.0,0.0,0.0,0.0,0.0,0.0,0.0,0.0,0.0,0.0,0.0,0.0,0.0,0.0,0.0,0.0,0.0,0.0,0.0,0.0,0.0,0.0,0.0,0.0,0.0,0.0,0.0,0.0,0.0,0.0,0.0,0.0,0.0,0.0,0.0,0.0,0.0,0.0,2.1995,2.3574,2.5027,0.0,0.0,0.0,0.0,0.0,0.0,2.0638,1.9457,0.0,0.0,0.0,0.0,0.0,0.0,0.0,0.0,0.0,0.0,0.0,0.0,0.0,0.0,0.0,0.0,0.0,0.0,0.0,0.0,0.0,0.0,0.0,0.0,0.0,0.0,0.0,0.0,0.0,0.0,0.0,0.0,0.0,0.0,0.0,0.0,0.0,0.0,0.0,0.0,0.0,0.0,0.0,0.0,0.0,0.0,0.0,0.0,0.0,0.0,0.0,0.0,0.0,0.0,0.0,2.8054,3.0559,3.2563,3.4104,3.4264,3.3953,3.3283,3.1162,2.8809,0.0,0.0,0.0,0.0,0.0,0.0,0.0,0.0,0.0,0.0,0.0,0.0,0.0,0.0,0.0,0.0,0.0,0.0,0.0,0.0,0.0,0.0,0.0,0.0,0.0,0.0,0.0,0.0,0.0,0.0,0.0,0.0,0.0,0.0,0.0,0.0,0.0,0.0,0.0,0.0,0.0,2.4698,2.6438,2.5018,0.0,0.0,0.0,0.0,2.363,2.3228,0.0,0.0,0.0,0.0,0.0,0.0,0.0,0.0,0.0,0.0,0.0,0.0,0.0,0.0,0.0,0.0,0.0,0.0,0.0,0.0,0.0,0.0,0.0,0.0,0.0,0.0,0.0,0.0,0.0,0.0,0.0,0.0,0.0,0.0,0.0,0.0,0.0,0.0,0.0,0.0,0.0,0.0,0.0,0.0,0.0,0.0,0.0,0.0,0.0,0.0,0.0,0.0,0.0,0.0,0.0,0.0,2.8066,3.0525,3.2563,3.4104,3.4427,3.4524,3.4389,3.2878,3.0522,0.0,0.0,0.0,0.0,0.0,0.0,0.0,0.0,0.0,0.0,0.0,0.0,0.0,0.0,0.0,0.0,0.0,0.0,0.0,0.0,0.0,0.0,0.0,0.0,0.0,0.0,0.0,0.0,0.0,0.0,0.0,0.0,0.0,0.0,0.0,0.0,0.0,0.0,0.0,0.0,0.0,2.8887,2.7713,2.7366,2.6918,0.0,0.0,2.7078,2.7204,2.7176,0.0,0.0,0.0,0.0,0.0,0.0,0.0,0.0,0.0,0.0,0.0,0.0,0.0,0.0,0.0,0.0,0.0,0.0,0.0,0.0,0.0,0.0,0.0,0.0,0.0,0.0,0.0,0.0,0.0,0.0,0.0,0.0,0.0,0.0,0.0,0.0,0.0,0.0,0.0,0.0,0.0,0.0,0.0,0.0,0.0,0.0,0.0,0.0,0.0,0.0,0.0,0.0,0.0,0.0,0.0,2.6432,2.8998,3.1416,3.328,3.4551,3.5145,3.5244,3.4771,3.2777,3.0377,0.0,0.0,0.0,0.0,0.0,0.0,0.0,0.0,0.0,0.0,0.0,0.0,0.0,0.0,0.0,0.0,0.0,0.0,0.0,0.0,0.0,0.0,0.0,0.0,0.0,0.0,0.0,0.0,0.0,0.0,0.0,0.0,0.0,0.0,0.0,0.0,0.0,0.0,0.0,0.0,0.0,0.0,2.9154,2.8795,0.0,0.0,0.0,2.9252,2.9279,0.0,0.0,0.0,0.0,0.0,0.0,0.0,0.0,0.0,0.0,0.0,0.0,0.0,0.0,0.0,0.0,0.0,0.0,0.0,0.0,0.0,0.0,0.0,0.0,0.0,0.0,0.0,0.0,0.0,0.0,0.0,0.0,0.0,0.0,0.0,0.0,0.0,0.0,0.0,0.0,0.0,0.0,0.0,0.0,0.0,0.0,0.0,0.0,0.0,0.0,0.0,0.0,0.0,0.0,0.0,0.0,0.0,2.9664,3.2353,3.4205,3.5192,3.5647,3.5685,3.5267,3.2899,0.0,0.0,0.0,0.0,0.0,0.0,0.0,0.0,0.0,0.0,0.0,0.0,0.0,0.0,0.0,0.0,0.0,0.0,0.0,0.0,0.0,0.0,0.0,0.0,0.0,0.0,0.0,0.0,0.0,0.0,0.0,0.0,0.0,0.0,0.0,0.0,0.0,0.0,0.0,0.0,0.0,0.0,2.9217,3.0458,3.0494,3.0698,0.0,0.0,3.1621,3.1415,3.1734,3.0629,0.0,0.0,0.0,0.0,0.0,0.0,0.0,0.0,0.0,0.0,0.0,0.0,0.0,0.0,0.0,0.0,0.0,0.0,0.0,0.0,0.0,0.0,0.0,0.0,0.0,0.0,0.0,0.0,0.0,0.0,0.0,0.0,0.0,0.0,0.0,0.0,0.0,0.0,0.0,0.0,0.0,0.0,0.0,0.0,0.0,0.0,0.0,0.0,0.0,0.0,0.0,0.0,0.0,0.0,0.0,2.9758,3.3042,3.52,3.597,3.5508,3.5611,3.631,3.4044,3.1252,0.0,0.0,0.0,0.0,0.0,0.0,0.0,0.0,0.0,0.0,0.0,0.0,0.0,0.0,0.0,0.0,0.0,0.0,0.0,0.0,0.0,0.0,0.0,0.0,0.0,0.0,0.0,0.0,0.0,0.0,0.0,0.0,0.0,0.0,0.0,0.0,0.0,0.0,0.0,0.0,0.0,3.1392,3.1507,3.284,3.416,0.0,0.0,3.4892,3.4163,3.5383,3.4494,2.8758,0.0,0.0,0.0,0.0,0.0,0.0,0.0,0.0,0.0,0.0,0.0,0.0,0.0,0.0,0.0,0.0,0.0,0.0,0.0,0.0,0.0,0.0,0.0,0.0,0.0,0.0,0.0,0.0,0.0,0.0,0.0,0.0,0.0,0.0,0.0,0.0,0.0,0.0,0.0,0.0,0.0,0.0,0.0,0.0,0.0,0.0,0.0,0.0,0.0,0.0,0.0,0.0,0.0,2.8077,2.9877,3.3293,3.5283,3.5714,3.6021,3.608,3.5864,3.4505,3.2172,0.0,0.0,0.0,0.0,0.0,0.0,0.0,0.0,0.0,0.0,0.0,0.0,0.0,0.0,0.0,0.0,0.0,0.0,0.0,0.0,0.0,0.0,0.0,0.0,0.0,0.0,0.0,0.0,1.3097,1.3627,1.2988,0.0,0.0,0.0,0.0,0.0,0.0,0.0,0.0,0.0,0.0,3.2596,3.3109,3.4661,0.0,0.0,3.6742,3.7011,3.6709,3.6376,3.4835,3.1018,2.8812,0.0,0.0,0.0,0.0,0.0,0.0,0.0,0.0,0.0,0.0,0.0,0.0,0.0,0.0,0.0,0.0,0.0,0.0,0.0,0.0,0.0,0.0,0.0,0.0,0.0,0.0,0.0,0.0,0.0,0.0,0.0,0.0,0.0,0.0,0.0,0.0,0.0,0.0,0.0,0.0,0.0,0.0,0.0,0.0,0.0,0.0,0.0,0.0,0.0,0.0,0.0,0.0,2.8234,3.0046,3.3517,3.5507,3.5867,3.624,3.6267,3.5907,3.4854,3.2837,0.0,0.0,0.0,0.0,0.0,0.0,0.0,0.0,0.0,0.0,0.0,0.0,0.0,0.0,0.0,0.0,0.0,0.0,0.0,0.0,0.0,0.0,0.0,0.0,0.0,0.0,0.0,0.0,1.5485,1.5363,1.3695,0.0,0.0,0.0,0.0,0.0,0.0,0.0,0.0,0.0,0.0,3.407,3.5199,3.6546,3.7584,3.7815,3.7977,3.8036,3.7788,3.7074,3.5468,3.2415,0.0,0.0,0.0,0.0,0.0,0.0,0.0,0.0,0.0,0.0,0.0,0.0,0.0,0.0,0.0,0.0,0.0,0.0,0.0,0.0,0.0,0.0,0.0,0.0,0.0,0.0,0.0,0.0,0.0,0.0,0.0,0.0,0.0,0.0,0.0,0.0,0.0,0.0,0.0,0.0,0.0,0.0,0.0,0.0,0.0,0.0,0.0,0.0,0.0,0.0,0.0,0.0,0.0,2.8531,3.0213,3.3709,3.5905,3.6664,3.5945,3.5984,3.674,3.5225,3.3114,3.055,0.0,0.0,0.0,0.0,0.0,0.0,0.0,0.0,0.0,0.0,0.0,0.0,0.0,0.0,0.0,0.0,0.0,0.0,0.0,0.0,0.0,0.0,0.0,0.0,0.0,0.0,1.6253,1.5677,1.4595,0.0,0.0,0.0,0.0,0.0,0.0,0.0,0.0,0.0,0.0,3.2763,3.6031,3.7661,3.8661,3.9523,4.0254,3.9135,3.7893,3.725,3.7778,3.6896,0.0,0.0,0.0,0.0,0.0,0.0,0.0,0.0,0.0,0.0,0.0,0.0,0.0,0.0,0.0,0.0,0.0,0.0,0.0,0.0,0.0,0.0,0.0,0.0,0.0,0.0,0.0,2.2842,2.1556,0.0,0.0,0.0,0.0,0.0,0.0,0.0,0.0,0.0,0.0,0.0,2.8783,2.9403,0.0,0.0,0.0,0.0,0.0,0.0,0.0,0.0,0.0,0.0,0.0,0.0,2.9385,3.1057,3.3953,3.5636,3.5907,3.5701,3.57,3.6006,3.4963,3.2645,2.8975,0.0,0.0,0.0,0.0,0.0,0.0,0.0,0.0,0.0,0.0,0.0,0.0,0.0,0.0,0.0,0.0,0.0,0.0,0.0,0.0,0.0,0.0,0.0,0.0,0.0,1.6965,0.0,0.0,0.0,0.0,0.0,0.0,0.0,0.0,0.0,0.0,0.0,2.9006,3.2083,3.5199,3.7588,3.8762,4.0165,4.1016,0.0,0.0,0.0,0.0,0.0,0.0,0.0,0.0,0.0,0.0,0.0,0.0,0.0,0.0,3.4059,2.6922,2.5104,2.5128,2.6529,0.0,0.0,0.0,0.0,0.0,0.0,0.0,0.0,0.0,0.0,0.0,0.0,0.0,0.0,0.0,0.0,2.5196,0.0,0.0,0.0,0.0,0.0,0.0,0.0,0.0,3.0561,3.1941,3.2393,3.3001,3.2948,0.0,3.1446,2.8907,0.0,0.0,0.0,0.0,0.0,0.0,0.0,0.0,3.0441,3.2377,3.471,3.6086,3.6382,3.6189,3.6072,3.6018,3.4986,3.2937,2.9892,2.8655,2.6876,0.0,0.0,0.0,0.0,0.0,0.0,0.0,0.0,0.0,0.0,0.0,0.0,0.0,0.0,0.0,0.0,0.0,0.0,0.0,0.0,0.0,0.0,0.0,1.8581,0.0,0.0,0.0,0.0,0.0,0.0,0.0,0.0,0.0,2.6995,2.9313,3.2122,3.5507,3.7396,3.9019,4.0539,0.0,0.0,0.0,0.0,0.0,0.0,0.0,3.9156,4.0483,3.9624,3.9,3.978,4.1108,4.1498,3.978,0.0,0.0,3.2413,3.0486,3.0511,3.187,3.3251,3.4367,3.4951,3.6573,3.7704,0.0,0.0,0.0,0.0,0.0,0.0,0.0,0.0,2.8396,2.8741,0.0,2.8379,0.0,0.0,0.0,0.0,0.0,0.0,0.0,0.0,3.5188,3.6858,3.6845,3.6845,3.6818,3.6699,3.5878,3.4224,3.1661,2.7505,0.0,0.0,0.0,0.0,0.0,0.0,3.1751,3.4159,3.5932,3.7244,3.8028,3.7334,3.6945,3.6826,3.5317,3.403,3.3109,3.1545,2.9535,2.693,2.4422,0.0,0.0,0.0,0.0,0.0,0.0,0.0,0.0,0.0,0.0,0.0,0.0,0.0,0.0,0.0,0.0,0.0,0.0,0.0,0.0,1.935,0.0,0.0,0.0,0.0,0.0,0.0,0.0,0.0,0.0,0.0,3.0748,3.2865,3.5597,3.8892,0.0,0.0,0.0,0.0,4.2558,4.3384,4.2946,4.2481,4.2442,4.3114,4.3372,4.2708,0.0,0.0,4.306,4.4699,4.5246,4.2006,4.3489,4.4309,4.1693,3.9529,3.8727,3.9496,3.9072,3.9186,4.0696,4.1707,4.2555,3.646,0.0,0.0,0.0,0.0,3.348,3.4674,3.691,3.5701,3.461,3.3557,3.2119,0.0,0.0,0.0,0.0,0.0,0.0,3.3948,3.5379,3.6987,3.8067,3.8645,3.8645,3.8323,3.7704,3.7473,3.6664,3.5328,3.4007,3.079,2.5904,0.0,0.0,0.0,0.0,3.3788,3.5147,3.6843,3.786,3.817,3.7964,3.7537,3.6914,3.5869,3.4919,3.4047,3.3633,3.2202,2.9603,2.77,0.0,0.0,0.0,0.0,0.0,0.0,0.0,0.0,0.0,0.0,0.0,0.0,0.0,0.0,0.0,0.0,0.0,0.0,0.0,2.0196,2.1427,2.1812,0.0,0.0,0.0,0.0,0.0,0.0,0.0,0.0,0.0,3.6482,3.746,3.8685,0.0,0.0,4.2742,4.409,4.4656,4.5085,4.544,0.0,0.0,0.0,4.4341,4.4231,4.5831,4.7237,4.7822,4.7159,4.7627,4.7783,4.669,4.7198,4.7432,4.6651,4.4188,4.2659,4.3279,4.3743,4.4319,4.545,4.6313,4.6878,4.0939,3.7604,3.6485,3.6883,3.8194,3.7731,3.8722,4.0615,3.9612,3.8762,3.8029,3.6639,3.4981,3.3133,3.195,0.0,0.0,0.0,3.7255,3.8904,3.9419,4.01,4.0886,4.0886,4.064,4.0097,3.9788,3.9157,3.8306,3.7949,3.5366,3.0816,0.0,0.0,3.2186,3.4224,3.5839,3.7031,3.8078,3.8801,3.9174,3.8878,3.8129,3.6964,3.6411,3.5781,3.4958,3.4638,3.379,3.2233,3.028,2.7544,0.0,0.0,0.0,0.0,0.0,0.0,0.0,0.0,0.0,0.0,0.0,1.5508,0.0,0.0,0.0,0.0,1.8573,2.1378,2.3852,2.4277,0.0,0.0,0.0,0.0,0.0,0.0,0.0,3.2696,3.5869,3.8756,4.1186,4.2131,4.2809,4.3401,4.4023,4.4906,4.6113,0.0,4.6821,4.7233,4.7744,4.8017,4.7822,4.6924,4.6885,4.8798,4.9501,4.9813,4.9891,4.9859,4.982,4.9817,4.9852,4.9813,4.9813,4.8096,4.6612,4.6534,4.6924,4.7549,4.8447,4.8933,4.9352,4.4432,4.3593,4.2035,4.1274,4.1081,4.1081,4.1119,4.1197,4.1119,4.1506,4.2125,4.1274,4.0397,3.9441,3.797,0.0,0.0,3.9354,4.0604,4.2202,4.224,4.2613,4.3322,4.3283,4.3255,4.3149,4.2377,4.16,4.0808,4.0048,3.8901,3.7333,3.6511,3.6344,3.6766,3.6934,3.7805,3.9354,3.9444,3.9908,4.0655,3.9932,3.8694,3.708,3.6925,3.6538,3.5742,3.499,3.462,3.453,3.2244,2.9757,2.7186,0.0,0.0,0.0,0.0,0.0,0.0,0.0,0.0,0.0,0.0,0.0,0.0,0.0,0.0,0.0,2.3182,0.0,2.79,2.7582,0.0,0.0,0.0,2.8301,3.0008,3.2992,3.556,3.7311,0.0,0.0,0.0,0.0,4.7299,4.6445,4.631,4.6937,4.856,4.822,4.8096,4.8915,4.9032,4.9306,4.993,4.9973,5.0168,5.0988,5.1379,5.1301,5.1297,5.1307,5.1352,5.1268,5.1379,5.134,5.1379,5.1105,5.0906,4.9228,4.8993,4.9267,4.9969,5.0161,5.0395,4.7386,4.7139,4.6767,4.549,4.3711,4.3711,4.402,4.4562,4.3982,4.3788,4.3904,4.2357,4.1235,4.0462,4.0707,4.09,4.1145,4.1983,4.2949,4.3943,4.3954,4.407,4.4277,4.4277,4.3877,4.3231,4.2999,4.2777,4.2579,4.2391,4.2085,4.1674,4.148,3.9857,3.6949,3.813,3.8968,3.938,4.005,4.05,4.0732,3.9971,3.8953,3.7936,3.7301,3.6577,3.5753,3.5616,3.5263,3.4609,3.3431,3.1594,2.9023,2.5659,0.0,0.0,0.0,0.0,0.0,0.0,0.0,0.0,0.0,2.1833,1.6675,0.0,2.4296,0.0,2.6357,2.8412,2.902,3.0095,0.0,0.0,3.34,3.4601,3.6915,3.7877,3.9299,4.1597,4.3342,4.5006,4.6551,4.828,4.9315,4.9151,4.8543,4.8538,4.951,4.9586,4.9813,5.0555,5.0711,5.0867,5.0984,5.1115,5.1121,5.1355,5.1394,5.1391,5.1379,5.1379,5.1389,5.1402,5.14,5.1394,5.1394,5.1385,5.1297,5.0867,5.0789,5.0828,5.1063,5.1063,5.1141,4.8392,4.8392,4.8392,4.7579,4.6303,4.6303,4.6573,4.6922,4.6496,4.6303,4.6225,4.4885,4.3802,4.3053,4.349,4.3684,4.3711,4.42,4.4664,4.5142,4.5142,4.5142,4.5142,4.5142,4.4858,4.4341,4.4341,4.4172,4.3834,4.3824,4.3606,4.326,4.326,4.2072,3.9822,4.0604,4.1132,4.1132,4.1209,4.1132,4.081,4.0307,3.9495,3.8245,3.7793,3.7007,3.5788,3.5454,3.5117,3.4648,3.3516,3.2226,3.0742,2.7812,2.5308,0.0,0.0,0.0,0.0,0.0,0.0,0.0,0.0,0.0,0.0,0.0,2.744,0.0,0.0,0.0,3.3323,3.4345,3.5615,3.7258,3.7882,3.9009,4.1184,4.1783,4.2846,4.5016,4.6359,4.7483,4.8488,4.9775,5.0639,5.0668,5.0282,5.0117,5.0522,5.0659,5.0867,5.1336,5.1375,5.1375,5.1375,5.1382,5.1394,5.1402,5.1404,5.1402,5.1398,5.1396,5.1398,5.14,5.1402,5.1404,5.1403,5.1391,5.1375,5.1375,5.1382,5.1385,5.1375,5.1375,5.1375,4.9049,4.9034,4.9049,4.8972,4.8894,4.8894,4.8701,4.8392,4.8392,4.8392,4.8353,4.7594,4.6858,4.6148,4.6162,4.6123,4.6148,4.6162,4.6162,4.6123,4.6109,4.6148,4.6148,4.6148,4.6071,4.5955,4.5955,4.5568,4.478,4.478,4.438,4.3631,4.3631,4.3631,4.3593,4.3569,4.344,4.3286,4.2537,4.1828,4.1119,4.1003,4.0191,3.8632,3.84,3.7575,3.6046,3.5194,3.4805,3.4805,3.3359,3.2539,3.2461,3.0039,2.8242,0.0,2.582,0.0,0.0,0.0,0.0,0.0,0.0,0.0,0.0,2.9424,3.1158,3.2396,3.3662,3.558,3.8415,3.9005,3.9841,4.1246,4.1754,4.2535,4.4021,4.4958,4.6127,4.7757,4.9196,5.0133,5.0246,5.0949,5.1379,5.134,5.1301,5.1261,5.1375,5.1336,5.134,5.1379,5.1375,5.1375,5.1375,5.1382,5.1394,5.1406,5.1406,5.1406,5.1406,5.1406,5.1405,5.1394,5.1402,5.1406,5.1406,5.1398,5.1382,5.1375,5.1389,5.1394,5.1389,5.1382,5.1379,5.2531,5.2514,5.2531,5.2105,5.1486,5.1486,5.0287,4.8392,4.8392,4.8392,4.8392,4.8237,4.8043,4.7889,4.7918,4.7918,4.7903,4.7932,4.7918,4.7903,4.7889,4.7889,4.7927,4.7889,4.754,4.6883,4.6844,4.6419,4.5568,4.5568,4.549,4.5336,4.5336,4.5336,0.0,0.0,0.0,0.0,4.3117,4.2976,4.2821,4.2125,4.1351,4.0384,3.9069,0.0,3.6966,3.6183,3.5742,3.5703,3.4766,0.0,0.0,0.0,0.0,0.0,0.0,0.0,0.0,0.0,0.0,0.0,3.3398,3.2764,3.0533,3.4276,3.6417,3.5379,3.7906,3.9687,3.9685,4.1522,4.2851,4.3242,4.5078,4.6523,4.6875,4.7617,4.8554,4.9569,4.9957,5.0381,5.1006,5.1316,5.1394,5.1396,5.1396,5.1391,5.1375,5.1385,5.1394,5.1394,5.1385,5.1375,5.1375,5.1396,5.1406,5.1406,5.1406,5.1406,5.1406,5.1406,5.1406,5.1406,5.1406,5.1406,5.1406,5.1406,5.148,5.1421,5.1428,5.14,5.1404,5.14,5.1394,5.3498,0.0,5.3498,5.3227,0.0,5.284,5.2105,5.0867,5.0016,4.9436,4.9049,4.9034,4.8817,4.8406,4.8392,4.8392,4.8392,4.8392,4.8392,4.8392,4.8415,4.8415,4.8392,4.8392,4.8159,4.7734,4.7734,4.7516,4.7105,4.7066,4.7105,4.7105,4.7105,4.6872,4.6433,4.6046,4.5167,4.3954,4.3968,4.3736,4.3324,4.2899,4.2138,4.0938,0.0,0.0,0.0,0.0,0.0,0.0,0.0,0.0,0.0,0.0,0.0,3.4023,3.3633,3.3594,3.4062,3.5273,3.6367,3.7226,3.8828,3.8554,3.5572,3.8162,3.984,3.9809,4.1439,4.2773,4.3633,4.4883,4.5781,4.6289,4.7461,4.8398,4.8828,4.9258,4.9844,5.0625,5.0781,5.0935,5.1326,5.1404,5.1404,5.1404,5.1402,5.1394,5.1379,5.1382,5.1391,5.1403,5.1402,5.1398,5.1398,5.1406,5.1406,5.1406,5.1406,5.1406,5.1406,5.1406,5.1406,5.1406,5.1406,5.1484,5.1953,5.2031,5.2148,5.2574,5.2691,5.2694,5.2617,5.1992,5.1404,5.3962,5.3962,5.3923,5.3846,5.373,5.373,5.3652,5.3382,0.0,0.0,0.0,5.0387,4.9962,4.9296,4.9135,4.9057,4.9049,4.8903,4.8864,4.8841,4.8825,4.8825,4.8856,4.8856,4.874,4.8624,4.8624,4.8561,4.8396,4.8396,4.8396,4.8396,4.8396,4.8034,4.7337,4.6626,4.5955,4.5336,4.4974,4.4471,4.3788,4.3686,4.2989,4.1622,4.1403,4.0649,3.9237,3.8408,3.7656,3.6953,3.6914,3.6914,3.6914,3.6914,3.7578,3.8945,3.9062,3.9219,3.9492,4.082,4.1523,4.1289,4.3203,4.332,4.0781,4.1641,4.2891,4.4297,4.4531,4.5508,4.7617,4.7969,4.832,4.9062,4.9258,4.9648,5.0273,5.0391,5.0664,5.125,5.1367,5.1406,5.1406,5.1406,5.1406,5.1406,5.1404,5.1476,5.1584,5.1506,5.1396,5.1406,5.1562,5.168,5.168,5.1875,5.1836,5.1992,5.1953,5.1836,5.1836,5.1797,5.1758,5.1992,5.1914,5.2305,5.2812,5.293,5.3164,5.3867,5.3984,5.3984,5.3867,5.2891,5.1992,5.5625,5.5625,5.5664,5.5277,5.4619,5.4619,5.4194,5.3498,5.3227,5.3072,5.2995,5.2956,5.2879,5.274,5.2005,5.1657,5.1618,5.0906,5.0542,0.0,5.0542,5.0542,5.0558,5.0558,5.0171,4.9552,4.9513,4.9126,4.8469,4.8406,4.8392,4.8439,4.8385,4.8338,4.8241,4.8164,4.8048,4.7932,4.6433,4.5645,4.5606,4.4924,4.4446,4.4316,4.2925,4.2071,4.1867,4.1094,4.0586,4.0469,4.0469,4.0469,4.0469,4.0469,4.0586,4.082,4.0859,4.1484,4.2851,4.3242,4.4258,4.6289,4.6836,4.5937,4.3516,4.5351,4.6797,4.707,4.7617,4.8281,4.875,4.9375,4.9844,5.0039,5.0625,5.1094,5.1172,5.1211,5.125,5.1367,5.1406,5.1406,5.1406,5.1445,5.1484,5.1406,5.1641,5.1719,5.2266,5.1874,5.1445,5.1484,5.207,5.2461,5.2578,5.3164,5.3398,5.3633,5.3516,5.3437,5.3398,5.3164,5.3047,5.3476,5.3828,5.4101,5.3945,5.3828,5.3945,5.4141,5.4219,5.4141,5.418,5.3867,5.3633,5.6012,5.6012,5.6012,5.578,5.5432,5.547,5.5238,5.489,5.4851,5.4349,5.3536,5.3498,5.3498,5.3475,5.3088,5.2895,5.2872,5.2469,5.2314,5.2298,5.2298,5.2298,5.2337,5.2298,5.1873,5.1099,5.1061,5.0596,4.9823,4.9784,4.9769,4.9714,4.9366,4.9135,4.9126,4.874,4.8561,4.8526,4.7738,4.7337,4.7376,4.708,4.6718,4.6317,4.5529,4.4961,4.4531,4.4141,4.375,4.3281,4.3711,4.375,4.3281,4.3711,4.3945,4.3984,4.4414,4.5,4.5742,4.625,4.7031,4.8203,4.875,4.8555,4.7344,4.7851,4.8516,4.8945,4.9375,4.9766,5.0195,5.0625,5.0859,5.0859,5.1211,5.1406,5.1406,5.1406,5.1406,5.1406,5.1406,5.1406,5.1406,5.1797,5.2109,5.2148,5.2461,5.2969,5.3359,5.3086,5.2812,5.2851,5.3164,5.3359,5.3437,5.3711,5.3984,5.3984,5.3984,5.3984,5.4023,5.3984,5.4101,5.4023,5.4492,5.4805,5.4687,5.4726,5.4883,5.5351,5.539,5.539,5.539,5.539,5.5078,5.6012,5.6012,5.6012,5.6012,5.6012,5.6012,5.6012,5.6012,5.5973,5.5277,5.4155,5.4078,5.4078,5.4039,5.3884,5.3768,5.3762,5.3591,5.3514,5.3498,5.3481,5.3498,5.3498,5.3498,5.3149,5.2531,5.2492,5.2144,5.1525,5.1293,5.1138,5.0945,5.0387,5.01,5.0118,4.9519,4.9185,4.9232,4.9243,4.9043,4.8643,4.8759,4.8464,4.7893,4.7858,4.7578,4.6914,4.6914,4.6562,4.5976,4.6523,4.6562,4.5976,4.6523,4.6875,4.6953,4.7539,4.7969,4.8203,4.8984,4.9453,4.9453,5.0078,5.0469,5.043,4.9883,4.9726,5.0351,5.0469,5.0703,5.1172,5.1367,5.1406,5.1406,5.1406,5.1406,5.1406,5.1562,5.168,5.168,5.1836,5.2031,5.2109,5.2578,5.2969,5.3086,5.3594,5.4023,5.4219,5.4297,5.4336,5.4492,5.4453,5.4297,5.4297,5.4531,5.4648,5.4609,5.4648,5.4765,5.4805,5.5039,5.5117,5.4844,5.5039,5.539,5.5547,5.5586,5.582,5.6289,5.6406,5.6484,5.6445,5.6445,5.6211,5.6012,5.6012,5.6012,5.6012,5.6012,5.6012,5.6012,5.6012,5.6012,5.5935,5.5702,5.578,5.5741,5.5664,5.4989,5.4718,5.4641,5.3851,5.3563,5.3563,5.3486,5.3503,5.3575,5.3575,5.3459,5.3382,5.3382,5.3359,5.3143,5.25,5.1866,5.1254,5.1099,5.1092,5.1066,5.1081,5.1042,5.1055,5.113,5.0366,4.8877,4.8798,4.8769,4.8785,4.8789,4.875,4.8672,4.8672,4.8633,4.8555,4.8594,4.8633,4.8555,4.8633,4.8672,4.8672,4.875,4.9101,4.9883,5.0703,5.1133,5.1172,5.1211,5.1328,5.1328,5.125,5.1172,5.1328,5.1328,5.1367,5.1406,5.1484,5.1562,5.1641,5.1562,5.1406,5.1601,5.2109,5.2578,5.2578,5.3164,5.375,5.3594,5.375,5.3867,5.4023,5.418,5.4531,5.5039,5.5195,5.543,5.5898,5.5703,5.5234,5.5234,5.5859,5.6055,5.6211,5.6289,5.6172,5.6094,5.6172,5.6367,5.5937,5.6211,5.6289,5.6367,5.6484,5.6445,5.6523,5.6601,5.6601,5.6601,5.6601,5.6406,5.6902,5.6089,5.6553,5.6437,5.6051,5.6089,5.6128,5.6128,5.6167,5.6167,5.6167,5.6167,5.6128,5.5973,5.5724,5.5647,5.5608,5.526,5.5105,5.5105,5.5105,5.5105,5.5084,5.5122,5.489,5.4409,5.437,5.4133,5.3722,5.3341,5.3007,5.2766,5.2766,5.2815,5.2812,5.2854,5.2893,5.2891,5.2422,5.2062,5.1781,5.0868,5.036,5.0391,5.0391,5.0391,5.0391,5.0391,5.0391,5.0391,5.0391,5.0391,5.0391,5.0351,5.0391,5.0391,5.0391,5.0508,5.0898,5.1211,5.1601,5.2109,5.2187,5.2383,5.2891,5.293,5.293,5.2891,5.2461,5.2344,5.2812,5.293,5.293,5.293,5.293,5.293,5.293,5.3242,5.3476,5.3516,5.3789,5.4023,5.4062,5.4453,5.4961,5.5351,5.5508,5.5664,5.6015,5.6055,5.6211,5.6484,5.6289,5.6094,5.6094,5.6328,5.6601,5.6601,5.6601,5.6601,5.664,5.6601,5.6601,5.6601,5.668,5.668,5.6562,5.6601,5.6601,5.668,5.664,5.6601,5.6601,5.6601,5.6601,5.7886,5.6902,5.7461,5.7383,5.6803,5.688,5.6814,5.6582,5.6621,5.6543,5.6311,5.6311,5.6211,5.6089,5.6167,5.6211,5.6214,5.6226,5.6223,5.6222,5.6244,5.6217,5.6218,5.6272,5.6001,5.5443,5.538,5.4948,5.428,5.4206,5.4101,5.3906,5.3906,5.3945,5.3945,5.3984,5.3984,5.3945,5.3359,5.3359,5.3711,5.2773,5.2031,5.1758,5.1523,5.1406,5.1406,5.1406,5.1406,5.1406,5.1406,5.1406,5.1406,5.1406,5.1406,5.1445,5.1641,5.1758,5.1758,5.1992,5.2383,5.2969,5.3047,5.332,5.3828,5.3984,5.4101,5.4297,5.3789,5.3672,5.3867,5.3984,5.3984,5.3984,5.3984,5.3984,5.3945,5.4141,5.4336,5.4375,5.4687,5.4687,5.4805,5.5273,5.5898,5.6367,5.6523,5.6758,5.6914,5.6953,5.7031,5.7265,5.7344,5.7109,5.6758,5.6601,5.664,5.6836,5.6875,5.6719,5.6797,5.6836,5.6601,5.664,5.6836,5.707,5.7226,5.7148,5.7305,5.7305,5.7305,5.7305,5.7539,5.7226,5.7031,5.86,5.86,5.8734,5.8712,5.8734,5.8695,5.827,5.7546,5.7546,5.7117,5.6494,5.6407,5.6368,5.6416,5.6476,5.6325,5.6319,5.6289,5.6315,5.6304,5.6295,5.6315,5.629,5.6299,5.626,5.6143,5.6143,5.5808,5.518,5.5195,5.4805,5.4062,5.4141,5.4062,5.4141,5.418,5.4062,5.418,5.4023,5.4023,5.4023,5.3945,5.3398,5.2734,5.1875,5.1523,5.1484,5.1445,5.1445,5.1445,5.1523,5.1484,5.1445,5.1484,5.1523,5.1562,5.2187,5.2656,5.2734,5.332,5.3828,5.3945,5.3945,5.3984,5.4219,5.4258,5.457,5.5195,5.5273,5.4961,5.4453,5.4414,5.4258,5.4219,5.4101,5.4141,5.4101,5.4961,5.5195,5.5351,5.5898,5.6367,5.6445,5.6523,5.664,5.6797,5.6719,5.6992,5.7656,5.7851,5.8125,5.8633,5.8789,5.8515,5.707,5.7031,5.7265,5.75,5.7461,5.7031,5.7187,5.7265,5.6953,5.6914,5.7617,5.8008,5.8047,5.8281,5.8672,5.875,5.8672,5.8711,5.8437,5.8164,5.7969,6.0073,5.9606,5.9114,5.8904,5.8919,5.8948,5.8761,5.8506,5.8565,5.846,5.8176,5.8155,5.8153,5.8136,5.8175,5.7515,5.6484,5.6445,5.6434,5.6413,5.6413,5.6416,5.6434,5.6478,5.6507,5.6507,5.6507,5.6376,5.6152,5.6126,5.5976,5.5742,5.5664,5.5664,5.5664,5.5664,5.5664,5.5625,5.5156,5.5117,5.543,5.457,5.4101,5.4297,5.3516,5.3086,5.3047,5.3047,5.3086,5.3047,5.3047,5.3047,5.3086,5.3047,5.3047,5.3086,5.3359,5.3516,5.3555,5.3828,5.4258,5.4765,5.4844,5.5156,5.5547,5.5703,5.6015,5.6719,5.6953,5.6953,5.7109,5.6367,5.5664,5.5664,5.5664,5.5664,5.582,5.6406,5.6758,5.6406,5.6914,5.7617,5.8047,5.8242,5.8242,5.8242,5.8242,5.8398,5.8594,5.875,5.8906,5.9101,5.918,5.8984,5.8515,5.8281,5.8398,5.8515,5.8515,5.8437,5.8476,5.8476,5.8242,5.8086,5.8672,5.8984,5.9023,5.9062,5.9531,5.9453,5.9414,5.957,5.918,5.8984,5.8828,6.1106,6.0621,6.0046,5.9787,5.9814,5.9864,5.9721,5.9482,5.9531,5.9453,5.9258,5.9187,5.9225,5.9188,5.9215,5.8601,5.7383,5.7109,5.6797,5.6562,5.6523,5.6528,5.6524,5.6575,5.6601,5.6601,5.6601,5.6601,5.6601,5.6601,5.6601,5.6601,5.6601,5.6601,5.6601,5.6601,5.6601,5.6484,5.6015,5.6015,5.6367,5.5469,5.5078,5.5547,5.5117,5.4531,5.4062,5.3984,5.3984,5.3984,5.3984,5.3984,5.3984,5.3984,5.3984,5.4023,5.4258,5.4414,5.4531,5.4922,5.5547,5.6094,5.6445,5.6836,5.7383,5.7422,5.7734,5.8164,5.832,5.8594,5.8828,5.8125,5.7461,5.7461,5.7422,5.7422,5.7461,5.7969,5.7969,5.7695,5.7969,5.8555,5.9062,5.914,5.914,5.9219,5.9219,5.9258,5.9531,5.9609,5.9765,5.9961,6.0117,6.0156,6.0,5.9961,5.9609,5.9609,5.9219,5.9336,5.9531,5.9531,5.9453,5.9414,5.957,5.9883,6.0,5.9961,5.9961,5.9922,6.0234,6.0508,6.0156,5.9844,5.9687,6.1584,6.1523,6.164,6.1523,6.1445,6.1445,6.1133,6.0469,6.043,6.0078,5.957,5.9375,5.9492,5.9375,5.9531,5.9258,5.8945,5.832,5.7617,5.6914,5.6758,5.668,5.6719,5.664,5.6601,5.6601,5.6601,5.6601,5.6601,5.6601,5.6601,5.6601,5.6601,5.6601,5.6601,5.6601,5.6601,5.6562,5.6484,5.6523,5.6601,5.6445,5.6406,5.6523,5.6445,5.5703,5.4219,5.4141,5.4219,5.418,5.418,5.4062,5.4219,5.4219,5.4141,5.4336,5.4922,5.5312,5.5547,5.6836,5.7617,5.7851,5.8555,5.8828,5.8828,5.8945,5.9023,5.914,5.918,5.9258,5.9375,5.9297,5.9101,5.914,5.8906,5.8867,5.9023,5.914,5.9219,5.918,5.9258,5.9219,5.9258,5.9492,5.957,5.957,5.9531,5.9726,6.0312,6.043,6.0781,6.1289,6.1289,6.1094,6.1367,6.1601,6.1094,6.0586,6.0,5.9765,6.0234,6.0351,6.0195,6.0156,6.0586,6.0898,6.0937,6.0937,6.1055,6.1094,6.1367,6.1289,6.1015,6.0703,6.0547,6.1658,6.168,6.168,6.1719,6.1719,6.1719,6.1523,6.1328,6.1289,6.1172,6.0937,6.0898,6.0898,6.0898,6.0937,6.0586,6.0039,5.9687,5.918,5.8398,5.7773,5.75,5.7383,5.6914,5.6601,5.6601,5.6601,5.664,5.664,5.664,5.6601,5.6601,5.664,5.6601,5.668,5.6601,5.6601,5.6601,5.6601,5.6601,5.6601,5.6601,5.664,5.6601,5.6601,5.6289,5.582,5.5781,5.5781,5.5742,5.5781,5.5781,5.5781,5.5781,5.5781,5.5898,5.6601,5.707,5.7187,5.8086,5.8789,5.8828,5.9101,5.918,5.9219,5.9258,5.9492,5.9922,6.0039,6.0234,6.0781,6.0937,6.0469,5.9336,5.9219,5.9297,5.9375,5.9297,5.9765,6.0625,6.039,6.0312,6.0742,6.0859,6.0781,6.0781,6.082,6.0976,6.1172,6.1211,6.1328,6.168,6.1719,6.1719,6.1719,6.1719,6.1445,6.1172,6.0742,6.043,6.082,6.1015,6.0859,6.0898,6.1406,6.1601,6.168,6.1719,6.1719,6.1719,6.1562,6.1562,6.164,6.1484,6.1172,6.1719,6.1719,6.1719,6.1719,6.1719,6.1719,6.1719,6.1719,6.1719,6.1719,6.168,6.168,6.1719,6.1719,6.1719,6.1406,6.0898,6.0898,6.0625,5.9961,5.8867,5.8398,5.832,5.7851,5.7578,5.7578,5.7578,5.7578,5.7578,5.7578,5.7578,5.7578,5.7578,5.7617,5.7578,5.7578,5.7578,5.7539,5.7578,5.7578,5.7578,5.7578,5.7578,5.7578,5.7578,5.7578,5.7578,5.7578,5.7265,5.6758,5.6601,5.6758,5.6992,5.707,5.7226,5.7617,5.8008,5.8359,5.8476,5.914,5.9648,5.9687,5.9922,6.0117,6.0117,6.0117,6.043,6.0781,6.0898,6.1133,6.1562,6.2031,6.1601,6.0781,6.039,6.0156,6.0117,6.0117,6.0508,6.1289,6.1172,6.125,6.1523,6.1719,6.1719,6.1719,6.1719,6.1719,6.1719,6.168,6.1758,6.1758,6.1719,6.1719,6.1719,6.1719,6.1719,6.164,6.1523,6.1328,6.1445,6.1484,6.1367,6.1367,6.164,6.164,6.1719,6.1719,6.1719,6.1719,6.1719,6.1719,6.168,6.168,6.1484,6.1719,6.1719,6.1719,6.1719,6.1719,6.1719,6.1719,6.1719,6.1719,6.1719,6.1719,6.1719,6.1719,6.1719,6.1719,6.164,6.168,6.1601,6.1562,6.1133,6.0156,5.9375,5.9062,5.8945,5.8867,5.8945,5.9023,5.9062,5.8906,5.8906,5.918,5.8984,5.8945,5.914,5.8945,5.914,5.8984,5.8945,5.9023,5.9023,5.9023,5.9062,5.9062,5.9023,5.9023,5.8984,5.8945,5.8906,5.832,5.7031,5.6992,5.7305,5.7812,5.7969,5.832,5.8945,5.918,5.9258,5.9414,6.0039,6.0547,6.0742,6.1289,6.1797,6.1836,6.1875,6.1875,6.1992,6.1992,6.1953,6.2187,6.2617,6.293,6.293,6.2265,6.1914,6.1836,6.1836,6.2031,6.1992,6.1875,6.1914,6.207,6.207,6.207,6.207,6.2109,6.2187,6.2187,6.2305,6.1992,6.207,6.2344,6.2422,6.2656,6.2656,6.2656,6.2695,6.2461,6.2187,6.1875,6.1758,6.1719,6.1719,6.1836,6.1797,6.1719,6.1719,6.1719,6.1719,6.1719,6.1719,6.1719,6.1719,6.1797,6.1719,6.1719,6.1719,6.1719,6.1719,6.1719,6.1719,6.1719,6.1719,6.1719,6.1719,6.1719,6.1719,6.1719,6.1719,6.1719,6.1758,6.1758,6.1719,6.164,6.1328,6.0273,5.9414,5.9219,5.9258,5.9297,5.9375,5.9219,5.9219,5.9375,5.9336,5.9219,5.9414,5.9297,5.9219,5.9297,5.9219,5.9219,5.9219,5.9258,5.9258,5.9258,5.9219,5.9219,5.9258,5.9258,5.9219,5.9219,5.9062,5.8594,5.8515,5.8594,5.8828,5.8867,5.9023,5.9414,5.9844,6.0117,6.0273,6.0937,6.164,6.2265,6.25,6.293,6.3594,6.3594,6.3594,6.3633,6.3633,6.3555,6.3633,6.3789,6.3945,6.3945,6.375,6.3555,6.3515,6.3633,6.3633,6.3633,6.3555,6.3476,6.3437,6.3437,6.3476,6.3476,6.3437,6.3437,6.3281,6.332,6.3164,6.3476,6.3711,6.3672,6.3711,6.3711,6.3711,6.3789,6.3515,6.3008,6.25,6.1914,6.1797,6.1719,6.2148,6.2265,6.1953,6.1758,6.1719,6.2109,6.1992,6.2109,6.1875,6.1797,6.1914,6.1719,6.1719,6.1719,6.1719,6.1719,6.1719,6.1719,6.1719,6.1719,6.1719,6.1719,6.1719,6.1719,6.1719,6.1719,6.1914,6.2226,6.2265,6.2461,6.2812,6.2812,6.1875,6.0664,6.0273,6.0234,6.0234,6.0273,6.0273,6.039,6.0586,6.0586,6.0469,6.0625,6.0625,6.0312,6.0234,6.0234,6.0273,6.0234,6.0234,6.0234,6.0234,6.0273,6.0273,6.0234,6.0234,6.0273,6.0273,6.0,5.9414,5.9219,5.9336,5.9687,5.9726,6.0039,6.0664,6.125,6.164,6.2031,6.2539,6.2969,6.3437,6.3555,6.3789,6.414,6.4297,6.4297,6.4258,6.4297,6.4297,6.4375,6.4609,6.5,6.5351,6.539,6.5078,6.4414,6.4219,6.4297,6.4297,6.4297,6.4297,6.4297,6.4336,6.4336,6.4258,6.414,6.414,6.418,6.4336,6.4414,6.4531,6.4492,6.4336,6.4258,6.4258,6.4336,6.4453,6.4453,6.3945,6.3476,6.2695,6.2656,6.2734,6.2773,6.2734,6.2578,6.2578,6.2969,6.3125,6.2812,6.2695,6.2656,6.2422,6.2461,6.1836,6.1836,6.1836,6.1836,6.1875,6.1875,6.2031,6.2031,6.2148,6.2148,6.2148,6.2031,6.2226,6.1953,6.2305,6.2422,6.3125,6.3125,6.3555,6.3906,6.3984,6.3281,6.2148,6.1992,6.1992,6.1992,6.1953,6.1992,6.2109,6.2695,6.2656,6.2265,6.2695,6.2617,6.2109,6.1953,6.1953,6.1992,6.1992,6.1992,6.1992,6.1992,6.1992,6.1992,6.1992,6.1992,6.1953,6.1914,6.1406,5.9883,5.9648,6.0156,6.0703,6.0742,6.1484,6.2617,6.2969,6.332,6.3984,6.3984,6.4297,6.4375,6.4414,6.4531,6.4726,6.4883,6.4883,6.4883,6.4609,6.4805,6.4883,6.5351,6.5937,6.6445,6.6719,6.6094,6.5039,6.457,6.457,6.457,6.4609,6.457,6.457,6.457,6.4648,6.5273,6.5156,6.5195,6.5195,6.5234,6.5195,6.5078,6.4961,6.4765,6.4765,6.4765,6.4844,6.4961,6.5117,6.4922,6.4765,6.4297,6.418,6.4062,6.3633,6.3594,6.3789,6.3945,6.414,6.3984,6.3594,6.3867,6.4101,6.3672,6.3555,6.2734,6.2734,6.2734,6.2734,6.2734,6.2734,6.3086,6.3672,6.3711,6.3594,6.3711,6.3711,6.3672,6.3672,6.3594,6.3867,6.3984,6.4062,6.418,6.4219,6.4297,6.418,6.375,6.375,6.3711,6.3672,6.3711,6.3711,6.3789,6.3789,6.3945,6.375,6.375,6.3906,6.3672,6.3515,6.3711,6.375,6.3672,6.3594,6.3555,6.3594,6.3594,6.3594,6.3594,6.3672,6.375,6.375,6.3555,6.3125,6.2539,6.2187,6.2422,6.293,6.3476,6.3828,6.4023,6.414,6.4297,6.4492,6.4648,6.5273,6.5351,6.5586,6.6289,6.6211,6.625,6.6328,6.6367,6.6172,6.6172,6.6445,6.664,6.6836,6.6875,6.6758,6.6406,6.6289,6.6172,6.6211,6.6211,6.6289,6.6289,6.6133,6.6172,6.6289,6.625,6.6289,6.6211,6.6094,6.5976,6.5781,6.5781,6.5703,6.5703,6.5664,6.5664,6.5703,6.5742,6.582,6.5664,6.539,6.5039,6.4648,6.4219,6.4414,6.4844,6.4609,6.4648,6.4492,6.4453,6.4648,6.4805,6.4609,6.4648,6.3594,6.3594,6.3594,6.3633,6.3633,6.3633,6.3867,6.4258,6.4297,6.4297,6.4297,6.4297,6.4297,6.4297,6.4336,6.4453,6.4961,6.5351,6.5547,6.5547,6.5547,6.5547,6.5508,6.539,6.5195,6.4531,6.4258,6.4297,6.4375,6.4648,6.4687,6.4375,6.4687,6.457,6.4336,6.4336,6.4219,6.4219,6.4297,6.4297,6.4297,6.4297,6.4297,6.4297,6.4297,6.4297,6.4258,6.4258,6.4297,6.4297,6.4258,6.3984,6.3711,6.4062,6.4453,6.4844,6.4922,6.5156,6.5351,6.5547,6.5742,6.6133,6.6211,6.6445,6.6797,6.6914,6.6914,6.6914,6.6875,6.6875,6.6914,6.6875,6.6914,6.6914,6.6914,6.6914,6.6914,6.6914,6.6914,6.6914,6.6797,6.6797,6.6875,6.6914,6.6875,6.6562,6.6562,6.6601,6.664,6.6562,6.664,6.6562,6.668,6.6719,6.6719,6.668,6.6562,6.6523,6.6484,6.6484,6.6445,6.6094,6.5703,6.543,6.5234,6.5547,6.5859,6.5547,6.539,6.5664,6.5742,6.5586,6.5547,6.5703,6.5781,6.4492,6.4492,6.4492,6.4492,6.4492,6.4492,6.4609,6.4765,6.4687,6.4922,6.4726,6.4687,6.4961,6.4765,6.4844,6.5195,6.5781,6.6367,6.6601,6.6601,6.6601,6.6601,6.664,6.6484,6.6094,6.4805,6.4883,6.4883,6.5078,6.5351,6.5508,6.5,6.539,6.5508,6.4922,6.4726,6.4922,6.4961,6.5,6.4961,6.4922,6.4883,6.4922,6.4922,6.4961,6.4961,6.4961,6.4883,6.4765,6.4726,6.5351,6.5312,6.4922,6.4726,6.4961,6.5781,6.582,6.6055,6.6445,6.668,6.6758,6.6914,6.6875,6.6875,6.6875,6.6914,6.6914,6.6914,6.6914,6.6914,6.6914,6.6914,6.6914,6.6914,6.6914,6.6914,6.6914,6.6914,6.6914,6.6914,6.6914,6.6914,6.6914,6.6914,6.6914,6.6914,6.6914,6.6914,6.6914,6.6914,6.6914,6.6914,6.6914,6.6836,6.6836,6.6797,6.6797,6.6797,6.6836,6.6836,6.6836,6.6523,6.6172,6.6484,6.6523,6.6601,6.6523,6.6289,6.6367,6.6836,6.668,6.6211,6.6367,6.6797,6.6719,6.539,6.539,6.539,6.539,6.539,6.539,6.5781,6.6406,6.6328,6.6445,6.6406,6.6445,6.6328,6.6367,6.6445,6.6562,6.6601,6.6836,6.6914,6.6914,6.6914,6.6914,6.6914,6.6875,6.664,6.6601,6.6328,6.625,6.6328,6.6601,6.6367,6.6445,6.6523,6.6406,6.6328,6.6445,6.6211,6.6133,6.6172,6.6211,6.6211,6.6211,6.6211,6.6211,6.6172,6.6211,6.6289,6.6289,6.6289,6.6328,6.6445,6.6406,6.6211,6.625,6.6367,6.6484,6.6562,6.668,6.6875,6.6914,6.6914,6.6914,6.6914,6.6914,6.6914,6.6914,6.6914,6.6914,6.6914,6.6914,6.6914,6.6914,6.6914,6.6914,6.6914,6.6914,6.6914,6.6914,6.6914,6.6914,6.6914,6.6914,6.6914,6.6914,6.6914,6.6914,6.6914,6.6914,6.6914,6.6914,6.6914,6.6914,6.6914,6.6797,6.6719,6.668,6.664,6.668,6.668,6.668,6.668,6.664,6.6654,6.668,6.675,6.664,6.664,6.6702,6.6681,6.672,6.6681,6.6642,6.6681,6.672,6.6681,6.625,6.6289,6.6289,6.6289,6.6289,6.6289,6.6523,6.6875,6.6914,6.6914,6.6914,6.6914,6.6914,6.6914,6.6914,6.6914,6.6914,6.6914,6.6914,6.6914,6.6914,6.6914,6.6914,6.6914,6.6914,6.6875,6.6875,6.6914,6.6914,6.6875,6.6914,6.6875,6.6914,6.6914,6.6875,6.6836,6.6914,6.6914,6.6914,6.6914,6.6914,6.6914,6.6914,6.6914,6.6875,6.6875,6.6797,6.6836,6.6758,6.668,6.6758,6.6805,6.6836,6.6875,6.6914,6.6914,6.6914,6.6914,6.6914,6.6914,6.6914,6.6914,6.6914,6.6914,6.6914,6.6914,6.6914,6.6914,6.6914,6.6914,6.6914,6.6914,6.6914,6.6914,6.6914,6.6914,6.6914,6.6914,6.6914,6.6914,6.6914,6.6914,6.6914,6.6914,6.6914,6.6914,6.6914,6.6914,6.6914,6.6914,6.6891,6.6849,6.6819,6.6739,6.6631,6.6566,6.6542,6.6528,6.6553,6.6553,6.6577,6.6567,6.6532,6.6549,6.6554,6.6573,6.6648,6.664,6.6625,6.6586,6.6562,6.6577,6.6586,6.6586,6.6577,6.6914,6.6914,6.6914,6.6914,6.6914,6.6875,6.6875,6.6914,6.6914,6.6914,6.6914,6.6914,6.6914,6.6914,6.6914,6.6914,6.6914,6.6914,6.6914,6.6914,6.6914,6.6914,6.6914,6.6914,6.6914,6.6914,6.6914,6.6914,6.6914,6.6914,6.6914,6.6914,6.6914,6.6914,6.6914,6.6914,6.6914,6.6914,6.6914,6.6914,6.6914,6.6914,6.6914,6.6914,6.6914,6.6836,6.6797,6.6797,6.6797,6.6735,6.6802,6.6836,6.6875,6.6875,6.6914,6.6914,6.6914,6.6914,6.6914,6.6914,6.6914,6.6914,6.6914,6.6914,6.6914,6.6914,6.6914,6.6914,6.6914,6.6914,6.6914,6.6914,6.6914,6.6914,6.6914,6.6914,6.6914,6.6914,6.6914,6.6914,6.6914,6.6914,6.6914,6.6914,6.6914,6.6914,6.6914,6.6914,6.6914,6.6914,6.6878,6.6819,6.6729,6.6651,6.6533,6.6456,6.6436,6.6415,6.6415,6.6415,6.6456,6.6496,6.6456,6.6379,6.6438,6.6458,6.6515,6.6533,6.6438,6.6436,6.6496,6.6496,6.6456,6.6436,6.6397,6.6914,6.6914,6.6914,6.6914,6.6914,6.6914,6.6914,6.6914,6.6914,6.6914,6.6914,6.6914,6.6914,6.6914,6.6914,6.6914,6.6914,6.6914,6.6914,6.6914,6.6914,6.6914,6.6914,6.6914,6.6914,6.6914,6.6914,6.6914,6.6914,6.6914,6.6914,6.6914,6.6914,6.6914,6.6914,6.6914,6.6914,6.6914,6.6914,6.6914,6.6914,6.6914,6.6914,6.6914,6.6914,6.6875,6.6836,6.6791,6.6696,6.6699,6.6696,6.6711,6.6758,6.6836,6.6875,6.6914,6.6914,6.6914,6.6875,6.6914,6.6914,6.6914,6.6914,6.6914,6.6914,6.6914,6.6914,6.6914,6.6914,6.6914,6.6914,6.6914,6.6914,6.6914,6.6914,6.6914,6.6914,6.6914,6.6914,6.6914,6.6914,6.6914,6.6914,6.6914,6.6914,6.6914,6.6914,6.6875,6.6875,6.6836,6.6789,6.6669,6.6611,6.6533,6.6456,6.6379,6.634,6.634,6.6301,6.6301,6.634,6.634,6.6301,6.6263,6.6301,6.6301,6.634,6.634,6.6263,6.6263,6.634,6.6301,6.6244,6.6263,6.6301,6.6912,6.6914,6.6914,6.6914,6.6914,6.6914,6.6914,6.6914,6.6914,6.6914,6.6914,6.6914,6.6914,6.6914,6.6914,6.6914,6.6914,6.6914,6.6914,6.6914,6.6914,6.6914,6.6914,6.6914,6.6914,6.7031,6.6914,6.6914,6.6914,6.6953,6.6914,6.6914,6.6914,6.6914,6.707,6.6914,6.6914,6.6914,6.6914,6.6914,6.6914,6.6914,6.6914,6.6914,6.6875,6.6836,6.6758,6.6731,6.6688,6.6676,6.6661,6.663,6.6663,6.6719,6.6719,6.6719,6.6758,6.6797,6.6875,6.6914,6.6953,6.6914,6.6914,6.6914,6.6914,6.6953,6.6953,6.6914,6.6914,6.6953,6.6992,6.6914,6.6914,6.6914,6.7148,6.7109,6.707,6.6914,6.6914,6.6914,6.6914,6.6914,6.6914,6.6914,6.6914,6.6914,6.6875,6.6875,6.6797,6.6719,6.6664,6.6535,6.6456,6.6417,6.634,6.6263,6.6263,6.6263,6.6263,6.6224,6.6224,6.6224,6.6185,6.6185,6.6224,6.6224,6.6185,6.6185,6.6224,6.6224,6.6185,6.6185,6.6185,6.6185,6.6224,6.6906,6.6911,6.6914,6.6914,6.6911,6.6911,6.6914,6.6914,6.6914,6.6914,6.6913,6.6914,6.6914,6.6914,6.6914,6.6914,6.6914,6.6914,6.6914,6.6912,6.6914,6.7031,6.7226,6.7265,6.7383,6.75,6.7812,6.7773,6.7656,6.7578,6.7617,6.7265,6.7695,6.7656,6.7539,6.7383,6.7265,6.6914,6.6914,6.6914,6.6914,6.6914,6.6914,6.6875,6.6836,6.6758,6.668,6.664,6.6601,6.6572,6.6581,6.6591,6.6609,6.6873,6.7035,6.7139,6.7287,6.7578,6.7539,6.75,6.7226,6.7265,6.75,6.7812,6.7695,6.7539,6.7539,6.7773,6.7734,6.7695,6.7578,6.7656,6.7734,6.7812,6.7773,6.7617,6.75,6.75,6.7422,6.7383,6.7265,6.6914,6.6914,6.6914,6.6914,6.6914,6.6875,6.6844,6.6746,6.664,6.6545,6.6438,6.634,6.6301,6.6263,6.6224,6.6185,6.6185,6.6185,6.6185,6.6185,6.6185,6.6185,6.6185,6.6185,6.6185,6.6185,6.6185,6.6185,6.6185,6.6185,6.6185,6.6185,6.6185,6.6185,6.6895,6.6883,6.6911,6.6908,6.6883,6.6878,6.6891,6.6904,6.6904,6.6904,6.6904,6.6904,6.691,6.6914,6.6914,6.6953,6.6953,6.6914,6.707,6.7062,6.6992,6.7539,6.789,6.8164,6.8398,6.8945,6.8906,6.8945,6.914,6.8945,6.8672,6.8281,6.8633,6.9023,6.8906,6.832,6.7812,6.7422,6.7265,6.7226,6.7187,6.7148,6.7109,6.7032,6.681,6.664,6.664,6.6719,6.6766,6.6755,6.6826,6.6822,6.6998,6.7368,6.76,6.7772,6.8196,6.8448,6.8465,6.8228,6.8047,6.8203,6.8515,6.8867,6.8789,6.9062,6.918,6.8984,6.8789,6.8984,6.9062,6.9219,6.8828,6.8711,6.8555,6.8515,6.8437,6.8359,6.8242,6.8008,6.7734,6.7461,6.7148,6.7187,6.6914,6.6875,6.6758,6.6688,6.6611,6.6513,6.6438,6.6379,6.6263,6.6224,6.6224,6.6185,6.6185,6.6185,6.6185,6.6185,6.6185,6.6185,6.6185,6.6185,6.6185,6.6185,6.6185,6.6185,6.6185,6.6185,6.6185,6.6185,6.6185,6.6185,6.6185,6.6883,6.6917,6.6856,6.6859,6.6895,6.6883,6.6878,6.6887,6.6887,6.6887,6.6887,6.6887,6.6891,6.6898,6.694,6.7221,6.7617,6.7695,6.7969,6.8359,6.8586,6.8668,6.8906,6.8984,6.9101,6.9492,6.9531,6.9453,6.9375,6.9922,7.0078,6.9844,6.9687,6.9414,6.9258,6.9219,6.8789,6.8541,6.8382,6.8424,6.8427,6.8333,6.831,6.8288,6.8108,6.8026,6.8008,6.789,6.7851,6.7785,6.7711,6.7672,6.7702,6.8127,6.8304,6.8403,6.885,6.9014,6.9088,6.885,6.8744,6.8749,6.9023,6.9372,6.9523,6.9414,6.9375,6.9375,6.9531,6.9648,6.9531,6.9414,6.9297,6.9336,6.9375,6.9414,6.9375,6.9297,6.9101,6.8828,6.8555,6.8281,6.789,6.7539,6.7187,6.6854,6.6683,6.6572,6.6495,6.6417,6.634,6.6301,6.6224,6.6224,6.6185,6.6185,6.6185,6.6185,6.6185,6.6185,6.6185,6.6185,6.6185,6.6185,6.6185,6.6185,6.6185,6.6185,6.6185,6.6185,6.6185,6.6185,6.6185,6.6185,6.6185,6.6834,6.6873,6.6834,6.6844,6.6895,6.6883,6.6873,6.6873,6.6873,6.6873,6.6873,6.6873,6.7029,6.7185,6.7308,6.7799,6.8398,6.8633,6.8945,6.914,6.9293,6.9562,6.972,6.9883,7.0,7.0117,7.0234,7.0312,7.039,7.082,7.0976,7.0859,7.0586,7.039,7.0273,6.9961,6.972,6.946,6.9411,6.938,6.9295,6.9184,6.9041,6.8956,6.8762,6.8646,6.8545,6.8429,6.8405,6.8398,6.8462,6.8527,6.8655,6.8805,6.8969,6.9131,6.9331,6.9469,6.9529,6.9417,6.9614,6.995,7.0017,7.008,6.999,7.0006,7.0312,7.0234,7.0195,7.0061,7.01,7.0273,7.0351,7.0469,7.0312,7.0312,7.0234,7.0151,6.9928,6.9687,6.9278,6.876,6.8583,6.8132,6.7495,6.7044,6.6591,6.6495,6.6456,6.634,6.6263,6.6224,6.6224,6.6185,6.6185,6.6185,6.6185,6.6185,6.6185,6.6185,6.6185,6.6185,6.6185,6.6185,6.6185,6.6185,6.6185,6.6185,6.6185,6.6185,6.6185,6.6185,6.6185,6.6185,6.6185,6.6795,6.6795,6.6795,6.6795,6.68,6.6795,6.6795,6.6834,6.6795,6.6795,6.6834,6.6873,6.7308,6.7854,6.8015,6.8619,6.9258,6.9453,6.9609,6.9765,6.9957,7.0106,7.0452,7.0761,7.0927,7.1718,7.164,7.1484,7.168,7.168,7.1797,7.1836,7.1562,7.1562,7.1758,7.1055,7.0267,6.9567,6.9588,6.9577,6.9539,6.9554,6.9455,6.9363,6.9192,6.9108,6.9121,6.9022,6.8989,6.8948,6.8948,6.8948,6.8975,6.9541,6.9808,6.9871,7.0575,7.0931,7.1008,7.0496,7.0599,7.1048,7.0951,7.1087,7.1415,7.149,7.1349,7.1076,7.1282,7.1399,7.1516,7.1516,7.1399,7.1321,7.1115,7.1037,7.094,7.0797,7.0523,7.0455,6.9759,6.9097,6.9031,6.8759,6.7987,6.7348,6.667,6.6456,6.6533,6.6301,6.6224,6.6185,6.6185,6.6185,6.6185,6.6185,6.6185,6.6185,6.6185,6.6185,6.6185,6.6185,6.6185,6.6185,6.6185,6.6185,6.6185,6.6185,6.6185,6.6185,6.6185,6.6185,6.6185,6.6185,6.6185,6.6795,6.6795,6.6795,6.6795,6.6795,6.6795,6.6795,6.6795,6.6795,6.6795,6.6951,6.7342,6.7781,6.818,6.8812,6.9445,7.0155,7.0299,7.0409,7.1038,7.0999,7.1272,7.1499,7.1499,7.1698,7.1897,7.1981,7.1988,7.1914,7.1981,7.1975,7.1992,7.1978,7.1992,7.1914,7.1593,7.1306,7.1015,7.0966,7.0873,7.0688,7.0544,7.0408,7.0307,7.0067,6.999,6.9942,6.9823,6.9848,6.9833,6.9871,6.991,6.9948,7.0439,7.0504,7.0568,7.1042,7.1081,7.1091,7.0931,7.1015,7.1347,7.1446,7.1485,7.1528,7.1571,7.1609,7.1684,7.1642,7.1681,7.1666,7.1628,7.155,7.1589,7.1472,7.1472,7.1397,7.1203,7.1029,7.1165,7.0776,7.0114,6.9845,6.9568,6.8893,6.8352,6.7771,6.7307,6.723,6.6572,6.6224,6.6224,6.6185,6.6185,6.6224,6.6611,6.665,6.665,6.6417,6.6185,6.6185,6.634,6.6224,6.6263,6.6224,6.6185,6.6185,6.6185,6.6185,6.6185,6.6185,6.6185,6.6185,6.6185,6.6185,6.6795,6.6795,6.6795,6.6795,6.6795,6.6795,6.6795,6.6795,6.6834,6.6951,6.7342,6.7888,6.8523,6.9,6.9593,7.0335,7.1085,7.1186,7.1285,7.1987,7.1948,7.188,7.1928,7.201,7.1924,7.1997,7.2002,7.201,7.201,7.1997,7.1953,7.1875,7.1909,7.185,7.1819,7.1763,7.1729,7.1534,7.1469,7.1397,7.1261,7.1182,7.1092,7.1,7.0889,7.081,7.086,7.0898,7.0898,7.0898,7.0898,7.0898,7.0898,7.0898,7.0925,7.0952,7.1005,7.103,7.1106,7.1091,7.1255,7.1703,7.1463,7.1369,7.1407,7.1412,7.1451,7.1528,7.1601,7.1623,7.1661,7.1678,7.1678,7.17,7.1661,7.1644,7.1489,7.1257,7.1257,7.1429,7.1407,7.0866,7.0556,7.0286,6.986,6.9396,6.897,6.8506,6.8003,6.7384,6.6882,6.6882,6.6998,6.7191,6.7307,6.7423,6.7384,6.7152,6.6998,6.6843,6.6688,6.6882,6.6572,6.6301,6.6263,6.6263,6.6224,6.6185,6.6224,6.6224,6.6185,6.6185,6.6185,6.6185,6.6185,6.6795,6.6795,6.6795,6.6795,6.6795,6.6795,6.6795,6.6834,6.6873,6.7342,6.8083,6.82,6.9103,7.0392,7.066,7.1134,7.1724,7.1831,7.1909,7.1987,7.1987,7.1993,7.1993,7.1993,7.1993,7.1987,7.1993,7.1997,7.1987,7.1948,7.1831,7.1735,7.1729,7.1681,7.1633,7.1604,7.1654,7.1591,7.1479,7.1371,7.1224,7.117,7.1091,7.0966,7.0925,7.0898,7.0898,7.0898,7.0898,7.0898,7.0898,7.0898,7.0898,7.0898,7.0898,7.1002,7.1106,7.1197,7.148,7.1582,7.18,7.2288,7.1935,7.1579,7.164,7.1888,7.2004,7.1988,7.2026,7.1794,7.164,7.1678,7.1756,7.1678,7.1601,7.1485,7.1369,7.1253,7.1274,7.133,7.133,7.1098,7.1059,7.0866,7.0556,7.044,7.0054,6.9705,6.9203,6.8545,6.8158,6.8119,6.8274,6.8506,6.8506,6.8274,6.8119,6.7887,6.8119,6.8042,6.781,6.7501,6.7384,6.7114,6.6533,6.6456,6.692,6.6727,6.6263,6.6263,6.6417,6.6185,6.6185,6.6185,6.6185,6.6795,6.6795,6.6795,6.6795,6.6795,6.6795,6.6795,6.6873,6.742,6.7927,6.8161,6.945,7.0191,7.0738,7.1324,7.1714,7.1909,7.1987,7.1987,7.1987,7.1987,7.1987,7.1987,7.1982,7.1987,7.1987,7.1982,7.1937,7.1943,7.1864,7.1702,7.1585,7.1544,7.1493,7.1455,7.1415,7.1407,7.1394,7.1351,7.1197,7.1069,7.1017,7.094,7.0925,7.0898,7.0898,7.0898,7.0898,7.0898,7.0898,7.0898,7.0898,7.0898,7.0937,7.1052,7.1783,7.1926,7.2107,7.2646,7.2815,7.2957,7.3112,7.2996,7.3109,7.3056,7.2963,7.2987,7.2778,7.2761,7.2662,7.2645,7.2645,7.2491,7.2297,7.222,7.2065,7.191,7.1601,7.1562,7.1291,7.1291,7.1291,7.1291,7.1214,7.0982,7.1137,7.1059,7.0711,7.0324,6.9628,6.928,6.928,6.9241,6.9357,6.9048,6.8777,6.8738,6.87,6.9009,6.9048,6.8622,6.8352,6.8274,6.7965,6.7462,6.7655,6.8119,6.7655,6.6882,6.6727,6.6804,6.6456,6.6185,6.6224,6.6224,6.6795,6.6795,6.6795,6.6795,6.6795,6.6795,6.6795,6.6951,6.7732,6.8279,6.8786,7.0035,7.0894,7.1285,7.1714,7.1987,7.1987,7.1987,7.1987,7.1987,7.1987,7.1987,7.1987,7.193,7.1924,7.1924,7.1901,7.1809,7.1815,7.1702,7.1555,7.1397,7.1376,7.1351,7.126,7.1185,7.1364,7.1376,7.1321,7.1052,7.1014,7.0975,7.0898,7.0975,7.0975,7.0975,7.0975,7.0975,7.0937,7.1014,7.1091,7.1437,7.1552,7.1745,7.2052,7.2706,7.2745,7.2899,7.3273,7.3388,7.3686,7.3983,7.4087,7.4333,7.4192,7.405,7.3828,7.3582,7.3682,7.3783,7.3822,7.3822,7.3496,7.3148,7.301,7.2855,7.2468,7.2065,7.1717,7.1369,7.1291,7.1291,7.1291,7.1291,7.1291,7.1253,7.1253,7.1137,7.0905,7.0556,7.0286,7.0247,7.0131,7.0054,6.9744,6.9551,6.9705,6.986,7.0092,7.0015,6.9512,6.9164,6.9048,6.8777,6.8468,6.8661,6.8816,6.8197,6.7578,6.7539,6.7384,6.7036,6.6688,6.6379,6.632,6.6795,6.6795,6.6795,6.6795,6.6795,6.6795,6.6795,6.6912,6.7849,6.863,6.945,7.0426,7.1285,7.1753,7.1987,7.1987,7.1987,7.1987,7.1987,7.1987,7.1987,7.1987,7.193,7.1807,7.1807,7.1828,7.1739,7.1628,7.1602,7.1523,7.1374,7.1222,7.1349,7.1398,7.1321,7.1541,7.186,7.2178,7.1871,7.1525,7.1398,7.1206,7.1091,7.1245,7.1283,7.1245,7.1245,7.1168,7.1091,7.1398,7.1745,7.2283,7.2524,7.2794,7.3245,7.3553,7.3553,7.3822,7.4014,7.413,7.4361,7.463,7.4822,7.5148,7.5089,7.4899,7.4604,7.4576,7.4678,7.4678,7.4717,7.4678,7.4408,7.4084,7.3814,7.3582,7.3219,7.2816,7.2413,7.2065,7.1756,7.1678,7.1291,7.1291,7.1291,7.1291,7.1291,7.1291,7.1214,7.1059,7.0982,7.0943,7.0789,7.0672,7.075,7.0672,7.0905,7.1059,7.1021,7.0827,7.0286,6.9976,6.9783,6.9589,6.9435,6.9241,6.9164,6.8661,6.8429,6.8584,6.8352,6.781,6.7346,6.6998,6.6474,6.6795,6.6795,6.6795,6.6795,6.6795,6.6795,6.6795,6.6951,6.8474,6.9176,6.9645,7.0894,7.1753,7.1948,7.1987,7.1987,7.1987,7.1987,7.1987,7.1976,7.1976,7.1916,7.1924,7.176,7.1711,7.1689,7.1615,7.1442,7.1481,7.1353,7.1241,7.1171,7.158,7.1926,7.1964,7.2311,7.2783,7.3101,7.2947,7.2755,7.286,7.286,7.2899,7.2822,7.2745,7.2668,7.2668,7.2745,7.2811,7.2993,7.3053,7.3168,7.3178,7.3437,7.3822,7.4284,7.4437,7.4668,7.4976,7.5091,7.5284,7.5438,7.563,7.5784,7.5803,7.5628,7.5528,7.5543,7.553,7.5491,7.5517,7.5414,7.5298,7.4976,7.4654,7.4292,7.3968,7.3566,7.3187,7.2761,7.2375,7.1988,7.1601,7.1369,7.1291,7.1291,7.1291,7.1291,7.1291,7.1214,7.1175,7.1137,7.1175,7.1137,7.1291,7.1291,7.1291,7.1291,7.1175,7.1059,7.0943,7.075,7.0479,7.0518,7.044,7.017,6.9783,6.928,6.9164,6.9473,6.9164,6.8584,6.8369,6.8077,6.7205,6.6795,6.6795,6.6795,6.6795,6.6795,6.6795,6.6795,6.7107,6.8669,6.9411,6.9645,7.1089,7.1987,7.1987,7.1987,7.1987,7.1987,7.1987,7.1932,7.1897,7.1877,7.1788,7.1716,7.1615,7.1587,7.1544,7.143,7.1359,7.159,7.17,7.1709,7.1953,7.2608,7.2811,7.2822,7.3283,7.3745,7.4024,7.4034,7.4216,7.4284,7.4053,7.3591,7.3476,7.3514,7.3514,7.3476,7.3486,7.3476,7.3658,7.3783,7.4361,7.4514,7.4745,7.4899,7.513,7.5322,7.5476,7.5822,7.5976,7.5976,7.5976,7.5976,7.5938,7.5976,7.5803,7.5793,7.5809,7.5875,7.5863,7.589,7.5851,7.5813,7.5607,7.5388,7.5183,7.477,7.4378,7.3899,7.3419,7.3187,7.3109,7.2684,7.2181,7.2065,7.1833,7.1756,7.1407,7.1369,7.1407,7.1369,7.1291,7.1291,7.1291,7.1291,7.1291,7.1291,7.1291,7.1291,7.1214,7.1137,7.1214,7.1214,7.1021,7.0943,7.0905,7.0518,7.0054,7.0131,7.0479,6.9976,6.9357,6.922,6.906,6.832,6.6795,6.6795,6.6795,6.6795,6.6795,6.6795,6.6795,6.7107,6.8585,6.936,6.9582,7.1175,7.1852,7.1948,7.1948,7.1948,7.1909,7.1831,7.178,7.1729,7.1681,7.1669,7.152,7.1358,7.1474,7.1552,7.1545,7.195,7.2405,7.2456,7.2726,7.3405,7.3609,7.3658,7.3649,7.388,7.4303,7.4716,7.4985,7.5255,7.5053,7.4668,7.4207,7.3937,7.3783,7.3822,7.3822,7.386,7.386,7.413,7.4591,7.5091,7.5476,7.5592,7.5668,7.5822,7.5784,7.5861,7.5976,7.5976,7.5976,7.5976,7.5976,7.5976,7.5976,7.6005,7.6034,7.6062,7.6062,7.609,7.6118,7.6145,7.6106,7.6068,7.5952,7.5902,7.5478,7.5151,7.4672,7.4154,7.4038,7.4038,7.3574,7.3071,7.2839,7.2607,7.2297,7.1833,7.1601,7.1678,7.1717,7.1485,7.1291,7.1291,7.1291,7.1291,7.1291,7.1291,7.1291,7.1291,7.1291,7.1291,7.1291,7.1291,7.1214,7.1175,7.1175,7.0905,7.1098,7.1175,7.0728,7.0126,7.0065,6.9826,6.937,6.6795,6.6795,6.6795,6.6795,6.6795,6.6795,6.6795,6.7057,6.8444,6.9158,6.9567,7.0745,7.1638,7.1753,7.1636,7.1618,7.1681,7.1659,7.1633,7.1552,7.1507,7.1492,7.1475,7.1429,7.1588,7.1825,7.2084,7.2546,7.3147,7.3273,7.336,7.3678,7.4322,7.4486,7.4601,7.4909,7.5332,7.5592,7.5592,7.5784,7.5822,7.5592,7.563,7.5515,7.5515,7.5515,7.5515,7.5515,7.5553,7.5592,7.5592,7.5784,7.5899,7.5976,7.5976,7.5976,7.5976,7.5976,7.5976,7.5976,7.5976,7.5976,7.5976,7.5976,7.5976,7.5976,7.6005,7.6005,7.6005,7.6005,7.6034,7.6034,7.6034,7.6062,7.5985,7.6056,7.5928,7.5799,7.5577,7.5175,7.4889,7.4618,7.4154,7.3844,7.3728,7.3496,7.338,7.2955,7.2413,7.2258,7.2142,7.1872,7.1562,7.1291,7.1291,7.1291,7.1291,7.1291,7.1291,7.1291,7.1291,7.1291,7.1291,7.1291,7.1291,7.1253,7.1291,7.1291,7.1291,7.1231,7.1208,7.0931,7.0854,7.0614,7.0117]},{"header":{"parameterUnit":"m.s-1","parameterCategory":1,"la1":31.0,"la2":29.5877,"lo1":-88.7671,"lo2":-86.6584,"dy":0.0162,"dx":0.0185,"nx":115,"ny":88,"refTime":"2025-01-22T06:00:00:Z","depth":0,"parameterNumber":3,"parameterNumberName":"V-component_of_WINDS"},"data":[0.0,0.0,0.0,0.0,0.0,0.0,0.0,0.0,0.0,0.0,0.0,0.0,0.0,0.0,0.0,0.0,0.0,0.0,0.0,0.0,0.0,0.0,0.0,0.0,0.0,0.0,0.0,0.0,0.0,0.0,0.0,0.0,0.0,0.0,0.0,0.0,0.0,0.0,0.0,0.0,0.0,0.0,0.0,0.0,0.0,0.0,0.0,0.0,0.0,0.0,0.0,0.0,0.0,0.0,0.0,0.0,0.0,0.0,0.0,0.0,0.0,0.0,0.0,0.0,0.0,0.0,0.0,0.0,0.0,0.0,0.0,0.0,0.0,0.0,0.0,0.0,0.0,0.0,0.0,0.0,0.0,0.0,0.0,0.0,0.0,0.0,0.0,0.0,0.0,0.0,0.0,0.0,0.0,0.0,0.0,0.0,0.0,0.0,0.0,0.0,0.0,0.0,0.0,0.0,0.0,0.0,0.0,0.0,0.0,0.0,0.0,0.0,0.0,0.0,0.0,0.0,0.0,0.0,0.0,0.0,0.0,0.0,0.0,0.0,0.0,0.0,0.0,0.0,0.0,0.0,0.0,0.0,0.0,0.0,0.0,0.0,0.0,0.0,0.0,0.0,0.0,0.0,0.0,0.0,0.0,0.0,0.0,0.0,0.0,0.0,0.0,0.0,0.0,0.0,0.0,0.0,0.0,0.0,0.0,0.0,0.0,0.0,0.0,0.0,0.0,0.0,0.0,0.0,0.0,0.0,0.0,0.0,0.0,0.0,0.0,0.0,0.0,0.0,0.0,0.0,0.0,0.0,0.0,0.0,0.0,0.0,0.0,0.0,0.0,0.0,0.0,0.0,0.0,0.0,0.0,0.0,0.0,0.0,0.0,0.0,0.0,0.0,0.0,0.0,0.0,0.0,0.0,0.0,0.0,0.0,0.0,0.0,0.0,0.0,0.0,0.0,0.0,0.0,0.0,0.0,0.0,0.0,0.0,0.0,0.0,0.0,0.0,0.0,0.0,0.0,0.0,0.0,0.0,0.0,0.0,0.0,0.0,0.0,0.0,0.0,0.0,0.0,0.0,0.0,0.0,0.0,0.0,0.0,0.0,0.0,0.0,0.0,0.0,0.0,0.0,0.0,0.0,0.0,0.0,0.0,0.0,0.0,0.0,0.0,0.0,0.0,0.0,0.0,0.0,0.0,0.0,0.0,0.0,0.0,0.0,0.0,0.0,0.0,0.0,0.0,0.0,0.0,0.0,0.0,0.0,0.0,0.0,0.0,0.0,0.0,0.0,0.0,0.0,0.0,0.0,0.0,0.0,0.0,0.0,0.0,0.0,0.0,0.0,0.0,0.0,0.0,0.0,0.0,0.0,0.0,0.0,0.0,0.0,0.0,0.0,0.0,0.0,0.0,0.0,0.0,0.0,0.0,0.0,0.0,0.0,0.0,0.0,0.0,0.0,0.0,0.0,0.0,0.0,0.0,0.0,0.0,0.0,0.0,0.0,0.0,0.0,0.0,0.0,0.0,0.0,0.0,0.0,0.0,0.0,0.0,0.0,0.0,0.0,0.0,0.0,0.0,0.0,0.0,0.0,0.0,0.0,0.0,0.0,0.0,0.0,0.0,0.0,0.0,0.0,0.0,0.0,0.0,0.0,0.0,0.0,0.0,0.0,0.0,0.0,0.0,0.0,0.0,0.0,0.0,0.0,0.0,0.0,0.0,0.0,0.0,0.0,0.0,0.0,0.0,0.0,0.0,0.0,0.0,0.0,0.0,0.0,0.0,0.0,0.0,0.0,0.0,0.0,0.0,0.0,0.0,0.0,0.0,0.0,0.0,0.0,0.0,0.0,0.0,0.0,0.0,0.0,0.0,0.0,0.0,0.0,0.0,0.0,0.0,0.0,0.0,0.0,0.0,0.0,0.0,0.0,0.0,0.0,0.0,0.0,0.0,0.0,0.0,0.0,0.0,0.0,0.0,0.0,0.0,0.0,0.0,0.0,0.0,0.0,0.0,0.0,0.0,0.0,0.0,0.0,0.0,0.0,0.0,0.0,0.0,0.0,0.0,0.0,0.0,0.0,0.0,0.0,0.0,0.0,0.0,0.0,0.0,0.0,0.0,0.0,0.0,0.0,0.0,0.0,0.0,0.0,0.0,0.0,0.0,0.0,0.0,0.0,0.0,0.0,0.0,0.0,0.0,0.0,0.0,0.0,0.0,0.0,0.0,0.0,0.0,0.0,0.0,0.0,0.0,0.0,0.0,0.0,0.0,0.0,0.0,0.0,0.0,0.0,0.0,0.0,0.0,0.0,0.0,0.0,0.0,0.0,0.0,0.0,0.0,0.0,0.0,0.0,0.0,0.0,0.0,0.0,0.0,0.0,0.0,0.0,0.0,0.0,0.0,0.0,0.0,0.0,0.0,0.0,0.0,0.0,0.0,0.0,0.0,0.0,0.0,0.0,0.0,0.0,0.0,0.0,0.0,0.0,0.0,0.0,0.0,0.0,0.0,0.0,0.0,0.0,0.0,0.0,0.0,0.0,0.0,0.0,0.0,0.0,0.0,0.0,0.0,0.0,0.0,0.0,0.0,0.0,0.0,0.0,0.0,0.0,0.0,0.0,0.0,0.0,0.0,0.0,0.0,0.0,0.0,0.0,0.0,0.0,0.0,0.0,0.0,0.0,0.0,0.0,0.0,0.0,0.0,0.0,0.0,0.0,0.0,0.0,0.0,0.0,0.0,0.0,0.0,0.0,0.0,0.0,0.0,0.0,0.0,0.0,0.0,0.0,0.0,0.0,0.0,0.0,0.0,0.0,0.0,0.0,0.0,0.0,0.0,0.0,0.0,0.0,0.0,0.0,0.0,0.0,0.0,0.0,0.0,0.0,0.0,0.0,0.0,0.0,0.0,0.0,0.0,0.0,0.0,0.0,0.0,0.0,0.0,0.0,0.0,0.0,0.0,0.0,0.0,0.0,0.0,0.0,0.0,0.0,0.0,0.0,0.0,0.0,0.0,0.0,0.0,0.0,0.0,0.0,0.0,0.0,0.0,0.0,0.0,0.0,0.0,0.0,0.0,0.0,0.0,0.0,0.0,0.0,0.0,0.0,0.0,0.0,0.0,0.0,0.0,0.0,0.0,0.0,0.0,0.0,0.0,0.0,0.0,0.0,0.0,0.0,0.0,0.0,0.0,0.0,0.0,0.0,0.0,0.0,0.0,0.0,0.0,0.0,0.0,0.0,0.0,0.0,0.0,0.0,0.0,0.0,0.0,0.0,0.0,0.0,0.0,0.0,0.0,0.0,0.0,0.0,0.0,0.0,0.0,0.0,0.0,0.0,0.0,0.0,0.0,0.0,0.0,0.0,0.0,0.0,0.0,0.0,0.0,0.0,0.0,0.0,0.0,0.0,0.0,0.0,0.0,0.0,0.0,0.0,0.0,0.0,0.0,0.0,0.0,0.0,0.0,0.0,0.0,0.0,0.0,0.0,0.0,0.0,0.0,0.0,0.0,0.0,0.0,0.0,0.0,0.0,0.0,0.0,0.0,0.0,0.0,0.0,0.0,0.0,0.0,0.0,0.0,0.0,0.0,0.0,0.0,0.0,0.0,0.0,0.0,0.0,0.0,0.0,0.0,0.0,0.0,0.0,0.0,0.0,0.0,0.0,0.0,0.0,0.0,0.0,0.0,0.0,0.0,0.0,0.0,0.0,0.0,0.0,0.0,0.0,0.0,0.0,0.0,0.0,0.0,0.0,0.0,0.0,0.0,0.0,0.0,0.0,0.0,0.0,0.0,0.0,0.0,0.0,0.0,0.0,0.0,0.0,0.0,0.0,0.0,0.0,0.0,0.0,0.0,0.0,0.0,0.0,0.0,0.0,0.0,0.0,0.0,0.0,0.0,0.0,0.0,0.0,0.0,0.0,0.0,0.0,0.0,0.0,0.0,0.0,0.0,0.0,0.0,0.0,0.0,0.0,0.0,0.0,0.0,0.0,0.0,0.0,0.0,0.0,0.0,0.0,0.0,0.0,0.0,0.0,0.0,0.0,0.0,0.0,0.0,0.0,0.0,0.0,0.0,0.0,0.0,0.0,0.0,0.0,0.0,0.0,0.0,0.0,0.0,0.0,0.0,0.0,0.0,0.0,0.0,0.0,0.0,0.0,0.0,0.0,0.0,0.0,0.0,0.0,0.0,0.0,0.0,0.0,0.0,0.0,0.0,0.0,0.0,0.0,0.0,0.0,0.0,0.0,0.0,0.0,0.0,0.0,0.0,0.0,0.0,-0.7511,0.0,0.0,0.0,0.0,0.0,0.0,0.0,0.0,0.0,0.0,0.0,0.0,0.0,0.0,0.0,0.0,0.0,0.0,0.0,0.0,0.0,0.0,0.0,0.0,0.0,0.0,0.0,0.0,0.0,0.0,0.0,0.0,0.0,0.0,0.0,0.0,0.0,0.0,0.0,0.0,0.0,0.0,0.0,0.0,0.0,0.0,0.0,0.0,0.0,0.0,0.0,0.0,0.0,0.0,0.0,0.0,0.0,0.0,0.0,0.0,0.0,0.0,0.0,0.0,0.0,0.0,0.0,0.0,0.0,0.0,0.0,0.0,0.0,0.0,0.0,0.0,0.0,0.0,0.0,0.0,0.0,0.0,0.0,0.0,0.0,0.0,0.0,0.0,0.0,0.0,0.0,0.0,0.0,0.0,0.0,0.0,0.0,0.0,0.0,0.0,0.0,0.0,0.0,0.0,0.0,0.0,0.0,0.0,0.0,0.0,-0.7362,-0.7362,-0.7333,-0.7317,-0.7329,0.0,0.0,0.0,0.0,0.0,0.0,0.0,0.0,0.0,0.0,0.0,0.0,0.0,0.0,0.0,0.0,0.0,0.0,0.0,0.0,0.0,0.0,0.0,0.0,0.0,0.0,0.0,0.0,0.0,0.0,0.0,0.0,0.0,0.0,0.0,0.0,0.0,0.0,0.0,0.0,0.0,0.0,0.0,0.0,0.0,0.0,0.0,0.0,0.0,0.0,0.0,0.0,0.0,0.0,0.0,0.0,0.0,0.0,0.0,0.0,0.0,0.0,0.0,0.0,0.0,0.0,0.0,0.0,0.0,0.0,0.0,0.0,0.0,0.0,0.0,0.0,0.0,0.0,0.0,0.0,0.0,0.0,0.0,0.0,0.0,0.0,0.0,0.0,0.0,0.0,0.0,0.0,0.0,0.0,0.0,0.0,0.0,0.0,0.0,0.0,0.0,0.0,0.0,0.0,0.0,0.0,0.0,0.0,0.0,0.0,0.0,0.0,-0.7299,-0.7185,-0.7215,0.0,0.0,0.0,0.0,0.0,0.0,0.0,0.0,0.0,0.0,0.0,0.0,0.0,0.0,0.0,0.0,0.0,0.0,0.0,0.0,0.0,0.0,0.0,0.0,0.0,0.0,0.0,0.0,0.0,0.0,0.0,0.0,0.0,0.0,0.0,0.0,0.0,0.0,0.0,0.0,0.0,0.0,0.0,0.0,0.0,0.0,0.0,0.0,0.0,0.0,0.0,0.0,0.0,0.0,0.0,0.0,0.0,0.0,0.0,0.0,0.0,0.0,0.0,0.0,0.0,0.0,0.0,0.0,0.0,0.0,0.0,0.0,0.0,0.0,0.0,0.0,0.0,0.0,0.0,0.0,0.0,0.0,0.0,0.0,0.0,0.0,0.0,0.0,0.0,0.0,0.0,0.0,0.0,0.0,0.0,0.0,0.0,0.0,0.0,0.0,0.0,0.0,0.0,0.0,0.0,0.0,0.0,0.0,0.0,0.0,-0.7592,-0.836,-0.7611,0.0,-0.7207,0.0,0.0,0.0,0.0,0.0,0.0,0.0,0.0,0.0,0.0,0.0,0.0,0.0,0.0,0.0,0.0,0.0,0.0,0.0,0.0,0.0,0.0,0.0,0.0,0.0,0.0,0.0,0.0,0.0,0.0,0.0,0.0,0.0,0.0,0.0,0.0,0.0,0.0,0.0,0.0,0.0,0.0,0.0,0.0,0.0,0.0,0.0,0.0,0.0,0.0,0.0,0.0,0.0,0.0,0.0,0.0,0.0,0.0,0.0,0.0,0.0,0.0,0.0,0.0,0.0,0.0,0.0,0.0,0.0,0.0,0.0,0.0,0.0,0.0,0.0,0.0,0.0,0.0,0.0,0.0,0.0,0.0,0.0,0.0,0.0,0.0,0.0,0.0,0.0,0.0,0.0,0.0,0.0,0.0,0.0,0.0,0.0,0.0,0.0,0.0,0.0,0.0,0.0,0.0,0.0,0.0,0.0,0.0,0.0,0.0,-0.7996,-0.8072,-0.7996,-0.8206,0.0,0.0,0.0,0.0,0.0,0.0,0.0,0.0,0.0,0.0,0.0,0.0,0.0,0.0,0.0,0.0,0.0,0.0,0.0,0.0,0.0,0.0,0.0,0.0,0.0,0.0,0.0,0.0,0.0,0.0,0.0,0.0,0.0,0.0,0.0,0.0,0.0,0.0,0.0,0.0,0.0,0.0,0.0,0.0,0.0,0.0,0.0,0.0,0.0,0.0,0.0,0.0,0.0,0.0,0.0,0.0,0.0,0.0,0.0,0.0,0.0,0.0,0.0,0.0,0.0,0.0,0.0,0.0,0.0,0.0,0.0,0.0,0.0,0.0,0.0,0.0,0.0,0.0,0.0,0.0,0.0,0.0,0.0,0.0,0.0,0.0,0.0,0.0,0.0,0.0,0.0,0.0,0.0,0.0,0.0,0.0,0.0,0.0,0.0,0.0,0.0,0.0,0.0,0.0,0.0,0.0,0.0,0.0,0.0,0.0,-0.8187,0.0,-0.7997,-0.8182,-0.8375,-0.8477,0.0,0.0,0.0,0.0,0.0,0.0,0.0,0.0,0.0,0.0,0.0,0.0,0.0,0.0,0.0,0.0,0.0,0.0,0.0,0.0,0.0,0.0,0.0,0.0,0.0,0.0,0.0,0.0,0.0,0.0,0.0,0.0,0.0,0.0,0.0,0.0,0.0,0.0,0.0,0.0,0.0,0.0,0.0,0.0,0.0,0.0,0.0,0.0,0.0,0.0,0.0,0.0,0.0,0.0,0.0,0.0,0.0,0.0,0.0,0.0,0.0,0.0,0.0,0.0,0.0,0.0,0.0,0.0,0.0,0.0,0.0,0.0,0.0,0.0,0.0,0.0,0.0,0.0,0.0,0.0,0.0,0.0,0.0,0.0,0.0,0.0,0.0,0.0,0.0,0.0,0.0,0.0,0.0,0.0,0.0,0.0,0.0,0.0,0.0,0.0,0.0,0.0,0.0,0.0,0.0,0.0,0.0,0.0,0.0,-0.831,-0.7918,-0.8396,-0.8075,-0.7091,0.0,0.0,0.0,0.0,0.0,0.0,0.0,0.0,0.0,0.0,0.0,0.0,0.0,0.0,0.0,0.0,0.0,0.0,0.0,0.0,0.0,0.0,0.0,0.0,0.0,0.0,0.0,0.0,0.0,0.0,0.0,0.0,0.0,0.0,0.0,0.0,0.0,0.0,0.0,0.0,0.0,0.0,0.0,0.0,0.0,0.0,0.0,0.0,0.0,0.0,0.0,0.0,0.0,0.0,0.0,0.0,0.0,0.0,0.0,0.0,0.0,0.0,0.0,0.0,0.0,0.0,0.0,0.0,0.0,0.0,0.0,0.0,0.0,0.0,0.0,0.0,0.0,0.0,0.0,0.0,0.0,0.0,0.0,0.0,0.0,0.0,0.0,0.0,0.0,0.0,0.0,0.0,0.0,0.0,0.0,0.0,0.0,0.0,0.0,0.0,0.0,0.0,0.0,0.0,0.0,0.0,0.0,0.0,0.0,-0.8003,-0.7669,-0.7732,-0.8214,-0.7682,-0.6961,0.0,0.0,0.0,0.0,0.0,0.0,0.0,0.0,0.0,0.0,0.0,0.0,0.0,0.0,0.0,0.0,0.0,0.0,0.0,0.0,0.0,0.0,0.0,0.0,0.0,0.0,0.0,0.0,0.0,0.0,0.0,0.0,0.0,0.0,0.0,0.0,0.0,0.0,0.0,0.0,0.0,0.0,0.0,0.0,0.0,0.0,0.0,0.0,0.0,0.0,0.0,0.0,0.0,0.0,0.0,0.0,0.0,0.0,0.0,0.0,0.0,0.0,0.0,0.0,0.0,0.0,0.0,0.0,0.0,0.0,0.0,0.0,0.0,0.0,0.0,0.0,0.0,0.0,0.0,0.0,0.0,0.0,0.0,0.0,0.0,0.0,0.0,0.0,0.0,0.0,0.0,0.0,0.0,0.0,0.0,0.0,0.0,0.0,0.0,0.0,0.0,0.0,0.0,0.0,0.0,0.0,0.0,0.0,0.0,-0.7349,0.0,-0.7656,0.0,-0.7137,-0.6567,0.0,0.0,0.0,0.0,0.0,0.0,0.0,0.0,0.0,0.0,0.0,0.0,0.0,0.0,0.0,0.0,0.0,0.0,0.0,0.0,0.0,0.0,0.0,0.0,0.0,0.0,0.0,0.0,0.0,0.0,0.0,0.0,0.0,0.0,0.0,0.0,0.0,0.0,0.0,0.0,0.0,0.0,0.0,0.0,0.0,0.0,0.0,0.0,0.0,0.0,0.0,0.0,0.0,0.0,0.0,0.0,0.0,0.0,0.0,0.0,0.0,0.0,0.0,0.0,0.0,0.0,0.0,0.0,0.0,0.0,0.0,0.0,0.0,0.0,0.0,0.0,0.0,0.0,0.0,0.0,0.0,0.0,0.0,0.0,0.0,0.0,0.0,0.0,0.0,0.0,0.0,0.0,0.0,0.0,0.0,0.0,0.0,0.0,0.0,0.0,0.0,0.0,0.0,0.0,0.0,0.0,0.0,0.0,-0.7399,-0.7747,-0.806,-0.7688,-0.6544,-0.6316,-0.5754,0.0,0.0,0.0,0.0,0.0,0.0,0.0,0.0,0.0,0.0,0.0,0.0,0.0,0.0,0.0,0.0,0.0,0.0,0.0,0.0,0.0,0.0,0.0,0.0,0.0,0.0,0.0,0.0,0.0,0.0,0.0,0.0,0.0,0.0,0.0,0.0,0.0,0.0,0.0,0.0,0.0,0.0,0.0,0.0,0.0,0.0,0.0,0.0,0.0,0.0,0.0,0.0,0.0,0.0,0.0,0.0,0.0,0.0,0.0,0.0,0.0,0.0,0.0,0.0,0.0,0.0,0.0,0.0,0.0,0.0,0.0,0.0,0.0,0.0,0.0,0.0,0.0,0.0,0.0,0.0,0.0,0.0,0.0,0.0,0.0,0.0,0.0,0.0,0.0,0.0,0.0,0.0,0.0,0.0,0.0,0.0,0.0,0.0,0.0,0.0,0.0,0.0,0.0,0.0,0.0,0.0,0.0,0.0,0.0,-0.6961,-0.7196,-0.7235,-0.7032,-0.6077,-0.5573,0.0,0.0,0.0,0.0,0.0,0.0,0.0,0.0,0.0,0.0,0.0,0.0,0.0,0.0,0.0,0.0,0.0,0.0,0.0,0.0,0.0,0.0,0.0,0.0,0.0,0.0,0.0,0.0,0.0,0.0,0.0,0.0,0.0,0.0,0.0,0.0,0.0,0.0,0.0,0.0,0.0,0.0,0.0,0.0,0.0,0.0,0.0,0.0,0.0,0.0,0.0,0.0,0.0,0.0,0.0,0.0,0.0,0.0,0.0,0.0,0.0,0.0,0.0,0.0,0.0,0.0,0.0,0.0,0.0,0.0,0.0,0.0,0.0,0.0,0.0,0.0,0.0,0.0,0.0,0.0,0.0,0.0,0.0,0.0,0.0,0.0,0.0,0.0,0.0,0.0,0.0,0.0,0.0,0.0,0.0,0.0,0.0,0.0,0.0,0.0,0.0,0.0,0.0,0.0,0.0,0.0,0.0,0.0,0.0,-0.7281,-0.7326,-0.7399,-0.7427,-0.67,-0.6066,-0.5565,0.0,0.0,0.0,0.0,0.0,0.0,0.0,0.0,0.0,0.0,0.0,0.0,0.0,0.0,0.0,0.0,0.0,0.0,0.0,0.0,0.0,0.0,0.0,0.0,0.0,0.0,0.0,0.0,0.0,0.0,0.0,0.0,0.0,0.0,0.0,0.0,0.0,0.0,0.0,0.0,0.0,0.0,0.0,0.0,0.0,0.0,0.0,0.0,0.0,0.0,0.0,0.0,0.0,0.0,0.0,0.0,0.0,0.0,0.0,0.0,0.0,0.0,0.0,0.0,0.0,0.0,0.0,0.0,0.0,0.0,0.0,0.0,0.0,0.0,0.0,0.0,0.0,0.0,0.0,0.0,0.0,0.0,0.0,0.0,0.0,0.0,0.0,0.0,0.0,0.0,0.0,0.0,0.0,0.0,0.0,0.0,0.0,0.0,0.0,0.0,0.0,0.0,0.0,0.0,0.0,0.0,0.0,0.0,-0.834,-0.8271,-0.8094,-0.7758,-0.7822,-0.6999,0.0,0.0,0.0,0.0,0.0,0.0,0.0,0.0,0.0,0.0,0.0,0.0,0.0,0.0,0.0,0.0,0.0,0.0,0.0,0.0,0.0,0.0,0.0,0.0,0.0,0.0,0.0,0.0,0.0,0.0,0.0,0.0,0.0,0.0,0.0,0.0,0.0,0.0,0.0,0.0,0.0,0.0,0.0,0.0,0.0,0.0,0.0,0.0,0.0,0.0,0.0,0.0,0.0,0.0,0.0,0.0,0.0,0.0,0.0,0.0,0.0,0.0,0.0,0.0,0.0,0.0,0.0,0.0,0.0,0.0,0.0,0.0,0.0,0.0,0.0,0.0,0.0,0.0,0.0,0.0,0.0,0.0,0.0,0.0,0.0,0.0,0.0,0.0,0.0,0.0,0.0,0.0,0.0,0.0,0.0,0.0,0.0,0.0,0.0,0.0,0.0,0.0,0.0,0.0,0.0,0.0,0.0,0.0,0.0,-0.8751,-0.8974,-0.885,-0.8354,-0.7717,-0.7135,0.0,0.0,0.0,0.0,0.0,0.0,0.0,0.0,0.0,0.0,0.0,0.0,0.0,0.0,0.0,0.0,0.0,0.0,0.0,0.0,0.0,0.0,0.0,0.0,0.0,0.0,0.0,0.0,0.0,0.0,0.0,0.0,0.0,0.0,0.0,0.0,0.0,0.0,0.0,0.0,0.0,0.0,0.0,0.0,0.0,0.0,0.0,0.0,0.0,0.0,0.0,0.0,0.0,0.0,0.0,0.0,0.0,0.0,0.0,0.0,0.0,0.0,0.0,0.0,0.0,0.0,0.0,0.0,0.0,0.0,0.0,0.0,0.0,0.0,0.0,0.0,0.0,0.0,0.0,0.0,0.0,0.0,0.0,0.0,0.0,0.0,0.0,0.0,0.0,0.0,0.0,0.0,0.0,0.0,0.0,0.0,0.0,0.0,0.0,0.0,0.0,0.0,0.0,0.0,0.0,0.0,0.0,0.0,-0.9398,-0.9138,-0.9578,-0.9517,-0.8979,-0.8037,-0.7376,0.0,0.0,0.0,0.0,0.0,0.0,0.0,0.0,0.0,0.0,0.0,0.0,0.0,0.0,0.0,0.0,0.0,0.0,0.0,0.0,0.0,0.0,0.0,0.0,0.0,0.0,0.0,0.0,0.0,0.0,0.0,0.0,0.0,0.0,0.0,0.0,0.0,0.0,0.0,0.0,0.0,0.0,0.0,0.0,0.0,0.0,0.0,0.0,0.0,0.0,0.0,0.0,0.0,0.0,0.0,0.0,0.0,0.0,0.0,0.0,0.0,0.0,0.0,0.0,0.0,0.0,0.0,0.0,0.0,0.0,0.0,0.0,0.0,0.0,0.0,0.0,0.0,0.0,0.0,0.0,0.0,0.0,0.0,0.0,0.0,0.0,0.0,0.0,0.0,0.0,0.0,0.0,0.0,0.0,0.0,0.0,0.0,0.0,0.0,0.0,0.0,0.0,0.0,0.0,0.0,0.0,0.0,0.0,-0.9602,-0.9621,-1.0115,-1.0048,-0.9532,-0.861,-0.7842,0.0,0.0,0.0,0.0,0.0,0.0,0.0,0.0,0.0,0.0,0.0,0.0,0.0,0.0,0.0,0.0,0.0,0.0,0.0,0.0,0.0,0.0,0.0,0.0,0.0,0.0,0.0,0.0,0.0,0.0,0.0,0.0,0.0,0.0,0.0,0.0,0.0,0.0,0.0,0.0,0.0,0.0,0.0,0.0,0.0,0.0,0.0,0.0,0.0,0.0,0.0,0.0,0.0,0.0,0.0,0.0,0.0,0.0,0.0,0.0,0.0,0.0,0.0,0.0,0.0,0.0,0.0,0.0,0.0,0.0,0.0,0.0,0.0,0.0,0.0,0.0,0.0,0.0,0.0,0.0,0.0,0.0,0.0,0.0,0.0,0.0,0.0,0.0,0.0,0.0,0.0,0.0,0.0,0.0,0.0,0.0,0.0,0.0,0.0,0.0,0.0,0.0,0.0,0.0,0.0,0.0,0.0,0.0,-1.0109,-1.0152,-1.0478,-1.0381,-0.9796,-0.9358,-0.8899,0.0,0.0,0.0,0.0,0.0,0.0,0.0,0.0,0.0,0.0,0.0,0.0,0.0,0.0,0.0,0.0,0.0,0.0,0.0,0.0,0.0,0.0,0.0,0.0,0.0,0.0,0.0,0.0,0.0,0.0,0.0,0.0,0.0,0.0,0.0,0.0,0.0,0.0,0.0,0.0,0.0,0.0,0.0,0.0,0.0,0.0,0.0,0.0,-0.4192,0.0,0.0,0.0,0.0,0.0,0.0,0.0,0.0,0.0,0.0,0.0,0.0,0.0,0.0,0.0,0.0,0.0,0.0,0.0,0.0,0.0,0.0,0.0,0.0,0.0,0.0,0.0,0.0,0.0,0.0,0.0,0.0,0.0,0.0,0.0,0.0,0.0,0.0,0.0,0.0,0.0,0.0,0.0,0.0,0.0,0.0,0.0,0.0,0.0,0.0,0.0,0.0,0.0,0.0,0.0,0.0,0.0,0.0,0.0,-1.0635,-1.0502,-1.0767,-1.0659,-1.014,-0.9737,-0.9271,0.0,0.0,0.0,0.0,0.0,0.0,0.0,0.0,0.0,0.0,0.0,0.0,0.0,0.0,0.0,0.0,0.0,0.0,0.0,0.0,0.0,0.0,0.0,0.0,0.0,0.0,0.0,0.0,0.0,0.0,0.0,0.0,0.0,0.0,0.0,0.0,0.0,0.0,0.0,0.0,0.0,0.0,0.0,0.0,0.0,0.0,0.0,0.0,0.0,0.0,0.0,0.0,0.0,0.0,0.0,0.0,0.0,0.0,0.0,0.0,0.0,0.0,0.0,0.0,0.0,0.0,0.0,0.0,0.0,0.0,0.0,0.0,0.0,0.0,0.0,0.0,0.0,0.0,0.0,0.0,0.0,0.0,0.0,0.0,0.0,0.0,0.0,0.0,0.0,0.0,0.0,0.0,0.0,0.0,0.0,0.0,0.0,0.0,0.0,0.0,0.0,0.0,0.0,0.0,0.0,0.0,0.0,-1.0798,-1.096,-1.0767,-1.0997,-1.0864,-1.0275,-0.9888,-0.9321,-0.8707,0.0,0.0,0.0,0.0,0.0,0.0,0.0,0.0,0.0,0.0,0.0,0.0,0.0,0.0,0.0,0.0,0.0,0.0,0.0,0.0,0.0,0.0,0.0,0.0,0.0,0.0,0.0,0.0,0.0,0.0,0.0,0.0,0.0,0.0,0.0,0.0,0.0,0.0,-0.4132,-0.5098,0.0,0.0,0.0,0.0,0.0,0.0,0.0,0.0,-0.3707,0.0,0.0,0.0,0.0,0.0,0.0,0.0,0.0,0.0,0.0,0.0,0.0,0.0,0.0,0.0,0.0,0.0,0.0,0.0,0.0,0.0,0.0,0.0,0.0,0.0,0.0,0.0,0.0,0.0,0.0,0.0,0.0,0.0,0.0,0.0,0.0,0.0,0.0,0.0,0.0,0.0,0.0,0.0,0.0,0.0,0.0,0.0,0.0,0.0,0.0,0.0,0.0,0.0,0.0,0.0,0.0,-1.0309,-1.0836,-1.1076,-1.1033,-1.1081,-1.0864,-1.0287,-1.0215,-0.9728,-0.8697,0.0,0.0,0.0,0.0,0.0,0.0,0.0,0.0,0.0,0.0,0.0,0.0,0.0,0.0,0.0,0.0,0.0,0.0,0.0,0.0,0.0,0.0,0.0,0.0,0.0,0.0,0.0,0.0,0.0,0.0,0.0,0.0,0.0,0.0,0.0,0.0,0.0,0.0,0.0,-0.5657,-0.5957,0.0,0.0,0.0,0.0,0.0,0.0,0.0,0.0,-0.3437,0.0,0.0,0.0,0.0,0.0,0.0,0.0,0.0,0.0,0.0,0.0,0.0,0.0,0.0,0.0,0.0,0.0,0.0,0.0,0.0,0.0,0.0,0.0,0.0,0.0,0.0,0.0,0.0,0.0,0.0,0.0,0.0,0.0,0.0,0.0,0.0,0.0,0.0,0.0,0.0,0.0,0.0,0.0,0.0,0.0,0.0,0.0,0.0,0.0,0.0,0.0,0.0,0.0,0.0,0.0,-0.9768,-1.0678,-1.109,-1.1093,-1.1117,-1.0924,-1.0538,-1.0666,-0.9869,0.0,0.0,0.0,0.0,0.0,0.0,0.0,0.0,0.0,0.0,0.0,0.0,0.0,0.0,0.0,0.0,0.0,0.0,0.0,0.0,0.0,0.0,0.0,0.0,0.0,0.0,0.0,0.0,0.0,0.0,0.0,0.0,0.0,0.0,0.0,0.0,0.0,0.0,0.0,0.0,-0.5433,-0.5551,-0.532,0.0,0.0,0.0,0.0,0.0,0.0,-0.3965,-0.3694,0.0,0.0,0.0,0.0,0.0,0.0,0.0,0.0,0.0,0.0,0.0,0.0,0.0,0.0,0.0,0.0,0.0,0.0,0.0,0.0,0.0,0.0,0.0,0.0,0.0,0.0,0.0,0.0,0.0,0.0,0.0,0.0,0.0,0.0,0.0,0.0,0.0,0.0,0.0,0.0,0.0,0.0,0.0,0.0,0.0,0.0,0.0,0.0,0.0,0.0,0.0,0.0,0.0,0.0,0.0,-0.9591,-1.0597,-1.1133,-1.1081,-1.0968,-1.0787,-1.0574,-1.0882,-0.992,0.0,0.0,0.0,0.0,0.0,0.0,0.0,0.0,0.0,0.0,0.0,0.0,0.0,0.0,0.0,0.0,0.0,0.0,0.0,0.0,0.0,0.0,0.0,0.0,0.0,0.0,0.0,0.0,0.0,0.0,0.0,0.0,0.0,0.0,0.0,0.0,0.0,0.0,0.0,0.0,0.0,-0.5362,-0.5439,-0.4976,0.0,0.0,0.0,0.0,-0.454,-0.4357,0.0,0.0,0.0,0.0,0.0,0.0,0.0,0.0,0.0,0.0,0.0,0.0,0.0,0.0,0.0,0.0,0.0,0.0,0.0,0.0,0.0,0.0,0.0,0.0,0.0,0.0,0.0,0.0,0.0,0.0,0.0,0.0,0.0,0.0,0.0,0.0,0.0,0.0,0.0,0.0,0.0,0.0,0.0,0.0,0.0,0.0,0.0,0.0,0.0,0.0,0.0,0.0,0.0,0.0,0.0,0.0,-1.0146,-1.081,-1.1133,-1.1081,-1.0443,-0.9981,-1.0024,-1.0683,-0.9844,0.0,0.0,0.0,0.0,0.0,0.0,0.0,0.0,0.0,0.0,0.0,0.0,0.0,0.0,0.0,0.0,0.0,0.0,0.0,0.0,0.0,0.0,0.0,0.0,0.0,0.0,0.0,0.0,0.0,0.0,0.0,0.0,0.0,0.0,0.0,0.0,0.0,0.0,0.0,0.0,0.0,-0.5943,-0.5638,-0.5381,-0.5232,0.0,0.0,-0.5019,-0.4981,-0.4914,0.0,0.0,0.0,0.0,0.0,0.0,0.0,0.0,0.0,0.0,0.0,0.0,0.0,0.0,0.0,0.0,0.0,0.0,0.0,0.0,0.0,0.0,0.0,0.0,0.0,0.0,0.0,0.0,0.0,0.0,0.0,0.0,0.0,0.0,0.0,0.0,0.0,0.0,0.0,0.0,0.0,0.0,0.0,0.0,0.0,0.0,0.0,0.0,0.0,0.0,0.0,0.0,0.0,0.0,0.0,-0.8398,-0.9352,-0.9605,-0.9779,-0.9744,-0.9499,-0.9279,-0.9236,-0.9554,-0.8711,0.0,0.0,0.0,0.0,0.0,0.0,0.0,0.0,0.0,0.0,0.0,0.0,0.0,0.0,0.0,0.0,0.0,0.0,0.0,0.0,0.0,0.0,0.0,0.0,0.0,0.0,0.0,0.0,0.0,0.0,0.0,0.0,0.0,0.0,0.0,0.0,0.0,0.0,0.0,0.0,0.0,0.0,-0.5601,-0.5402,0.0,0.0,0.0,-0.529,-0.536,0.0,0.0,0.0,0.0,0.0,0.0,0.0,0.0,0.0,0.0,0.0,0.0,0.0,0.0,0.0,0.0,0.0,0.0,0.0,0.0,0.0,0.0,0.0,0.0,0.0,0.0,0.0,0.0,0.0,0.0,0.0,0.0,0.0,0.0,0.0,0.0,0.0,0.0,0.0,0.0,0.0,0.0,0.0,0.0,0.0,0.0,0.0,0.0,0.0,0.0,0.0,0.0,0.0,0.0,0.0,0.0,0.0,-0.8646,-0.8292,-0.8291,-0.8693,-0.864,-0.8485,-0.8385,-0.8203,0.0,0.0,0.0,0.0,0.0,0.0,0.0,0.0,0.0,0.0,0.0,0.0,0.0,0.0,0.0,0.0,0.0,0.0,0.0,0.0,0.0,0.0,0.0,0.0,0.0,0.0,0.0,0.0,0.0,0.0,0.0,0.0,0.0,0.0,0.0,0.0,0.0,0.0,0.0,0.0,0.0,0.0,-0.5481,-0.5645,-0.5446,-0.5413,0.0,0.0,-0.5576,-0.5398,-0.5382,-0.5125,0.0,0.0,0.0,0.0,0.0,0.0,0.0,0.0,0.0,0.0,0.0,0.0,0.0,0.0,0.0,0.0,0.0,0.0,0.0,0.0,0.0,0.0,0.0,0.0,0.0,0.0,0.0,0.0,0.0,0.0,0.0,0.0,0.0,0.0,0.0,0.0,0.0,0.0,0.0,0.0,0.0,0.0,0.0,0.0,0.0,0.0,0.0,0.0,0.0,0.0,0.0,0.0,0.0,0.0,0.0,-0.8603,-0.725,-0.7242,-0.8802,-0.8035,-0.7569,-0.747,-0.6849,-0.5863,0.0,0.0,0.0,0.0,0.0,0.0,0.0,0.0,0.0,0.0,0.0,0.0,0.0,0.0,0.0,0.0,0.0,0.0,0.0,0.0,0.0,0.0,0.0,0.0,0.0,0.0,0.0,0.0,0.0,0.0,0.0,0.0,0.0,0.0,0.0,0.0,0.0,0.0,0.0,0.0,0.0,-0.5747,-0.5768,-0.5864,-0.6023,0.0,0.0,-0.5917,-0.503,-0.5052,-0.4925,-0.3914,0.0,0.0,0.0,0.0,0.0,0.0,0.0,0.0,0.0,0.0,0.0,0.0,0.0,0.0,0.0,0.0,0.0,0.0,0.0,0.0,0.0,0.0,0.0,0.0,0.0,0.0,0.0,0.0,0.0,0.0,0.0,0.0,0.0,0.0,0.0,0.0,0.0,0.0,0.0,0.0,0.0,0.0,0.0,0.0,0.0,0.0,0.0,0.0,0.0,0.0,0.0,0.0,0.0,-0.7655,-0.7242,-0.6622,-0.6619,-0.7266,-0.692,-0.6606,-0.6485,-0.6317,-0.5601,0.0,0.0,0.0,0.0,0.0,0.0,0.0,0.0,0.0,0.0,0.0,0.0,0.0,0.0,0.0,0.0,0.0,0.0,0.0,0.0,0.0,0.0,0.0,0.0,0.0,0.0,0.0,0.0,-0.2635,-0.2772,-0.2583,0.0,0.0,0.0,0.0,0.0,0.0,0.0,0.0,0.0,0.0,-0.5894,-0.5913,-0.6112,0.0,0.0,-0.5984,-0.5531,-0.5159,-0.4708,-0.4123,-0.3466,-0.3155,0.0,0.0,0.0,0.0,0.0,0.0,0.0,0.0,0.0,0.0,0.0,0.0,0.0,0.0,0.0,0.0,0.0,0.0,0.0,0.0,0.0,0.0,0.0,0.0,0.0,0.0,0.0,0.0,0.0,0.0,0.0,0.0,0.0,0.0,0.0,0.0,0.0,0.0,0.0,0.0,0.0,0.0,0.0,0.0,0.0,0.0,0.0,0.0,0.0,0.0,0.0,0.0,-0.7368,-0.6318,-0.6288,-0.6261,-0.6244,-0.6146,-0.5988,-0.5767,-0.5911,-0.5421,0.0,0.0,0.0,0.0,0.0,0.0,0.0,0.0,0.0,0.0,0.0,0.0,0.0,0.0,0.0,0.0,0.0,0.0,0.0,0.0,0.0,0.0,0.0,0.0,0.0,0.0,0.0,0.0,-0.2835,-0.2847,-0.2631,0.0,0.0,0.0,0.0,0.0,0.0,0.0,0.0,0.0,0.0,-0.6084,-0.6207,-0.6444,-0.6627,-0.6668,-0.593,-0.5261,-0.5059,-0.4142,-0.3337,-0.2836,0.0,0.0,0.0,0.0,0.0,0.0,0.0,0.0,0.0,0.0,0.0,0.0,0.0,0.0,0.0,0.0,0.0,0.0,0.0,0.0,0.0,0.0,0.0,0.0,0.0,0.0,0.0,0.0,0.0,0.0,0.0,0.0,0.0,0.0,0.0,0.0,0.0,0.0,0.0,0.0,0.0,0.0,0.0,0.0,0.0,0.0,0.0,0.0,0.0,0.0,0.0,0.0,0.0,-0.7312,-0.6284,-0.6324,-0.625,-0.6218,-0.6015,-0.578,-0.5491,-0.5579,-0.5171,-0.4361,0.0,0.0,0.0,0.0,0.0,0.0,0.0,0.0,0.0,0.0,0.0,0.0,0.0,0.0,0.0,0.0,0.0,0.0,0.0,0.0,0.0,0.0,0.0,0.0,0.0,0.0,-0.2976,-0.287,-0.2705,0.0,0.0,0.0,0.0,0.0,0.0,0.0,0.0,0.0,0.0,-0.5851,-0.6434,-0.6641,-0.6817,-0.688,-0.7007,-0.6111,-0.5157,-0.4326,-0.3388,-0.2661,0.0,0.0,0.0,0.0,0.0,0.0,0.0,0.0,0.0,0.0,0.0,0.0,0.0,0.0,0.0,0.0,0.0,0.0,0.0,0.0,0.0,0.0,0.0,0.0,0.0,0.0,0.0,-0.5748,-0.5575,0.0,0.0,0.0,0.0,0.0,0.0,0.0,0.0,0.0,0.0,0.0,-0.6778,-0.6519,0.0,0.0,0.0,0.0,0.0,0.0,0.0,0.0,0.0,0.0,0.0,0.0,-0.5845,-0.6248,-0.6293,-0.6203,-0.6009,-0.5814,-0.5575,-0.5381,-0.5225,-0.4879,-0.433,0.0,0.0,0.0,0.0,0.0,0.0,0.0,0.0,0.0,0.0,0.0,0.0,0.0,0.0,0.0,0.0,0.0,0.0,0.0,0.0,0.0,0.0,0.0,0.0,0.0,-0.2991,0.0,0.0,0.0,0.0,0.0,0.0,0.0,0.0,0.0,0.0,0.0,-0.5114,-0.5657,-0.6207,-0.6374,-0.5966,-0.6092,-0.5947,0.0,0.0,0.0,0.0,0.0,0.0,0.0,0.0,0.0,0.0,0.0,0.0,0.0,0.0,-0.171,-0.1942,-0.2141,-0.2309,-0.2438,0.0,0.0,0.0,0.0,0.0,0.0,0.0,0.0,0.0,0.0,0.0,0.0,0.0,0.0,0.0,0.0,-0.5644,0.0,0.0,0.0,0.0,0.0,0.0,0.0,0.0,-0.594,-0.6209,-0.6738,-0.6489,-0.6554,0.0,-0.6684,-0.6409,0.0,0.0,0.0,0.0,0.0,0.0,0.0,0.0,-0.5299,-0.622,-0.6277,-0.612,-0.6007,-0.5732,-0.5471,-0.5303,-0.5073,-0.4776,-0.4534,-0.4091,-0.3837,0.0,0.0,0.0,0.0,0.0,0.0,0.0,0.0,0.0,0.0,0.0,0.0,0.0,0.0,0.0,0.0,0.0,0.0,0.0,0.0,0.0,0.0,0.0,-0.3276,0.0,0.0,0.0,0.0,0.0,0.0,0.0,0.0,0.0,-0.4821,-0.5169,-0.5664,-0.6261,-0.6342,-0.6093,-0.5697,0.0,0.0,0.0,0.0,0.0,0.0,0.0,-0.1367,-0.1414,-0.1384,-0.1362,-0.1389,-0.1436,-0.1449,-0.1389,0.0,0.0,-0.177,-0.1931,-0.2134,-0.2298,-0.269,-0.2931,-0.2981,-0.3683,-0.4129,0.0,0.0,0.0,0.0,0.0,0.0,0.0,0.0,-0.4497,-0.481,0.0,-0.5068,0.0,0.0,0.0,0.0,0.0,0.0,0.0,0.0,-0.581,-0.6003,-0.6083,-0.6083,-0.6244,-0.6471,-0.6407,-0.6112,-0.5797,-0.5284,0.0,0.0,0.0,0.0,0.0,0.0,-0.5741,-0.6254,-0.6094,-0.6066,-0.6108,-0.5746,-0.5439,-0.5175,-0.4963,-0.4858,-0.4948,-0.4574,-0.4282,-0.4265,-0.3868,0.0,0.0,0.0,0.0,0.0,0.0,0.0,0.0,0.0,0.0,0.0,0.0,0.0,0.0,0.0,0.0,0.0,0.0,0.0,0.0,-0.3412,0.0,0.0,0.0,0.0,0.0,0.0,0.0,0.0,0.0,0.0,-0.5353,-0.5721,-0.6197,-0.6858,0.0,0.0,0.0,0.0,-0.4285,-0.4273,-0.3474,-0.2877,-0.2875,-0.2071,-0.1515,-0.1491,0.0,0.0,-0.1504,-0.1561,-0.158,-0.1467,-0.1519,-0.1547,-0.1456,-0.1812,-0.2199,-0.2416,-0.2904,-0.3428,-0.365,-0.3741,-0.391,-0.5775,0.0,0.0,0.0,0.0,-0.6054,-0.6036,-0.5928,-0.5814,-0.5714,-0.5615,-0.5447,0.0,0.0,0.0,0.0,0.0,0.0,-0.5149,-0.5604,-0.5941,-0.6114,-0.6207,-0.6207,-0.6241,-0.6394,-0.6355,-0.6218,-0.615,-0.5996,-0.5568,-0.4918,0.0,0.0,0.0,0.0,-0.611,-0.6276,-0.6331,-0.6166,-0.596,-0.5758,-0.5443,-0.5106,-0.4961,-0.4985,-0.5012,-0.4876,-0.4669,-0.4358,-0.414,0.0,0.0,0.0,0.0,0.0,0.0,0.0,0.0,0.0,0.0,0.0,0.0,0.0,0.0,0.0,0.0,0.0,0.0,0.0,-0.3561,-0.3778,-0.3846,0.0,0.0,0.0,0.0,0.0,0.0,0.0,0.0,0.0,-0.5371,-0.5431,-0.5954,0.0,0.0,-0.4775,-0.5023,-0.4103,-0.3153,-0.2481,0.0,0.0,0.0,-0.1742,-0.1545,-0.16,-0.165,-0.167,-0.1647,-0.1663,-0.1669,-0.163,-0.1648,-0.1656,-0.1629,-0.164,-0.1769,-0.189,-0.2005,-0.2226,-0.2283,-0.2934,-0.3278,-0.5936,-0.5788,-0.586,-0.6089,-0.6306,-0.6229,-0.622,-0.6251,-0.6097,-0.5966,-0.5853,-0.5639,-0.5619,-0.5545,-0.5275,0.0,0.0,0.0,-0.5485,-0.5814,-0.6067,-0.6262,-0.6293,-0.6293,-0.6346,-0.653,-0.648,-0.6465,-0.6582,-0.635,-0.6157,-0.606,0.0,0.0,-0.5748,-0.6112,-0.64,-0.6613,-0.6287,-0.5972,-0.5855,-0.5724,-0.5444,-0.5031,-0.5036,-0.5029,-0.4991,-0.5022,-0.4299,-0.2678,-0.3718,-0.3565,0.0,0.0,0.0,0.0,0.0,0.0,0.0,0.0,0.0,0.0,0.0,-0.1904,0.0,0.0,0.0,0.0,-0.2569,-0.31,-0.3724,-0.352,0.0,0.0,0.0,0.0,0.0,0.0,0.0,-0.4522,-0.4961,-0.5188,-0.4966,-0.4614,-0.4877,-0.61,-0.4919,-0.3929,-0.4034,0.0,-0.2249,-0.1753,-0.1667,-0.1677,-0.167,-0.1639,-0.1637,-0.1704,-0.1729,-0.174,-0.1742,-0.1523,-0.1522,-0.1631,-0.1741,-0.174,-0.174,-0.168,-0.1628,-0.1625,-0.1639,-0.166,-0.1692,-0.2243,-0.2478,-0.6343,-0.6418,-0.6001,-0.5801,-0.5773,-0.5773,-0.5779,-0.579,-0.5779,-0.5833,-0.592,-0.5801,-0.5588,-0.5368,-0.5168,0.0,0.0,-0.5706,-0.5797,-0.5931,-0.6219,-0.6368,-0.6378,-0.6372,-0.6561,-0.6738,-0.6617,-0.6775,-0.7012,-0.6343,-0.6336,-0.6919,-0.5946,-0.5756,-0.6318,-0.6263,-0.6496,-0.6939,-0.6159,-0.5697,-0.5714,-0.5523,-0.5352,-0.5046,-0.5025,-0.4973,-0.5023,-0.4762,-0.3181,-0.0301,-0.2538,-0.2734,-0.0237,0.0,0.0,0.0,0.0,0.0,0.0,0.0,0.0,0.0,0.0,0.0,0.0,0.0,0.0,0.0,-0.2539,0.0,-0.3549,-0.2899,0.0,0.0,0.0,-0.2352,-0.2559,-0.2959,-0.3189,-0.3346,0.0,0.0,0.0,0.0,-0.3411,-0.4268,-0.3543,-0.2974,-0.3289,-0.2422,-0.168,-0.1708,-0.1712,-0.1722,-0.1744,-0.1636,-0.1642,-0.1669,-0.1682,-0.1679,-0.1791,-0.1456,-0.1233,-0.1454,-0.1682,-0.1681,-0.1682,-0.1673,-0.1778,-0.1719,-0.1711,-0.172,-0.1745,-0.1861,-0.187,-0.666,-0.673,-0.6573,-0.6393,-0.6143,-0.6143,-0.6187,-0.6263,-0.6181,-0.6154,-0.617,-0.5953,-0.5795,-0.5687,-0.5902,-0.593,-0.5874,-0.6087,-0.6227,-0.6176,-0.6373,-0.639,-0.6321,-0.6321,-0.6362,-0.6461,-0.6426,-0.6584,-0.6839,-0.6525,-0.6196,-0.6042,-0.5737,-0.6046,-0.6848,-0.621,-0.5911,-0.6061,-0.5807,-0.5692,-0.5725,-0.5529,-0.5474,-0.5416,-0.5159,-0.4978,-0.4945,-0.2491,-0.0846,-0.0076,-0.0657,-0.0689,-0.0063,-0.0504,0.0,0.0,0.0,0.0,0.0,0.0,0.0,0.0,0.0,-0.2295,-0.1203,0.0,-0.3091,0.0,-0.3295,-0.3551,-0.305,-0.2898,0.0,0.0,-0.2775,-0.2951,-0.3392,-0.3147,-0.3007,-0.3182,-0.3887,-0.4135,-0.3459,-0.3376,-0.3124,-0.2576,-0.2226,-0.2331,-0.3137,-0.249,-0.174,-0.1765,-0.1771,-0.1776,-0.178,-0.1338,-0.1115,-0.1121,-0.1121,-0.1234,-0.1682,-0.1682,-0.1346,-0.0673,-0.0785,-0.1121,-0.1121,-0.1458,-0.1791,-0.1776,-0.1774,-0.1775,-0.1783,-0.1783,-0.1786,-0.6801,-0.6801,-0.6801,-0.6687,-0.6507,-0.6507,-0.6545,-0.6594,-0.6535,-0.6507,-0.6497,-0.6208,-0.6059,-0.6051,-0.6306,-0.6334,-0.6143,-0.631,-0.6377,-0.6344,-0.6344,-0.6344,-0.6344,-0.6344,-0.6404,-0.6429,-0.6429,-0.6503,-0.6649,-0.6452,-0.6323,-0.5984,-0.5984,-0.6288,-0.6753,-0.6068,-0.5689,-0.5689,-0.57,-0.5689,-0.5735,-0.5665,-0.5551,-0.546,-0.5311,-0.438,-0.2817,-0.1006,0.0,0.0,0.0,0.0,0.0,0.0,-0.0497,0.0,0.0,0.0,0.0,0.0,0.0,0.0,0.0,0.0,0.0,0.0,-0.3126,0.0,0.0,0.0,-0.2769,-0.2176,-0.1867,-0.1871,-0.1902,-0.2044,-0.2339,-0.2098,-0.1964,-0.2359,-0.2835,-0.3008,-0.2541,-0.2609,-0.2543,-0.188,-0.1756,-0.1969,-0.2537,-0.2101,-0.1776,-0.1793,-0.1794,-0.1794,-0.1794,-0.157,-0.1121,-0.0673,-0.0449,-0.0673,-0.0897,-0.1009,-0.0897,-0.0785,-0.0673,-0.0449,-0.0561,-0.1234,-0.1794,-0.1794,-0.157,-0.1458,-0.1794,-0.1794,-0.1794,-0.6893,-0.7,-0.6893,-0.6883,-0.6872,-0.6872,-0.6844,-0.6801,-0.6801,-0.6801,-0.6796,-0.6583,-0.6481,-0.6486,-0.6385,-0.638,-0.6486,-0.6385,-0.6385,-0.638,-0.648,-0.6486,-0.6486,-0.6486,-0.6475,-0.6458,-0.6458,-0.6404,-0.6393,-0.6393,-0.6435,-0.6423,-0.6423,-0.6423,-0.6418,-0.6026,-0.5815,-0.5795,-0.5789,-0.5786,-0.5779,-0.5763,-0.5648,-0.5515,-0.5482,-0.3866,-0.0787,-0.023,0.0,0.0,0.0,0.0,0.0,0.0,0.0,0.0,0.0,0.0,0.0,0.0,0.0,0.0,0.0,0.0,0.0,-0.251,-0.2863,-0.2052,-0.0808,-0.0621,-0.2181,-0.1192,-0.0435,-0.054,-0.0547,-0.0557,-0.048,-0.049,-0.0704,-0.1251,-0.1503,-0.1532,-0.1645,-0.1668,-0.1682,-0.1681,-0.1679,-0.1678,-0.1794,-0.1793,-0.1681,-0.1682,-0.1794,-0.1794,-0.1794,-0.157,-0.1121,0.0,0.0,0.0,0.0,0.0,-0.0336,-0.1121,-0.0673,0.0,0.0,-0.0897,-0.157,-0.1794,-0.1346,-0.1121,-0.1346,-0.157,-0.1682,-0.7383,-0.7497,-0.7383,-0.7323,-0.7236,-0.7236,-0.7067,-0.6801,-0.6801,-0.6801,-0.6801,-0.6779,-0.6752,-0.673,-0.6521,-0.6521,-0.6626,-0.6417,-0.6521,-0.6626,-0.673,-0.673,-0.6736,-0.673,-0.6681,-0.6589,-0.6584,-0.6524,-0.6404,-0.6404,-0.6393,-0.6372,-0.6372,-0.6372,0.0,0.0,0.0,0.0,-0.6156,-0.604,-0.6018,-0.592,-0.5812,-0.5676,-0.5491,0.0,-0.4048,-0.1422,0.0,0.0,0.0,0.0,0.0,0.0,0.0,0.0,0.0,0.0,0.0,0.0,0.0,0.0,-0.0146,-0.0786,-0.1801,-0.1197,-0.1431,-0.3018,-0.1324,-0.0173,-0.0433,-0.0272,-0.0093,-0.0094,0.0,-0.0101,-0.0102,0.0,-0.0212,-0.0324,-0.0654,-0.0989,-0.1002,-0.112,-0.1121,-0.1009,-0.1009,-0.1234,-0.1794,-0.1458,-0.1121,-0.1121,-0.1458,-0.1794,-0.1794,-0.1009,0.0,0.0,0.0,0.0,0.0,0.0,0.0,0.0,0.0,0.0,0.0,-0.0224,-0.0674,-0.1571,-0.1347,-0.0785,-0.0449,-0.0785,-0.1121,-0.7519,0.0,-0.7519,-0.7481,0.0,-0.7426,-0.7323,-0.7149,-0.7029,-0.6948,-0.6893,-0.7,-0.6861,-0.6695,-0.6801,-0.6801,-0.6801,-0.6801,-0.6801,-0.6801,-0.6912,-0.6912,-0.6801,-0.6801,-0.6768,-0.6709,-0.6709,-0.6572,-0.6411,-0.6405,-0.6411,-0.6411,-0.6411,-0.6379,-0.6422,-0.6369,-0.6448,-0.6373,-0.6277,-0.6244,-0.6089,-0.6029,-0.5828,-0.5662,0.0,0.0,0.0,0.0,0.0,0.0,0.0,0.0,0.0,0.0,0.0,0.0,0.0,0.0,0.0,0.0,0.0,0.0,0.0,-0.0252,-0.1009,-0.0416,-0.0522,-0.1651,-0.0723,0.0,0.0,0.0,0.0,0.0,0.0,0.0,0.0,0.0,0.0,0.0,-0.0222,-0.0445,-0.0448,-0.0449,-0.0449,-0.0449,-0.0673,-0.1121,-0.1682,-0.157,-0.1234,-0.0561,-0.0673,-0.0897,-0.0897,0.0,0.0,0.0,0.0,0.0,0.0,0.0,0.0,0.0,0.0,0.0,0.0,0.0,-0.0228,-0.0688,-0.069,-0.0345,-0.0,-0.0227,-0.0449,-0.7584,-0.7584,-0.7578,-0.7568,-0.7551,-0.7551,-0.754,-0.7502,0.0,0.0,0.0,-0.7194,-0.7133,-0.6818,-0.7124,-0.7113,-0.6893,-0.7091,-0.7085,-0.6973,-0.7079,-0.7079,-0.6866,-0.6866,-0.685,-0.6834,-0.6834,-0.6717,-0.6479,-0.6479,-0.6479,-0.6479,-0.6479,-0.6537,-0.6442,-0.6449,-0.6458,-0.6372,-0.6421,-0.6349,-0.6154,-0.6042,-0.5946,-0.585,-0.5727,-0.5171,-0.4124,-0.1509,0.0,0.0,0.0,0.0,0.0,0.0,0.0,0.0,0.0,0.0,0.0,0.0,0.0,0.0,0.0,0.0,0.0,0.0,0.0,0.0,0.0,0.0,0.0,0.0,0.0,0.0,0.0,0.0,0.0,0.0,0.0,0.0,0.0,0.0,0.0,0.0,0.0,0.0,-0.0449,-0.0899,-0.1351,-0.1349,-0.1009,-0.0224,0.0,0.0,0.0,0.0,0.0,0.0,0.0,0.0,0.0,0.0,0.0,0.0,0.0,0.0,0.0,0.0,0.0,0.0,0.0,0.0,0.0,0.0,0.0,-0.7818,-0.7818,-0.7823,-0.7769,-0.7676,-0.7676,-0.7616,-0.7519,-0.7481,-0.7459,-0.7448,-0.7442,-0.7432,-0.7295,-0.7193,-0.7145,-0.714,-0.7154,-0.7216,0.0,-0.7216,-0.7216,-0.7105,-0.7105,-0.7051,-0.6964,-0.6959,-0.6904,-0.6812,-0.6695,-0.6801,-0.7023,-0.7123,-0.6901,-0.6458,-0.6448,-0.6432,-0.6417,-0.6422,-0.6415,-0.641,-0.6214,-0.6246,-0.6327,-0.5842,-0.4051,-0.0822,0.0,0.0,0.0,0.0,0.0,0.0,0.0,0.0,0.0,0.0,0.0,0.0,0.0,0.0,0.0,0.0,0.0,0.0,0.0,0.0,0.0,0.0,0.0,0.0,0.0,0.0,0.0,0.0,0.0,0.0,0.0,0.0,0.0,0.0,0.0,0.0,0.0,0.0,0.0,0.0,0.0,0.0,-0.0226,-0.0224,0.0,0.0,0.0,0.0,0.0,0.0,0.0,0.0,0.0,0.0,0.0,0.0,0.0,0.0,0.0,0.0,0.0,0.0,0.0,0.0,0.0,0.0,0.0,0.0,-0.7872,-0.7872,-0.7872,-0.7839,-0.779,-0.7796,-0.7763,-0.7714,-0.7709,-0.7638,-0.7524,-0.7519,-0.7519,-0.7397,-0.7343,-0.7316,-0.7196,-0.7257,-0.7236,-0.735,-0.735,-0.735,-0.7355,-0.735,-0.729,-0.7182,-0.7176,-0.7111,-0.7002,-0.6997,-0.7105,-0.7208,-0.7158,-0.7124,-0.6904,-0.685,-0.6717,-0.6389,-0.6391,-0.6442,-0.6448,-0.6303,-0.6358,-0.6406,-0.3983,-0.1865,0.0,0.0,0.0,0.0,0.0,0.0,0.0,0.0,0.0,0.0,0.0,0.0,0.0,0.0,0.0,0.0,0.0,0.0,0.0,0.0,0.0,0.0,0.0,0.0,0.0,0.0,0.0,0.0,0.0,0.0,0.0,0.0,0.0,0.0,0.0,0.0,0.0,0.0,0.0,0.0,0.0,0.0,0.0,0.0,0.0,0.0,0.0,0.0,0.0,0.0,0.0,0.0,0.0,0.0,0.0,0.0,0.0,0.0,0.0,0.0,0.0,0.0,0.0,0.0,0.0,0.0,0.0,0.0,0.0,-0.7872,-0.7872,-0.7872,-0.7872,-0.7872,-0.7872,-0.7872,-0.7872,-0.7867,-0.7769,-0.7611,-0.76,-0.76,-0.7595,-0.7573,-0.7557,-0.7317,-0.7413,-0.7402,-0.7519,-0.7635,-0.7519,-0.7519,-0.7519,-0.747,-0.7383,-0.7377,-0.7328,-0.7241,-0.7209,-0.7187,-0.716,-0.7194,-0.6707,-0.5599,-0.6629,-0.6475,-0.5066,-0.4959,-0.5371,-0.6404,-0.6419,-0.5951,-0.4717,-0.1776,0.0,0.0,0.0,0.0,0.0,0.0,0.0,0.0,0.0,0.0,0.0,0.0,0.0,0.0,0.0,0.0,0.0,0.0,0.0,0.0,0.0,0.0,0.0,0.0,0.0,0.0,0.0,0.0,0.0,0.0,0.0,0.0,0.0,0.0,0.0,0.0,0.0,0.0,0.0,0.0,0.0,0.0,0.0,0.0,0.0,0.0,0.0,0.0,0.0,0.0,0.0,0.0,0.0,0.0,0.0,0.0,0.0,0.0,0.0,0.0,0.0,0.0,0.0,0.0,0.0,0.0,0.0,0.0,0.0,0.0,-0.7872,-0.7872,-0.7872,-0.7872,-0.7872,-0.7872,-0.7872,-0.7872,-0.7872,-0.7861,-0.7828,-0.7839,-0.7834,-0.7823,-0.7851,-0.7812,-0.7801,-0.7808,-0.7886,-0.7886,-0.7874,-0.7758,-0.7529,-0.7529,-0.7513,-0.7502,-0.7502,-0.738,-0.7232,-0.7028,-0.7059,-0.7203,-0.7182,-0.492,-0.1672,-0.5031,-0.5027,0.0,-0.0558,-0.2529,-0.611,-0.6424,-0.4589,-0.0639,0.0,0.0,0.0,0.0,0.0,0.0,0.0,0.0,0.0,0.0,0.0,0.0,0.0,0.0,0.0,0.0,0.0,0.0,0.0,0.0,0.0,0.0,0.0,0.0,0.0,0.0,0.0,0.0,0.0,0.0,0.0,0.0,0.0,0.0,0.0,0.0,0.0,0.0,0.0,0.0,0.0,0.0,0.0,0.0,0.0,0.0,0.0,0.0,0.0,0.0,0.0,0.0,0.0,0.0,0.0,0.0,0.0,0.0,0.0,0.0,0.0,0.0,0.0,0.0,0.0,0.0,0.0,0.0,0.0,0.0,0.0,-0.7997,-0.7883,-0.7948,-0.7932,-0.7877,-0.7883,-0.7888,-0.7888,-0.7894,-0.7894,-0.7894,-0.7894,-0.7888,-0.7867,-0.7955,-0.7944,-0.7939,-0.7889,-0.7867,-0.7867,-0.7867,-0.7867,-0.7741,-0.7747,-0.7714,-0.7768,-0.7762,-0.7487,-0.6715,-0.4315,-0.2894,-0.2996,-0.2996,-0.196,-0.023,-0.1961,-0.1963,0.0,0.0,-0.0909,-0.2374,-0.2666,-0.1759,0.0,0.0,0.0,0.0,0.0,0.0,0.0,0.0,0.0,0.0,0.0,0.0,0.0,0.0,0.0,0.0,0.0,0.0,0.0,0.0,0.0,0.0,0.0,0.0,0.0,0.0,0.0,0.0,0.0,0.0,0.0,0.0,0.0,0.0,0.0,0.0,0.0,0.0,0.0,0.0,0.0,0.0,0.0,0.0,0.0,0.0,0.0,0.0,0.0,0.0,0.0,0.0,0.0,0.0,0.0,0.0,0.0,0.0,0.0,0.0,0.0,0.0,0.0,0.0,0.0,0.0,0.0,0.0,0.0,0.0,0.0,0.0,-0.8007,-0.7997,-0.7948,-0.7937,-0.7857,-0.7867,-0.748,-0.6822,-0.6827,-0.6817,-0.6789,-0.6789,-0.7276,-0.7883,-0.7894,-0.7276,-0.5908,-0.5786,-0.653,-0.7777,-0.7905,-0.7526,-0.6903,-0.6785,-0.6752,-0.6808,-0.6677,-0.699,-0.6665,-0.2367,0.0,0.0,0.0,0.0,0.0,0.0,0.0,0.0,0.0,0.0,0.0,0.0,0.0,0.0,0.0,0.0,0.0,0.0,0.0,0.0,0.0,0.0,0.0,0.0,0.0,0.0,0.0,0.0,0.0,0.0,0.0,0.0,0.0,0.0,0.0,0.0,0.0,0.0,0.0,0.0,0.0,0.0,0.0,0.0,0.0,0.0,0.0,0.0,0.0,0.0,0.0,0.0,0.0,0.0,0.0,0.0,0.0,0.0,0.0,0.0,0.0,0.0,0.0,0.0,0.0,0.0,0.0,0.0,0.0,0.0,0.0,0.0,0.0,0.0,0.0,0.0,0.0,0.0,0.0,0.0,0.0,0.0,0.0,0.0,0.0,-0.7975,-0.7975,-0.7863,-0.773,-0.7863,-0.7858,-0.651,-0.4655,-0.415,-0.4119,-0.4074,-0.4192,-0.5552,-0.7803,-0.7937,-0.5176,-0.0983,0.0,-0.3198,-0.7163,-0.7536,-0.6416,-0.4183,-0.406,-0.4057,-0.4049,-0.4049,-0.5251,-0.702,0.0,0.0,0.0,0.0,0.0,0.0,0.0,0.0,0.0,0.0,0.0,0.0,0.0,0.0,0.0,0.0,0.0,0.0,0.0,0.0,0.0,0.0,0.0,0.0,0.0,0.0,0.0,0.0,0.0,0.0,0.0,0.0,0.0,0.0,0.0,0.0,0.0,0.0,0.0,0.0,0.0,0.0,0.0,0.0,0.0,0.0,0.0,0.0,0.0,0.0,0.0,0.0,0.0,0.0,0.0,0.0,0.0,0.0,0.0,0.0,0.0,0.0,0.0,0.0,0.0,0.0,0.0,0.0,0.0,0.0,0.0,0.0,0.0,0.0,0.0,0.0,0.0,0.0,0.0,0.0,0.0,0.0,0.0,0.0,0.0,0.0,-0.6181,-0.3124,-0.4652,-0.5283,-0.5544,-0.7107,-0.7345,-0.6149,-0.2813,-0.1403,-0.1777,-0.3175,-0.5344,-0.7912,-0.7917,-0.5032,0.0,0.0,-0.1108,-0.2833,-0.2833,-0.4069,-0.6056,-0.3083,-0.1356,-0.1356,-0.1356,-0.1846,-0.2574,-0.0857,0.0,0.0,0.0,0.0,0.0,0.0,0.0,0.0,0.0,0.0,0.0,0.0,0.0,0.0,0.0,0.0,0.0,0.0,0.0,0.0,0.0,0.0,0.0,0.0,0.0,0.0,0.0,0.0,0.0,0.0,0.0,0.0,0.0,0.0,0.0,0.0,0.0,0.0,0.0,0.0,0.0,0.0,0.0,0.0,0.0,0.0,0.0,0.0,0.0,0.0,0.0,0.0,0.0,0.0,0.0,0.0,0.0,0.0,0.0,0.0,0.0,0.0,0.0,0.0,0.0,0.0,0.0,0.0,0.0,0.0,0.0,0.0,0.0,0.0,0.0,0.0,0.0,0.0,0.0,0.0,0.0,0.0,0.0,0.0,0.0,-0.5212,-0.0661,-0.1966,-0.261,-0.2873,-0.458,-0.5356,-0.4943,0.0,0.0,0.0,-0.1938,-0.3622,-0.5178,-0.5311,-0.3584,0.0,0.0,0.0,0.0,0.0,-0.1974,-0.42,-0.1729,0.0,0.0,0.0,0.0,0.0,0.0,0.0,0.0,0.0,0.0,0.0,0.0,0.0,0.0,0.0,0.0,0.0,0.0,0.0,0.0,0.0,0.0,0.0,0.0,0.0,0.0,0.0,0.0,0.0,0.0,0.0,0.0,0.0,0.0,0.0,0.0,0.0,0.0,0.0,0.0,0.0,0.0,0.0,0.0,0.0,0.0,0.0,0.0,0.0,0.0,0.0,0.0,0.0,0.0,0.0,0.0,0.0,0.0,0.0,0.0,0.0,0.0,0.0,0.0,0.0,0.0,0.0,0.0,0.0,0.0,0.0,0.0,0.0,0.0,0.0,0.0,0.0,0.0,0.0,0.0,0.0,0.0,0.0,0.0,0.0,0.0,0.0,0.0,0.0,0.0,0.0,-0.5117,0.0,0.0,0.0,0.0,0.0,0.0,0.0,0.0,0.0,0.0,0.0,0.0,0.0,0.0,0.0,0.0,0.0,0.0,0.0,0.0,0.0,0.0,0.0,0.0,0.0,0.0,0.0,0.0,0.0,0.0,0.0,0.0,0.0,0.0,0.0,0.0,0.0,0.0,0.0,0.0,0.0,0.0,0.0,0.0,0.0,0.0,0.0,0.0,0.0,0.0,0.0,0.0,0.0,0.0,0.0,0.0,0.0,0.0,0.0,0.0,0.0,0.0,0.0,0.0,0.0,0.0,0.0,0.0,0.0,0.0,0.0,0.0,0.0,0.0,0.0,0.0,0.0,0.0,0.0,0.0,0.0,0.0,0.0,0.0,0.0,0.0,0.0,0.0,0.0,0.0,0.0,0.0,0.0,0.0,0.0,0.0,0.0,0.0,0.0,0.0,0.0,0.0,0.0,0.0,0.0,0.0,0.0,0.0,0.0,0.0,0.0,0.0,0.0,0.0,-0.1615,0.0,0.0,0.0,0.0,0.0,0.0,0.0,0.0,0.0,0.0,0.0,0.0,0.0,0.0,0.0,0.0,0.0,0.0,0.0,0.0,0.0,0.0,0.0,0.0,0.0,0.0,0.0,0.0,0.0,0.0,0.0,0.0,0.0,0.0,0.0,0.0,0.0,0.0,0.0,0.0,0.0,0.0,0.0,0.0,0.0,0.0,0.0,0.0,0.0,0.0,0.0,0.0,0.0,0.0,0.0,0.0,0.0,0.0,0.0,0.0,0.0,0.0,0.0,0.0,0.0,0.0,0.0,0.0,0.0,0.0,0.0,0.0,0.0,0.0,0.0,0.0,0.0,0.0,0.0,0.0,0.0,0.0,0.0,0.0,0.0,0.0,0.0,0.0,0.0,0.0,0.0,0.0,0.0,0.0,0.0,0.0,0.0,0.0,0.0,0.0,0.0,0.0,0.0,0.0,0.0,0.0,0.0,0.0,0.0,0.0,0.0,0.0,0.0,0.0,0.0,0.0,0.0,0.0,0.0,0.0,0.0,0.0,0.0,0.0,0.0,0.0,0.0,0.0,0.0,0.0,0.0,0.0,0.0,0.0,0.0,0.0,0.0,0.0,0.0,0.0,0.0,0.0,0.0,0.0,0.0,0.0,0.0,0.0,0.0,0.0,0.0,0.0,0.0,0.0,0.0,0.0,0.0,0.0,0.0,0.0,0.0,0.0,0.0,0.0,0.0,0.0,0.0,0.0,0.0,0.0,0.0,0.0,0.0,0.0,0.0,0.0,0.0,0.0,0.0,0.0,0.0,0.0,0.0,0.0,0.0,0.0,0.0,0.0,0.0,0.0,0.0,0.0,0.0,0.0,0.0,0.0,0.0,0.0,0.0,0.0,0.0,0.0,0.0,0.0,0.0,0.0,0.0,0.0,0.0,0.0,0.0,0.0,0.0,0.0,0.0,0.0,0.0,0.0,0.0,0.0,0.0,0.0,0.0,0.0,0.0,0.0,0.0,0.0,0.0,0.0,0.0,0.0,0.0,0.0,0.0,0.0,0.0,0.0,0.0,0.0,0.0,0.0,0.0,0.0,0.0,0.0,0.0,0.0,0.0,0.0,0.0,0.0,0.0,0.0,0.0,0.0,0.0,0.0,0.0,0.0,0.0,0.0,0.0,0.0,0.0,0.0,0.0,0.0,0.0,0.0,0.0,0.0,0.0,0.0,0.0,0.0,0.0,0.0,0.0,0.0,0.0,0.0,0.0,0.0,0.0,0.0,0.0,0.0,0.0,0.0,0.0,0.0,0.0,0.0,0.0,0.0,0.0,0.0,0.0,0.0,0.0,0.0,0.0,0.0,0.0,0.0,0.0,0.0,0.0,0.0,0.0,0.0,0.0,0.0,0.0,0.0,0.0,0.0,0.0,0.0,0.0,0.0,0.0,0.0,0.0,0.0,0.0,0.0,0.0,0.0,0.0,0.0,0.0,0.0,0.0,0.0,0.0,0.0,0.0,0.0,0.0,0.0,0.0,0.0,0.0,0.0,0.0,0.0,0.0,0.0,0.0,0.0,0.0,0.0,0.0,0.0,0.0,0.0,0.0,0.0,0.0,0.0,0.0,0.0,0.0,0.0,0.0,0.0,0.0,0.0,0.0,0.0,0.0,0.0,0.0,0.0,0.0,0.0,0.0,0.0,0.0,0.0,0.0,0.0,0.0,0.0,0.0,0.0,0.0,0.0,0.0,0.0,0.0,0.0,0.0,0.0,0.0,0.0,0.0,0.0,0.0,0.0,0.0,0.0,0.0,0.0,0.0,0.0,0.0,0.0,0.0,0.0,0.0,0.0,0.0,0.0,0.0,0.0,0.0,0.0,0.0,0.0,0.0,0.0,0.0,0.0,0.0,0.0,0.0,0.0,0.0,0.0,0.0,0.0,0.0,0.0,0.0,0.0,0.0,0.0,0.0,0.0,0.0,0.0,0.0,0.0,0.0,0.0,0.0,0.0,0.0,0.0,0.0,0.0,0.0,0.0,0.0,0.0,0.0,0.0,0.0,0.0,0.0,0.0,0.0,0.0,0.0,0.0,0.0,0.0,0.0,0.0,0.0,0.0,0.0,0.0,0.0,0.0,0.0,0.0,0.0,0.0,0.0,0.0,0.0,0.0,0.0,0.0,0.0,0.0,0.0,0.0,0.0,0.0,0.0,0.0,0.0,0.0,0.0,0.0,0.0,0.0,0.0,0.0,0.0,0.0,0.0,0.0,0.0,0.0,0.0,0.0,0.0,0.0,0.0,0.0,0.0,0.0,0.0,0.0,0.0,0.0,0.0,0.0,0.0,0.0,0.0,0.0,0.0,0.0,0.0,0.0,0.0,0.0,0.0,0.0,0.0,0.0,0.0,0.0,0.0,0.0,0.0,0.0,0.0,0.0,0.0,0.0,0.0,0.0,0.0,0.0,0.0,0.0,0.0,0.0,0.0,0.0,0.0,0.0,0.0,0.0,0.0,0.0,0.0,0.0,0.0,0.0,0.0,0.0,0.0,0.0,0.0,0.0,0.0,0.0,0.0,0.0,0.0,0.0,0.0,0.0,0.0,0.0,0.0,0.0,0.0,0.0,0.0,0.0,0.0,0.0,0.0,0.0,0.0,0.0,0.0,0.0,0.0,0.0,0.0,0.0,0.0,0.0,0.0,0.0,0.0,0.0,0.0,0.0,0.0,0.0,0.0,0.0,0.0,0.0,0.0,0.0,0.0,0.0,0.0,0.0,0.0,0.0,0.0,0.0,0.0,0.0,0.0,0.0,0.0,0.0,0.0,0.0,0.0,0.0,0.0,0.0,0.0,0.0,0.0,0.0,0.0,0.0,0.0,0.0,0.0,0.0,0.0,0.0,0.0,0.0,0.0,0.0,0.0,0.0,0.0,0.0,0.0,0.0,0.0,0.0,0.0,0.0,0.0,0.0,0.0,0.0,0.0,0.0,0.0,0.0,0.0,0.0,0.0,0.0,0.0,0.0,0.0,0.0,0.0,0.0,0.0,0.0,0.0,0.0,0.0,0.0,0.0,0.0,0.0,0.0,0.0,0.0,0.0,0.0,0.0,0.0,0.0,0.0,0.0,0.0,0.0,0.0,0.0,0.0,0.0,0.0,0.0,0.0,0.0,0.0,0.0,0.0,0.0,0.0,0.0,0.0,0.0,0.0,0.0,0.0,0.0,0.0,0.0,0.0,0.0,0.0,0.0,0.0,0.0,0.0,0.0,0.0,0.0,0.0,0.0,0.0,0.0,0.0,0.0,0.0,0.0,0.0,0.0,0.0,0.0,0.0,0.0,0.0,0.0,0.0,0.0,0.0,0.0,0.0,0.0,0.0,0.0,0.0,0.0,0.0,0.0,0.0,0.0,0.0,0.0,0.0,0.0,0.0,0.0,0.0,0.0,0.0,0.0,0.0,0.0,0.0,0.0,0.0,0.0,0.0,0.0,0.0,0.0,0.0,0.0,0.0,0.0,0.0,0.0,0.0,0.0,0.0,0.0,0.0,0.0,0.0,0.0,0.0,0.0,0.0,0.0,0.0,0.0,0.0,0.0,0.0,0.0,0.0,0.0,0.0,0.0,0.0,0.0,0.0,0.0,0.0,0.0,0.0,0.0,0.0,0.0,0.0,0.0,0.0,0.0,0.0,0.0,0.0,0.0,0.0,0.0,0.0,0.0,0.0,0.0,0.0,0.0,0.0,0.0,0.0,0.0,0.0,0.0,0.0,0.0,0.0,0.0,0.0,0.0,0.0,0.0,0.0,0.0,0.0,0.0,0.0,0.0,0.0,0.0,0.0,0.0,0.0,0.0,0.0,0.0,0.0,0.0,0.0,0.0,0.0,0.0,0.0,0.0,0.0,0.0,0.0,0.0,0.0,0.0,0.0,0.0,0.0,0.0,0.0,0.0,0.0,0.0,0.0,0.0,0.0,0.0,0.0,0.0,0.0,0.0,0.0,0.0,0.0,0.0,0.0,0.0,0.0,0.0,0.0,0.0,0.0,0.0,0.0,0.0,0.0,0.0,0.0,0.0,0.0,0.0,0.0,0.0,0.0,0.0,0.0,0.0,0.0,0.0,0.0,0.0,0.0,0.0,0.0,0.0,0.0,0.0,0.0,0.0,0.0,0.0,0.0,0.0,0.0,0.0,0.0,0.0,0.0,0.0,0.0,0.0,0.0,0.0,0.0,0.0,0.0,0.0,0.0,0.0,0.0,0.0,0.0,0.0,0.0,0.0,0.0,0.0,0.0,0.0,0.0,0.0,0.0,0.0,0.0,0.0,0.0,0.0,0.0,0.0,0.0,0.0,0.0,0.0,0.0,0.0,0.0,0.0,0.0,0.0,0.0,0.0,0.0,0.0,0.0,0.0,0.0,0.0,0.0,0.0,0.0,0.0,0.0,0.0,0.0,0.0,0.0,0.0,0.0,0.0,0.0,0.0,0.0,0.0,0.0,0.0,0.0,0.0,0.0,0.0,0.0,0.0,0.0,0.0,0.0,0.0,0.0,0.0,0.0,0.0,0.0,0.0,0.0,0.0,0.0,0.0,0.0,0.0,0.0,0.0,0.0,0.0,0.0,0.0,0.0,0.0,0.0,0.0,0.0,0.0,0.0,0.0,0.0,0.0,0.0,0.0,0.0,0.0,0.0,0.0,0.0,0.0,0.0,0.0,0.0,0.0,0.0,0.0,0.0,0.0,0.0,0.0,0.0,0.0,0.0,0.0,0.0,0.0,0.0,0.0,0.0,0.0,0.0,0.0,0.0,0.0,0.0,0.0,0.0,0.0,0.0,0.0,0.0,0.0,0.0,0.0,0.0,0.0,0.0,0.0,0.0,0.0,0.0,0.0,0.0,0.0,0.0,0.0,0.0,0.0,0.0,0.0,0.0,0.0,0.0,0.0,0.0,0.0,0.0,0.0,0.0,0.0,0.0,0.0,0.0,0.0,0.0,0.0,0.0,0.0,0.0,0.0,0.0,0.0,0.0,0.0,0.0,0.0,0.0,0.0,0.0,0.4369,0.5101,0.5693,0.0,0.0,0.4226,0.3932,0.3935,0.3932,0.393,0.3932,0.3935,0.3932,0.0,0.0,0.0,0.0,0.0,0.0,0.0,0.0,0.0,0.0,0.0,0.0,0.0,0.0,0.0,0.0,0.0,0.0,0.0,0.0,0.0,0.0,0.0,0.0,0.0,0.0,0.0,0.0,0.0,0.0,0.0,0.0,0.0,0.0,0.0,0.0,0.0,0.0,0.0,0.0,0.0,0.0,0.0,0.0,0.0,0.0,0.0,0.0,0.0,0.0,0.0,0.3063,0.0,0.0,0.0,0.0,0.0,0.0,0.0,0.0,0.0,0.0,0.0,0.0,0.0,0.0,0.0,0.0,0.0,0.0,0.0,0.0,0.0,0.0,0.0,0.0,0.0,0.0,0.0,0.0,0.0,0.0,0.0,0.0,0.0,0.0,0.0,0.0,0.0,0.0,0.1752,0.4381,0.7023,0.7751,0.9216,0.7879,0.6261,0.6406,0.6555,0.6555,0.6704,0.641,0.714,0.8024,0.8614,0.8469,0.8183,0.6857,0.7003,0.6998,0.6849,0.6704,0.6998,0.6998,0.6704,0.0,0.0,0.0,0.0,0.0,0.0,0.0,0.0,0.0,0.0,0.0,0.0,0.0,0.0,0.0,0.0,0.0,0.0,0.0,0.0,0.0,0.0,0.0,0.0,0.0,0.0,0.0,0.0,0.0,0.0,0.0,0.0,0.0,0.0,0.0,0.0,0.0,0.0,0.0,0.0,0.0,0.0,0.0,0.0,0.0,0.0,0.0,0.0,0.0,0.5399,0.5991,0.0,0.0,0.0,0.0,0.0,0.0,0.0,0.0,0.0,0.0,0.0,0.0,0.0,0.0,0.0,0.0,0.0,0.0,0.0,0.0,0.0,0.0,0.0,0.0,0.0,0.0,0.0,0.0,0.0,0.0,0.0,0.0,0.0,0.0,0.0,0.0,0.0,0.0,0.0,0.453,0.7023,0.8785,0.8775,0.9351,0.934,0.8304,0.8155,0.8155,0.8155,0.8454,0.8754,0.934,0.9329,0.9189,0.9044,0.92,0.9351,0.8599,0.8304,0.905,0.905,0.8454,0.8304,0.83,0.0,0.0,0.0,0.0,0.0,0.0,0.0,0.0,0.0,0.0,0.0,0.0,0.0,0.0,0.0,0.0,0.0,0.0,0.0,0.0,0.0,0.0,0.0,0.0,0.0,0.0,0.0,0.0,0.0,0.0,0.0,0.0,0.0,0.0,0.0,0.0,0.0,0.0,0.0,0.0,0.0,0.0,0.0,0.0,0.0,0.0,0.0,0.3354,0.5396,0.1601,0.1746,0.1019,0.0,0.0,0.0,0.0,0.0,0.0,0.0,0.0,0.0,0.0,0.0,0.0,0.0,0.0,0.0,0.0,0.0,0.0,0.0,0.0,0.0,0.0,0.0,0.0,0.0,0.0,0.0,0.0,0.0,0.0,0.0,0.0,0.0,0.0,0.0,0.0,0.0,0.0,0.6137,0.8334,0.9362,0.9351,0.934,0.9329,0.9323,0.9323,0.9318,0.9318,0.9323,0.9323,0.9318,0.9313,0.9318,0.9318,0.9323,0.9323,0.9313,0.9313,0.9323,0.9318,0.9163,0.9313,0.9318,0.0438,0.0,0.0,0.0,0.0,0.0,0.0,0.0,0.0,0.0,0.0,0.0,0.0,0.0,0.0,0.0,0.0,0.0,0.0,0.0,0.0,0.0,0.0,0.0,0.0,0.0,0.0,0.0,0.0,0.0,0.0,0.0,0.0,0.0,0.0,0.0,0.0,0.0,0.0,0.0,0.0,0.0,0.0,0.0,0.0,0.0,0.0,0.1893,0.3057,0.0727,0.2765,0.5244,0.4808,0.0,0.0,0.0,0.0,0.0,0.0,0.0,0.0,0.0,0.0,0.0,0.0,0.0,0.0,0.0,0.0,0.0,0.0,0.0,0.0,0.0,0.0,0.0,0.0,0.0,0.0,0.0,0.0,0.0,0.0,0.0,0.0,0.0,0.0,0.0,0.0,0.0,0.7007,0.876,0.934,0.9334,0.9323,0.9313,0.9313,0.9313,0.9313,0.9307,0.9307,0.9307,0.9302,0.9302,0.9307,0.9307,0.9302,0.9302,0.9307,0.9307,0.9302,0.9302,0.9302,0.9302,0.9307,0.1022,0.0584,0.0146,0.0146,0.0584,0.0584,0.0,0.0,0.0,0.0,0.0292,0.0,0.0,0.0,0.0,0.0,0.0,0.0,0.0,0.0438,0.0,0.0,0.0,0.0,0.0,0.0,0.0,0.0,0.0,0.0,0.0,0.0,0.0,0.0,0.0,0.0,0.0,0.0,0.0,0.0,0.0,0.0,0.0,0.0,0.0,0.0,0.0,0.0,0.0145,0.378,0.6264,0.8324,0.8179,0.6881,0.6012,0.5726,0.4263,0.0,0.0,0.0,0.0,0.0,0.0,0.0,0.0,0.0,0.0,0.0,0.0,0.0,0.0,0.0,0.0,0.0,0.0,0.0,0.0,0.0,0.0,0.0,0.0,0.0,0.0,0.0,0.0,0.0,0.0,0.8504,0.8343,0.6857,0.7729,0.9189,0.9323,0.9318,0.9313,0.9307,0.9302,0.9302,0.9302,0.9302,0.9302,0.9302,0.9302,0.9302,0.9302,0.9302,0.9302,0.9302,0.9302,0.9302,0.9302,0.9302,0.9302,0.9302,0.9302,0.1606,0.2043,0.0584,0.0876,0.2043,0.2189,0.1752,0.1168,0.1168,0.1168,0.1168,0.1168,0.073,0.0,0.0,0.0,0.0,0.0,0.0,0.1024,0.0,0.0,0.0,0.0,0.0,0.0,0.0,0.0,0.0,0.0,0.0,0.0,0.0,0.0,0.0,0.0,0.0,0.0,0.0,0.0,0.0,0.0,0.0,0.322,0.6727,0.0,0.0,0.0,0.3061,0.7606,0.8946,0.954,0.9416,0.9019,0.875,0.8321,0.8071,0.644,0.4788,0.2681,0.0,0.0,0.0,0.0,0.0,0.0,0.0,0.0,0.0,0.0,0.0,0.0,0.0,0.0,0.0,0.0,0.0,0.0,0.0,0.0,0.0,0.0,0.0,0.0,0.0,0.0,0.5107,0.9372,0.9362,0.8314,0.8599,0.9329,0.9313,0.9307,0.9307,0.9302,0.9302,0.9302,0.9302,0.9302,0.9302,0.9302,0.9302,0.9302,0.9302,0.9302,0.9302,0.9302,0.9302,0.9302,0.9302,0.9302,0.9302,0.9302,0.9302,0.2043,0.2191,0.1605,0.1459,0.1606,0.2043,0.2189,0.1898,0.1898,0.1898,0.1898,0.1898,0.1752,0.146,0.1315,0.088,0.0,0.0,0.0,0.0,0.1047,0.0749,0.0,0.0,0.0,0.0,0.0,0.0,0.0,0.0,0.0,0.0,0.0,0.0,0.0,0.0,0.0,0.1346,0.1492,0.1344,0.1194,0.2983,0.4178,0.5075,0.6708,0.8805,0.0,0.0,0.8632,0.9979,1.0724,1.0718,1.0269,1.0334,1.0208,1.007,0.9983,0.9086,0.8177,0.6326,0.5259,0.3302,0.0,0.2423,0.1062,0.0,0.0,0.0,0.0,0.0,0.0,0.0,0.0,0.0,0.0,0.0,0.0,0.0,0.0,0.0,0.0,0.0,0.0,0.0,0.0,0.5849,0.7892,0.9356,0.9345,0.9334,0.9323,0.9318,0.9307,0.9307,0.9302,0.9302,0.9302,0.9302,0.9302,0.9302,0.9302,0.9302,0.9302,0.9302,0.9302,0.9302,0.9302,0.9302,0.9302,0.9302,0.9302,0.9302,0.9302,0.9302,0.9302,0.2334,0.2335,0.2334,0.2042,0.1606,0.2043,0.2335,0.2335,0.2335,0.2335,0.2335,0.2335,0.2341,0.2346,0.2203,0.1331,0.0,0.0,0.0,0.0,0.0756,0.1062,0.0913,0.0,0.0,0.0,0.0,0.0,0.0,0.0,0.0,0.0,0.0,0.0,0.0,0.0,0.0913,0.2122,0.2424,0.3181,0.3328,0.5141,0.68,0.7248,0.8595,0.8885,0.9633,0.9617,1.0834,1.1599,1.1918,1.1775,1.1489,1.1052,1.0769,1.0486,1.0207,1.0072,0.9926,0.9602,0.8702,0.6735,0.6434,0.5208,0.3515,0.2139,0.0,0.0,0.0,0.1529,0.153,0.0,0.0,0.0,0.0,0.0,0.0,0.4137,0.4583,0.0,0.5452,0.5562,0.7057,0.6861,0.6945,0.7491,0.8324,0.9345,0.934,0.9323,0.9313,0.9307,0.9307,0.9302,0.9302,0.9302,0.9302,0.9302,0.9302,0.9302,0.9302,0.9302,0.9302,0.9302,0.9302,0.9302,0.9302,0.9302,0.9302,0.9302,0.9302,0.9302,0.9302,0.9302,0.9302,0.2333,0.2333,0.2333,0.2333,0.2187,0.2333,0.2333,0.2334,0.2333,0.2333,0.2334,0.2335,0.2203,0.2221,0.2078,0.1348,0.0,0.0,0.0,0.0,0.0763,0.1224,0.1537,0.1698,0.1238,0.0313,0.0,0.0,0.0,0.0,0.0,0.0,0.0,0.0,0.0,0.0,0.092,0.2429,0.2886,0.456,0.6084,0.7157,0.8067,0.8824,1.0341,1.0637,1.0022,1.0932,1.1854,1.2313,1.2313,1.2313,1.2162,1.1637,1.1213,1.1066,1.0863,1.0601,1.0612,1.0064,0.9608,0.9196,0.8712,0.8571,0.8453,0.7041,0.4989,0.497,0.4828,0.4836,0.4844,0.4844,0.4836,0.4831,0.4973,0.4967,0.5739,0.6038,0.648,0.6784,0.6256,0.6197,0.8323,0.9511,0.9102,0.9166,0.9222,0.934,0.9351,0.9318,0.9307,0.9302,0.9302,0.9302,0.9302,0.9302,0.9302,0.9302,0.9302,0.9302,0.9302,0.9302,0.9302,0.9302,0.9302,0.9302,0.9302,0.9302,0.9302,0.9302,0.9302,0.9302,0.9302,0.9302,0.9302,0.2333,0.2333,0.2333,0.2333,0.2333,0.2333,0.2333,0.2333,0.2333,0.2333,0.2338,0.2352,0.2071,0.1785,0.1501,0.1061,0.0459,0.138,0.169,0.155,0.1549,0.1555,0.1872,0.1872,0.1721,0.1569,0.1256,0.0785,0.0,0.1256,0.157,0.0,0.1413,0.0,0.0,0.1093,0.2957,0.5277,0.5897,0.6512,0.7586,0.8505,0.9269,0.9725,1.1568,1.1555,1.0609,1.1841,1.2159,1.2471,1.2477,1.2484,1.2491,1.1946,1.1798,1.1651,1.1411,1.1417,1.1101,1.0601,1.0297,1.0186,1.0041,1.0047,0.9735,0.9105,0.8476,0.8167,0.7846,0.785,0.8324,0.8319,0.831,0.8315,0.8301,0.8301,0.8608,0.8585,0.8721,0.8896,0.8534,0.8144,0.935,0.9932,0.9682,0.9606,0.9525,0.9459,0.9449,0.9356,0.9307,0.9307,0.9302,0.9302,0.9307,0.9362,0.9367,0.9367,0.9334,0.9302,0.9302,0.9323,0.9307,0.9313,0.9307,0.9302,0.9302,0.9302,0.9302,0.9302,0.9302,0.9302,0.9302,0.9302,0.9302,0.2333,0.2333,0.2333,0.2333,0.2333,0.2333,0.2333,0.2333,0.2334,0.2338,0.2352,0.2371,0.2094,0.1807,0.1519,0.1535,0.1086,0.1864,0.2489,0.2514,0.2512,0.2196,0.1884,0.1728,0.204,0.22,0.2043,0.1728,0.1728,0.22,0.2356,0.2353,0.2511,0.1881,0.1567,0.2193,0.3916,0.6573,0.7985,0.8925,0.9066,0.9371,1.0308,1.0928,1.1863,1.2326,1.2494,1.2501,1.2501,1.2501,1.2501,1.2501,1.2501,1.2501,1.2347,1.2192,1.1882,1.1727,1.1262,1.1101,1.0808,1.0716,1.0202,1.003,1.0036,0.9719,0.9724,0.9735,1.0063,0.9907,0.9912,1.0074,1.0074,0.9917,0.9912,0.975,0.9729,0.9698,0.9698,0.988,1.0036,0.996,0.9916,0.9878,0.9818,0.9753,0.9693,0.9628,0.9557,0.947,0.94,0.94,0.9416,0.9443,0.9459,0.9476,0.947,0.9438,0.9416,0.9394,0.9372,0.94,0.9356,0.9318,0.9313,0.9313,0.9307,0.9302,0.9307,0.9307,0.9302,0.9302,0.9302,0.9302,0.9302,0.2333,0.2333,0.2333,0.2333,0.2333,0.2333,0.2333,0.2334,0.2335,0.2352,0.2378,0.2382,0.2262,0.2304,0.2467,0.2329,0.2191,0.2508,0.2511,0.2514,0.2514,0.2357,0.2357,0.2357,0.2357,0.2514,0.2357,0.22,0.2514,0.2512,0.2508,0.2975,0.3916,0.407,0.4224,0.4693,0.6111,0.8632,1.0364,1.0826,1.0486,1.0319,1.1101,1.1876,1.2347,1.2501,1.2501,1.2501,1.2501,1.2501,1.2501,1.2501,1.2501,1.2501,1.2501,1.236,1.2218,1.1914,1.1641,1.1498,1.1372,1.1288,1.0751,1.0219,1.0068,1.0263,1.028,1.0117,1.0123,1.009,1.0068,1.0074,1.0085,1.0074,1.0063,1.0047,1.003,1.0014,0.9858,1.0025,1.0025,0.9992,0.9987,0.996,0.9916,0.99,0.9845,0.9796,0.9726,0.9633,0.9579,0.9574,0.9595,0.9628,0.9628,0.9595,0.9574,0.9541,0.9574,0.9563,0.953,0.9487,0.947,0.9432,0.9351,0.934,0.9405,0.9378,0.9313,0.9313,0.9334,0.9302,0.9302,0.9302,0.9302,0.2333,0.2333,0.2333,0.2333,0.2333,0.2333,0.2333,0.2335,0.2354,0.2372,0.238,0.2425,0.2451,0.247,0.2491,0.2504,0.2511,0.2514,0.2514,0.2514,0.2514,0.2514,0.2514,0.2671,0.2514,0.2514,0.2671,0.2826,0.2669,0.2667,0.2817,0.2813,0.6889,0.8462,0.909,0.9402,1.0036,1.067,1.194,1.1914,1.1734,1.1566,1.203,1.2347,1.2501,1.2501,1.2501,1.2501,1.2501,1.2501,1.2501,1.2501,1.2501,1.2508,1.2528,1.2657,1.2521,1.239,1.2483,1.2185,1.2045,1.2071,1.1561,1.1089,1.0918,1.0742,1.0583,1.039,1.0226,1.0374,1.021,1.021,1.0188,1.0161,1.015,1.0128,1.0106,1.0063,1.0057,1.0019,1.0019,1.0019,1.0019,1.0008,0.9976,0.9998,0.9987,0.9938,0.9883,0.9786,0.9737,0.9737,0.9731,0.9748,0.9704,0.9666,0.9661,0.9655,0.9699,0.9704,0.9644,0.9606,0.9595,0.9552,0.9481,0.9508,0.9574,0.9508,0.94,0.9378,0.9389,0.934,0.9302,0.9307,0.9307,0.2333,0.2333,0.2333,0.2333,0.2333,0.2333,0.2333,0.2338,0.2365,0.2384,0.2402,0.2446,0.2476,0.2489,0.2504,0.2514,0.2514,0.2514,0.2514,0.2514,0.2514,0.2514,0.2514,0.2983,0.314,0.314,0.3611,0.4549,0.3764,0.4385,0.4847,0.7189,1.1305,1.194,1.2245,1.1753,1.2102,1.2265,1.2576,1.2528,1.2522,1.2515,1.2501,1.2515,1.2515,1.2515,1.2515,1.2515,1.2508,1.2522,1.2535,1.2596,1.2617,1.2651,1.2705,1.282,1.2827,1.2854,1.2755,1.2775,1.2661,1.2546,1.2398,1.2106,1.1751,1.1397,1.1034,1.0833,1.0683,1.0534,1.0539,1.0539,1.0329,1.028,1.0423,1.0401,1.0346,1.0128,1.0079,1.003,1.0019,1.0019,1.0019,1.0019,1.0019,1.0014,1.0014,0.9998,0.9965,0.9916,0.9878,0.9873,0.9856,0.9845,0.9802,0.9775,0.9796,0.9818,0.9851,0.984,0.9769,0.972,0.9704,0.9666,0.9622,0.965,0.9671,0.9584,0.9497,0.9492,0.947,0.9421,0.9372,0.9329,0.9468,0.2333,0.2333,0.2333,0.2333,0.2333,0.2333,0.2333,0.2337,0.2369,0.2397,0.2425,0.2459,0.2489,0.2506,0.2514,0.2514,0.2514,0.2514,0.2514,0.2514,0.2514,0.2514,0.2983,0.392,0.392,0.4236,0.5016,0.5952,0.5792,0.6257,0.8132,1.2238,1.242,1.2589,1.2576,1.2454,1.2671,1.2889,1.2834,1.2773,1.2589,1.2556,1.2535,1.2562,1.2569,1.2562,1.2562,1.2549,1.2535,1.2589,1.2651,1.2745,1.2951,1.2999,1.2915,1.2969,1.2969,1.3017,1.3051,1.3071,1.3112,1.3159,1.3193,1.2913,1.2566,1.203,1.1649,1.1312,1.1161,1.1161,1.1167,1.1161,1.112,1.0907,1.0867,1.0833,1.0616,1.0396,1.0177,1.0128,1.0085,1.0074,1.0019,1.0019,1.0019,1.0019,1.0019,1.0019,1.0008,0.9987,0.9976,0.997,0.9949,0.9932,0.9943,0.9932,0.9965,0.9987,0.9981,0.9954,0.9878,0.9835,0.9807,0.978,0.9758,0.9731,0.972,0.965,0.9617,0.9639,0.9606,0.953,0.9465,0.9416,0.949,0.2333,0.2333,0.2333,0.2333,0.2333,0.2333,0.2333,0.2338,0.2391,0.2416,0.2432,0.2476,0.2506,0.2512,0.2514,0.2514,0.2514,0.2514,0.2514,0.2828,0.2828,0.3297,0.314,0.4703,0.4857,0.517,0.6108,0.7509,0.7513,0.7972,0.9221,1.207,1.246,1.2521,1.2527,1.2588,1.2834,1.3054,1.3027,1.2992,1.2847,1.2847,1.2854,1.284,1.2827,1.2813,1.2813,1.2827,1.2675,1.2542,1.2881,1.2901,1.3068,1.2949,1.3017,1.3098,1.3125,1.3166,1.322,1.3241,1.3275,1.3302,1.3336,1.3363,1.3025,1.2656,1.2301,1.1965,1.1794,1.1788,1.1623,1.1776,1.1758,1.154,1.1324,1.1103,1.089,1.0667,1.0286,1.0226,1.0172,1.0117,1.0063,1.003,1.0019,1.0019,1.0019,1.0019,1.0019,1.0008,1.0003,0.9998,1.0003,0.9998,1.0019,1.0019,1.0019,1.0019,1.0003,0.9987,0.997,0.9943,0.9905,0.9911,0.99,0.9862,0.9807,0.9737,0.972,0.9764,0.972,0.9639,0.9761,0.9871,0.9894,0.2333,0.2333,0.2333,0.2333,0.2333,0.2333,0.2333,0.2343,0.2398,0.2424,0.2432,0.2482,0.2514,0.2514,0.2514,0.2514,0.2514,0.2514,0.377,0.4397,0.4711,0.4863,0.5329,0.6108,0.642,0.6889,0.7981,0.892,0.9266,0.9917,1.1197,1.2364,1.2476,1.2675,1.284,1.2922,1.3003,1.3219,1.3387,1.3253,1.3098,1.3057,1.2976,1.2956,1.2963,1.2963,1.2956,1.3123,1.2956,1.2822,1.301,1.3112,1.3139,1.318,1.3207,1.3247,1.3281,1.3308,1.337,1.3397,1.3397,1.3397,1.3397,1.339,1.3397,1.3025,1.2853,1.2516,1.2357,1.2185,1.202,1.2014,1.2008,1.1806,1.194,1.174,1.1341,1.0784,1.055,1.0318,1.0286,1.0275,1.0215,1.0144,1.0128,1.0095,1.0085,1.0036,1.003,1.0036,1.003,1.0019,1.0019,1.0019,1.0019,1.0019,1.0019,1.0019,1.0019,1.0008,0.9998,1.0008,1.0008,0.9981,0.997,0.9965,0.9911,0.9845,0.9856,0.9905,0.9835,0.9748,0.9882,1.0167,1.0363,0.2333,0.2333,0.2333,0.2333,0.2333,0.2333,0.2333,0.2343,0.2545,0.2725,0.3038,0.3263,0.298,0.2512,0.2512,0.2512,0.2511,0.2508,0.439,0.6591,0.785,0.7217,0.7517,0.8604,0.8618,0.8944,0.9896,1.0914,1.1792,1.1963,1.2007,1.2448,1.2648,1.2822,1.3318,1.336,1.3436,1.3343,1.3391,1.3439,1.3234,1.3166,1.3085,1.3037,1.301,1.3017,1.3017,1.3024,1.3024,1.3071,1.3152,1.3241,1.3308,1.3329,1.3342,1.337,1.3363,1.3376,1.3397,1.3397,1.3397,1.3397,1.3397,1.3397,1.3397,1.3231,1.3065,1.2899,1.2899,1.2733,1.2567,1.2401,1.2395,1.2388,1.237,1.2191,1.1617,1.0896,1.0661,1.0422,1.0405,1.0405,1.034,1.0269,1.0237,1.0204,1.0161,1.0095,1.0063,1.0074,1.0079,1.0047,1.0019,1.0019,1.0019,1.0019,1.0019,1.0019,1.0019,1.0019,1.0019,1.0019,1.0019,1.0019,1.0008,1.0003,1.0003,0.9965,0.9992,1.0003,1.0098,1.0168,1.0315,1.0591,1.0987,0.2333,0.2333,0.2333,0.2333,0.2333,0.2333,0.2333,0.2635,0.3887,0.4381,0.4712,0.5723,0.5324,0.2506,0.2502,0.297,0.407,0.3756,0.4852,0.7205,0.9891,0.9412,0.8934,0.988,1.0699,1.1215,1.1578,1.214,1.2569,1.2755,1.2935,1.3157,1.3105,1.3301,1.3322,1.3377,1.3453,1.3329,1.3329,1.3363,1.337,1.3329,1.3336,1.3315,1.3315,1.3315,1.3315,1.3315,1.3322,1.3329,1.3329,1.3363,1.3383,1.3397,1.3397,1.3397,1.3397,1.3397,1.3397,1.3397,1.3397,1.3397,1.3397,1.3397,1.3397,1.3397,1.3231,1.3231,1.3231,1.3231,1.3065,1.3065,1.3065,1.2899,1.2886,1.2216,1.1517,1.1328,1.0958,1.0732,1.0525,1.0487,1.0422,1.0378,1.0362,1.0329,1.0313,1.0253,1.0177,1.0155,1.0139,1.0101,1.0057,1.0019,1.0019,1.0019,1.0019,1.0019,1.0019,1.0019,1.0019,1.0019,1.0019,1.0019,1.0019,1.0014,1.0019,1.0019,1.0019,1.0169,1.0325,1.0601,1.0589,1.0868,1.1262]}]]